[[[{"header":{"parameterUnit":"kt","parameterCategory":2,"dx":1,"dy":1,"la1":29.285339999999998,"la2":30.599998999999997,"lo1":-89.70041500000002,"lo2":-87.6738589999976,"nx":112,"ny":82,"refTime":"2022-10-14T06:00:00:Z","depth":0,"parameterNumber":1,"parameterNumberName":"U-component_of_WINDS"},"data":[-1.068,-1.0871,-1.0812,-0.9277,-0.9157,-0.891,-0.7208,-0.737,-0.76,-0.6508,-0.6721,-0.7231,-0.7369,-0.6673,-0.608,-0.6257,-0.5854,-0.529,0.0,-0.4272,-0.4016,-0.4016,-0.4687,-0.5164,-0.5233,-0.5586,-0.7227,-1.0789,-0.9666,-1.0226,-1.3314,-1.274,-1.2321,-1.2321,-1.2321,-1.2321,-1.2321,-1.1555,-1.1097,-1.1097,-1.0331,-1.0024,-1.0024,-0.8655,-0.7593,-0.6836,-0.426,-0.2743,-0.183,-0.061,0.0,0.0,0.0,0.0,0.0,0.0,0.0,0.0,0.0,0.0,0.0,0.0,0.0,0.0,0.0,0.0,0.0,0.0,0.0,0.0,0.0,0.0,0.0,0.0,0.061,0.1525,0.2895,0.426,0.6078,0.8655,0.9722,1.0638,1.2013,1.2321,1.2321,1.2321,1.2321,1.2321,1.2321,1.2321,1.2321,1.2321,1.2321,1.2321,1.2321,1.2321,1.2321,1.2321,1.2321,1.2321,1.2321,1.2321,1.2321,1.2321,1.2321,1.2321,1.2321,1.2321,1.2321,1.2321,1.2321,1.2321,-1.071,-1.0932,-1.0843,-0.8635,-0.8625,-0.8663,-0.6531,-0.6844,-0.7348,-0.635,-0.6994,-0.7625,-0.7123,-0.687,-0.6684,-0.64,-0.6376,-0.6111,0.0,-0.5018,-0.4927,-0.5103,-0.6335,-0.7114,-0.6839,-0.7107,-0.8354,-1.1164,-0.9801,-1.0295,-1.3625,-1.2796,-1.2321,-1.2321,-1.2321,-1.2321,-1.2321,-1.2321,-1.2321,-1.2321,-1.2321,-1.2321,-1.217,-1.0789,-0.9873,-0.8962,-0.6382,-0.4414,-0.3047,-0.1677,-0.061,0.0,0.0,0.0,0.0,0.0,0.0,0.0,0.0,0.0,0.0,0.0,0.0,0.0,0.0,0.0,0.0,0.0,0.0,0.0,0.0,0.0,0.0,0.0,0.0,0.0305,0.183,0.259,0.3958,0.6537,0.8202,0.9571,1.094,1.1247,1.1247,1.1247,1.1856,1.2321,1.2321,1.2321,1.2321,1.2321,1.2321,1.2321,1.2321,1.2321,1.2321,1.2321,1.2321,1.2321,1.2321,1.2321,1.2321,1.2321,1.2321,1.2321,1.2321,1.2321,1.2321,1.2321,1.2321,1.2321,-1.2214,-1.1971,-1.1616,-0.8557,-0.8678,-0.891,-0.6622,-0.6772,-0.7342,-0.7234,-0.7509,-0.7985,-0.8791,-0.8492,-0.806,-0.7842,-0.7859,0.0,0.0,-0.5905,-0.6486,-0.6989,-0.8571,-0.9711,-0.9989,-0.8729,-0.8519,-1.0032,-0.8696,-0.9137,-1.216,-1.2321,-1.2321,-1.2321,-1.2321,-1.2321,-1.2321,-1.2321,-1.2321,-1.2321,-1.2321,-1.2321,-1.2321,-1.2321,-1.1097,-0.9264,-0.9113,-0.6987,-0.3352,-0.3199,-0.1982,-0.0153,0.0,0.0,-0.0153,0.0,0.0,0.0,0.0,0.0,0.0,0.0,0.0,0.0,0.0,0.0,0.0,0.0,0.0,0.0,0.0,0.0,0.0,0.0,0.0,0.0,0.0,0.1525,0.3047,0.3047,0.623,0.8957,0.8957,0.9103,0.9098,0.9088,1.0766,1.2137,1.2144,1.215,1.2157,1.2157,1.2314,1.2321,1.2321,1.2321,1.2321,1.2321,1.2321,1.2321,1.2321,1.2321,1.2321,1.2321,1.2157,1.2157,1.2321,1.2157,1.2157,1.2321,1.2301,1.2144,-0.9935,-0.9993,-1.034,-0.9314,-0.9073,-0.8895,-0.8051,-0.7738,-0.7749,-0.8084,-0.7975,0.0,0.0,0.0,-0.7961,-0.8301,0.0,-0.956,-0.7898,-0.9901,-1.1789,-1.2356,-1.2135,-1.2318,-1.3242,-1.1971,-1.2405,-1.5277,-1.1682,-1.0822,-1.4125,-1.3058,-1.2321,-1.2321,-1.2321,-1.2321,-1.2321,-1.2321,-1.2321,-1.2321,-1.2321,-1.2321,-1.2321,-1.2321,-1.1862,-1.1247,-0.9722,-0.8504,-0.729,-0.4262,-0.2743,-0.2133,-0.061,-0.0915,-0.2133,-0.061,0.0,0.0,0.0,0.0,0.0,0.0,0.0,0.0,0.0,0.0,0.0,0.0,0.0,0.0,0.0,0.0,0.0,0.0,0.0,0.0,0.0,0.0458,0.1372,0.2743,0.3958,0.5171,0.6681,0.6889,0.7353,0.8657,0.8208,0.8642,1.1232,1.0681,1.0502,1.1694,1.2038,1.2321,1.2321,1.2321,1.2321,1.2321,1.2321,1.2321,1.2321,1.2321,1.2321,1.2321,1.1952,1.1952,1.2321,1.1946,1.1952,1.2157,1.1722,1.1517,-1.0767,-1.0952,-1.1462,-0.9591,-0.9886,-1.0034,-0.7954,-0.7817,-0.8151,-0.8194,0.0,0.0,0.0,0.0,0.0,0.0,-1.0544,-1.131,-0.983,-1.2167,-1.4322,-1.5244,-1.5939,-1.6526,-1.6718,-1.5516,-1.5285,-1.652,-1.3312,-1.2041,-1.3859,-1.2915,-1.2321,-1.2321,-1.2321,-1.2321,-1.2321,-1.2321,-1.2321,-1.2321,-1.2321,-1.2321,-1.2321,-1.2321,-1.2321,-1.217,-1.094,-0.9873,-0.8957,-0.6537,-0.5169,-0.4258,-0.3044,-0.3196,-0.4258,-0.3044,-0.198,-0.1372,-0.1372,-0.0763,0.0,0.0,0.0,0.0,0.0,0.0,0.0,0.0,0.0,0.0,0.0,0.0,0.0,0.0,0.0,0.0,0.0,0.0,0.0305,0.1525,0.2438,0.3177,0.3405,0.4227,0.5171,0.6215,0.6766,0.7893,1.0004,1.0133,1.0376,1.1388,1.1689,1.1794,1.1794,1.1794,1.1794,1.1794,1.1794,1.1794,1.1794,1.1794,1.1794,1.1794,1.1623,1.1616,1.1794,1.1616,1.1623,1.1788,1.1438,1.1273,-1.2795,-1.2933,-1.3259,-0.9677,-1.0542,-1.132,-0.7565,0.0,-0.8726,-0.8661,0.0,-0.9323,-0.9913,0.0,0.0,-1.0093,-1.1946,-1.2998,-1.1855,-1.3829,-1.5897,-1.7021,-1.9659,-2.1114,-2.0231,-1.9137,-1.78,-1.5993,-1.4294,-1.303,-1.2546,-1.2321,-1.2321,-1.2321,-1.2321,-1.2321,-1.2321,-1.2321,-1.2321,-1.2321,-1.2321,-1.2321,-1.2321,-1.2321,-1.2321,-1.2321,-1.2321,-1.1247,-0.9415,-0.9264,-0.8046,-0.6375,-0.6375,-0.6375,-0.6375,-0.6072,-0.4865,-0.3502,-0.3502,-0.2133,-0.0305,-0.0305,-0.0153,0.0,0.0,0.0,0.0,0.0,0.0,0.0,0.0,0.0,0.0,0.0,0.0,0.0,0.0,0.0,0.0,0.0,0.1518,0.2242,0.0285,0.155,0.2812,0.3082,0.5732,0.7958,0.8236,0.9517,1.052,1.0949,1.0975,1.1134,1.1273,1.1273,1.1273,1.1273,1.1273,1.1273,1.1273,1.1273,1.1273,1.1273,1.1247,1.1247,1.1273,1.1247,1.1214,1.1181,1.1181,1.1181,-1.057,-1.0111,-1.0328,-1.0055,-0.9332,-0.9102,0.0,0.0,0.0,-1.3388,-1.3258,-1.2998,-1.3978,-1.3946,-1.3816,-1.4108,-1.5695,-1.6569,-1.5439,-1.8426,-2.0984,-2.1685,-2.1932,-2.2321,-2.3022,-2.2446,-2.1457,-2.0023,-1.6659,-1.4758,-1.4665,-1.3058,-1.2321,-1.2321,-1.2321,-1.2321,-1.2321,-1.2321,-1.2321,-1.2321,-1.2321,-1.2321,-1.2321,-1.2321,-1.2321,-1.2321,-1.2321,-1.2013,-1.1555,-0.9873,-0.8957,-0.8504,-0.8504,-0.8504,-0.8348,-0.6677,-0.5769,-0.5469,-0.5469,-0.4106,-0.2438,-0.2438,-0.1373,0.0,0.0,0.0,0.0,0.0,0.0,0.0,0.0,0.0,0.0,0.0,0.0,0.0,0.0,0.0,0.0,0.0,0.0296,0.0438,0.0,0.0275,0.1091,0.2392,0.2121,0.2653,0.5551,0.5256,0.5739,0.8473,0.9047,0.9719,1.1134,1.1273,1.1273,1.1273,1.1273,1.1273,1.1273,1.1273,1.1273,1.1273,1.1056,1.1056,1.1273,1.1056,1.0819,1.0588,1.0588,1.0588,-0.9689,-0.966,-1.0252,-0.9577,-0.9615,0.0,0.0,-1.0553,-1.1225,-1.4923,-1.5057,-1.5152,-1.6896,-1.7441,-1.7379,-1.6355,-1.7945,-1.9348,-1.9646,-2.114,-2.2529,-2.3386,-2.2983,-2.2983,-2.3827,-2.3659,-2.3169,-2.2562,-1.9797,-1.7177,-1.5277,-1.4241,-1.3208,-1.2321,-1.2321,-1.2321,-1.2321,-1.2321,-1.2321,-1.2321,-1.2321,-1.2321,-1.2321,-1.2321,-1.2321,-1.2321,-1.2321,-1.2321,-1.217,-1.1097,-1.0638,-1.0638,-1.0638,-1.0638,-1.0633,-0.9566,-0.8435,-0.7452,-0.7452,-0.6118,-0.4177,-0.3095,-0.2221,-0.1345,-0.0295,0.0,0.0,0.0,0.0,0.0,0.0,0.0,0.0,0.0,0.0,0.0,0.0,0.0,0.0,0.0,0.0,0.0,0.0,0.0,0.0266,0.1178,0.1306,0.1958,0.3646,0.4085,0.4784,0.651,0.7662,0.8665,0.9483,1.0302,1.0852,1.0852,1.0852,1.0852,1.0852,1.0852,1.0852,1.0852,1.0713,1.0713,1.0852,1.0706,1.0568,1.0552,1.0552,1.0552,-0.9406,-0.9837,-1.0785,-0.9704,-1.0446,0.0,-1.1763,-1.1745,-1.2824,-1.6893,-1.7715,-1.8125,-1.9642,-2.0922,-2.0805,-1.8506,-1.9659,-2.1541,-2.3547,-2.3374,-2.3291,-2.3802,-2.3516,-2.3412,-2.3866,-2.3918,-2.3918,-2.3918,-2.2443,-1.9954,-1.6447,-1.6011,-1.4979,-1.3508,-1.3058,-1.2765,-1.2765,-1.2464,-1.2321,-1.2321,-1.2321,-1.2321,-1.2321,-1.2321,-1.2321,-1.2321,-1.2321,-1.2321,-1.2321,-1.2321,-1.2104,-1.1992,-1.1992,-1.1992,-1.1992,-1.1992,-1.0796,-0.9294,-0.9294,-0.7849,-0.5804,-0.384,-0.3008,-0.2614,-0.057,0.0,0.0,0.0,0.0,0.0,0.0,0.0,0.0,0.0,0.0,0.0,0.0,0.0,0.0,0.0,0.0,0.0,0.0,0.0,0.0,0.0,0.1176,0.2087,0.2087,0.3258,0.4296,0.4686,0.5983,0.7024,0.7676,0.9108,1.0159,1.0423,1.0552,1.0552,1.0552,1.0552,1.0552,1.0552,1.0552,1.0552,1.0552,1.0552,1.0552,1.0552,1.0552,1.0552,-0.9466,-0.9387,-1.003,-1.2046,-1.1229,0.0,-1.7929,-1.8241,-1.8506,-2.3245,-2.4728,-2.4789,-2.348,-2.3923,-2.3894,-2.1905,-2.1854,-2.2962,-2.587,-2.6138,-2.559,-2.4036,-2.3853,-2.384,-2.3905,-2.3918,-2.3918,-2.3918,-2.3762,-2.2587,-2.0525,-1.8648,-1.7629,-1.7491,-1.5714,-1.483,-1.483,-1.3058,-1.2321,-1.2321,-1.2321,-1.2321,-1.2321,-1.2321,-1.2321,-1.2321,-1.2321,-1.2321,-1.2321,-1.2321,-1.186,-1.1379,-1.1379,-1.1379,-1.1379,-1.1379,-1.1212,-1.1039,-1.1039,-0.963,-0.7649,-0.5793,-0.4102,-0.227,-0.0567,0.0,0.0,0.0,0.0,0.0,0.0,0.0,0.0,0.0,0.0,0.0,0.0,0.0,0.0,0.0,0.0,0.0,0.0,0.0,0.0,0.0,0.0131,0.0262,0.0262,0.0393,0.1176,0.2605,0.2995,0.4423,0.7546,0.7934,0.872,1.0416,1.0552,1.0552,1.0552,1.0552,1.0552,1.0552,1.0552,1.0552,1.0552,1.0552,1.0552,1.0552,1.0552,1.0552,-0.8895,-0.8981,-0.9588,-1.1142,0.0,0.0,-1.7877,-1.9374,-2.1317,-2.6271,-2.7549,-2.7984,-2.8647,-2.9046,-2.8592,-2.6706,-2.6435,-2.6491,-2.6631,-2.6578,-2.6013,-2.4192,-2.3918,-2.3918,-2.3918,-2.3918,-2.3776,-2.3451,-2.3724,-2.3477,-2.2286,-2.068,-1.9234,-1.807,-1.7343,-1.6308,-1.5128,-1.4391,-1.3358,-1.2321,-1.2321,-1.2321,-1.2321,-1.2321,-1.2321,-1.2321,-1.2321,-1.2071,-1.1893,-1.1722,-1.1504,-1.1273,-1.1273,-1.1273,-1.1273,-1.1273,-1.1175,-1.1036,-1.1036,-1.049,-0.9497,-0.7449,-0.5718,-0.3989,-0.2033,-0.0811,0.0,0.0,0.0,0.0,0.0,0.0,0.0,0.0,0.0,0.0,0.0,0.0,0.0,0.0,0.0,0.0,0.0,0.0,0.0,0.0,0.0,0.0,0.0,0.0,0.0262,0.0915,0.1956,0.3125,0.4553,0.6631,0.8069,0.885,0.9894,1.0552,1.0552,1.0552,1.0552,1.0552,1.0552,1.0552,1.0552,1.0552,1.0552,1.0552,1.0552,1.0552,-0.8877,0.0,0.0,0.0,0.0,0.0,-1.9913,-2.164,-2.3899,-2.8474,-2.9632,-3.0169,-3.1589,-3.2046,-3.1999,-3.0848,-3.0865,-3.0436,-2.8506,-2.7659,-2.6442,-2.4649,-2.3811,-2.3503,-2.3672,-2.3685,-2.3581,-2.3321,-2.3529,-2.3568,-2.3321,-2.2231,-2.0922,-1.9491,-1.8787,-1.7707,-1.6261,-1.5253,-1.4148,-1.2775,-1.2336,-1.2091,-1.2314,-1.2084,-1.2045,-1.2045,-1.1959,-1.1755,-1.1465,-1.1254,-1.1115,-1.1043,-1.1043,-1.1043,-1.1043,-1.1043,-1.0911,-1.0746,-1.0746,-1.0746,-1.0435,-0.838,-0.7122,-0.5744,-0.3276,-0.1697,-0.0654,-0.0131,0.0,0.0,0.0,0.0,0.0,0.0,0.0,0.0,0.0,0.0,0.0,0.0,0.0,0.0,0.0,0.0,0.0,0.0,0.0,0.0,0.0,0.0,0.0,0.0,0.1046,0.1956,0.2475,0.5331,0.7283,0.7805,0.9501,1.0552,1.0552,1.0552,1.0552,1.0552,1.0552,1.0552,1.0552,1.0552,1.0552,1.0552,1.0552,1.0803,0.0,0.0,0.0,-1.7398,-1.8495,-2.0254,-2.6899,-2.7221,-2.7069,-3.0563,-3.1834,-3.205,-3.1183,-3.1695,-3.2511,-3.3537,-3.4342,-3.4171,-3.2339,-3.0075,-2.7781,-2.6075,-2.366,-2.2477,-2.3048,-2.31,-2.3321,-2.3853,-2.3399,-2.3334,-2.3853,-2.3386,-2.3087,-2.2949,-2.0468,-1.9241,-1.9105,-1.5568,-1.396,-1.4139,-1.2439,-1.1887,-1.2157,-1.1867,-1.1735,-1.1715,-1.1425,-1.1148,-1.0891,-1.0884,-1.0706,-1.0572,-1.0572,-1.0572,-1.0572,-1.0572,-1.0572,-1.0565,-1.0565,-1.0565,-1.0171,-0.8333,-0.781,-0.7033,-0.3516,-0.2475,-0.2086,-0.0523,0.0,0.0,0.0,0.0,0.0,0.0,0.0,0.0,0.0,0.0,0.0,0.0,0.0,0.0,0.0,0.0,0.0,0.0,0.0,0.0,0.0,0.0,0.0,0.0,0.0,0.0785,0.2346,0.4296,0.5983,0.7676,0.9501,1.0552,1.0552,1.0552,1.0552,1.0552,1.0552,1.0552,1.0552,1.0552,1.0552,1.0552,1.0552,1.1431,-1.4004,-1.4844,-1.6109,-2.0622,-2.2372,-2.3653,-2.6462,-2.8379,-2.986,-3.1116,-3.191,-3.2347,-3.1968,-3.2227,-3.2464,-3.2867,-3.3182,-3.2683,-3.0807,-2.9939,-2.8614,-2.683,-2.4961,-2.3877,-2.4086,-2.3163,-2.2425,-2.223,-2.2386,-2.2425,-2.223,-2.2399,-2.2503,-2.2503,-2.1626,-2.0564,-1.9196,-1.7978,-1.6823,-1.5575,-1.3928,-1.3719,-1.4946,-1.3711,-1.3102,-1.3095,-1.2981,-1.2753,-1.2225,-1.1084,-1.0639,-1.0552,-1.0552,-1.0552,-1.0552,-1.0552,-1.0552,-1.0552,-1.0552,-1.0552,-1.0416,-0.9765,-0.872,-0.7546,-0.6372,-0.5205,-0.4166,-0.3648,-0.2608,-0.1697,-0.1697,-0.0785,0.0,0.0,0.0,0.0,0.0,0.0,0.0,0.0,0.0,0.0,0.0,0.0,0.0,0.0,0.0,0.0,0.0,0.0,0.0,0.0,0.0,0.0262,0.0785,0.3518,0.5464,0.6113,0.885,1.0552,1.0552,1.0552,1.0552,1.0552,1.0552,1.0552,1.0552,1.0552,1.0552,1.0552,1.0552,1.0803,-1.6104,-1.7099,-1.8099,-2.2795,-2.497,-2.6196,-2.7316,-2.9234,-3.0866,-3.1287,-3.1663,-3.2157,-3.2338,-3.2271,-3.2062,-3.2062,-3.2328,-3.2006,-3.0835,-2.9945,-2.9008,-2.7885,-2.6041,-2.4744,-2.4323,-2.3316,-2.2467,-2.1685,-2.1815,-2.1841,-2.1672,-2.1828,-2.1906,-2.1906,-2.1906,-2.1135,-1.9748,-1.9082,-1.824,-1.7055,-1.5323,-1.5123,-1.6335,-1.5114,-1.4518,-1.4645,-1.5043,-1.4813,-1.3823,-1.2064,-1.1431,-1.1303,-1.0674,-1.0552,-1.0552,-1.0552,-1.0552,-1.0552,-1.0552,-1.0552,-1.0552,-1.0552,-0.9765,-0.8591,-0.7934,-0.7024,-0.5983,-0.5464,-0.4426,-0.3514,-0.3514,-0.2217,-0.0915,-0.0915,-0.0393,-0.0131,-0.0785,-0.0393,-0.0131,-0.0785,-0.0393,0.0,0.0,0.0,0.0,0.0,0.0,0.0,0.0,0.0,0.0262,0.0785,0.0915,0.0915,0.0915,0.4169,0.5854,0.5335,0.8586,1.0552,1.0552,1.0552,1.0552,1.0552,1.0552,1.0318,1.0113,1.0113,1.0113,1.0113,1.0212,1.0205,-1.6728,-1.8291,-1.9885,-2.4414,-2.6643,-2.8019,-2.9594,-2.9955,-3.0297,-3.1097,-3.1268,-3.1417,-3.2233,-3.172,-3.1268,-3.1268,-3.1853,-3.2262,-3.2262,-3.0441,-2.8973,-2.8973,-2.6884,-2.5049,-2.3961,-2.3894,-2.3396,-2.2339,-2.175,-2.1684,-2.2088,-2.162,-2.1321,-2.1321,-2.1321,-2.1062,-2.0652,-1.9022,-1.837,-1.8559,-1.688,-1.6169,-1.653,-1.614,-1.6095,-1.6207,-1.7463,-1.713,-1.5602,-1.3823,-1.3061,-1.2807,-1.1303,-1.0552,-1.0552,-1.0552,-1.0552,-1.0552,-1.0552,-1.0552,-1.0552,-1.0552,-1.0552,-1.0159,-0.8457,-0.7934,-0.7546,-0.5983,-0.5464,-0.5335,-0.5335,-0.4033,-0.2605,-0.2605,-0.1306,-0.0523,-0.2087,-0.1306,-0.0785,-0.2346,-0.1306,-0.0131,-0.0131,0.0,0.0,0.0,0.0,0.0,0.0,0.0,0.0653,0.2206,0.2468,0.2468,0.2465,0.5706,0.7006,0.544,0.8553,1.0505,1.0505,1.0505,1.0505,1.0505,1.0505,1.0107,0.9559,0.9559,0.9559,0.9566,0.983,0.981,-2.3323,-2.5631,-2.6811,-3.0842,-3.1342,-3.0727,-3.0066,-3.0724,-3.1342,-3.0468,-3.0278,-3.0354,-3.0562,-3.0429,-3.0278,-3.0278,-3.0467,-3.06,-3.06,-3.0065,-2.9685,-2.9685,-2.8099,-2.6866,-2.6581,-2.5528,-2.4283,-2.2869,-2.2618,-2.2112,-2.107,-2.0828,-2.0737,-2.0737,-2.0737,-2.0796,-2.0652,-2.0147,-1.9963,-2.0102,-1.8335,-1.8266,-1.9522,-1.8129,-1.8209,-1.9328,-1.8447,-1.7891,-1.7255,-1.5602,-1.4204,-1.2934,-1.256,-1.1552,-1.0552,-1.0552,-1.0552,-1.0552,-1.0552,-1.0552,-1.0552,-1.0552,-1.0552,-1.0416,-0.9894,-0.9765,-0.9765,-0.9243,-0.8198,-0.7153,-0.7153,-0.5854,-0.4166,-0.2865,-0.2216,-0.1697,-0.0785,-0.2349,-0.4038,-0.4426,-0.3125,-0.1826,-0.1826,-0.0785,0.0,0.0,0.0,0.0,0.0,0.0,0.0126,0.0615,0.175,0.2507,0.2206,0.5476,0.724,0.6604,0.8553,0.9784,0.9784,0.9784,0.9784,0.9784,0.9784,0.9711,0.9559,0.9559,0.9559,0.9559,0.9632,0.9632,-2.3415,-2.6511,-2.9097,-3.3239,-3.2676,-3.106,-3.0948,-3.0948,-3.0948,-3.0068,-2.9955,-2.9955,-2.9955,-2.9955,-2.9955,-2.9955,-2.9955,-2.9955,-2.9955,-2.9955,-2.9955,-2.9955,-2.9141,-2.8321,-2.7611,-2.6797,-2.5625,-2.4083,-2.3963,-2.3619,-2.267,-2.2685,-2.2685,-2.2685,-2.1957,-2.1957,-2.267,-2.1239,-2.1007,-2.1592,-2.0011,-1.9653,-2.0529,-1.9653,-1.9653,-2.0529,-1.9653,-1.9146,-1.9022,-1.738,-1.6105,-1.5088,-1.357,-1.2432,-1.156,-1.0803,-1.0552,-1.0552,-1.0552,-1.0552,-1.0552,-1.0552,-1.0552,-1.0552,-1.0552,-1.0552,-1.0552,-1.0552,-0.9765,-0.8979,-0.8979,-0.7676,-0.6113,-0.5072,-0.4293,-0.3516,-0.2479,-0.4429,-0.6113,-0.5335,-0.374,-0.2295,-0.1513,-0.063,0.0,0.0,0.0,0.0,0.0,0.0,0.0245,0.1081,0.1945,0.2803,0.3232,0.5818,0.729,0.7052,0.86,0.9559,0.9559,0.9559,0.9559,0.9559,0.9302,0.917,0.917,0.917,0.917,0.9177,0.9309,0.9296,-2.1752,-2.5407,-2.9523,-3.3235,-3.2327,-3.0724,-3.1616,-3.0948,-3.0181,-2.9955,-2.9955,-2.9955,-2.9955,-2.9955,-2.9955,-2.9955,-2.9955,-2.9955,-2.9955,-2.9955,-2.9955,-2.9955,-2.9955,-2.9387,-2.809,-2.7975,-2.728,-2.5759,-2.5641,-2.5523,-2.5287,-2.5287,-2.5287,-2.5287,-2.3963,-2.3844,-2.4931,-2.2321,-2.147,-2.2642,-2.1239,-2.0652,-2.0652,-2.0652,-2.0652,-2.0652,-2.0652,-2.0652,-2.0529,-1.9022,-1.8276,-1.7766,-1.4836,-1.357,-1.3188,-1.1688,-1.1189,-1.1189,-1.1189,-1.1053,-1.0803,-1.0803,-1.0674,-1.0552,-1.0552,-1.0552,-1.0552,-1.0552,-1.0552,-1.0552,-1.0552,-0.9372,-0.8069,-0.7805,-0.6726,-0.579,-0.579,-0.6948,-0.7593,-0.6047,-0.4546,-0.2961,-0.1203,-0.06,-0.024,0.0,0.0,0.0,0.0,0.0,0.0595,0.201,0.2373,0.3084,0.4604,0.6395,0.7347,0.7194,0.861,0.9441,0.9441,0.9441,0.9441,0.9441,0.894,0.8783,0.8783,0.8783,0.8783,0.879,0.894,0.892,-2.86,-3.1442,-3.2977,-3.393,-3.3847,-3.2874,-3.0836,-3.106,-3.1394,-3.0181,-2.9955,-2.9955,-2.9955,-2.9955,-2.9955,-2.9955,-2.9955,-2.9955,-2.9955,-2.9955,-2.9955,-2.9955,-2.9955,-2.9842,-2.9615,-2.9482,-2.8912,-2.7263,-2.7147,-2.6681,-2.5405,-2.5287,-2.5287,-2.5287,-2.505,-2.4321,-2.3364,-2.2762,-2.2065,-2.1007,-2.0775,-2.0652,-2.0652,-2.0652,-2.0652,-2.0652,-2.0652,-2.0652,-2.0529,-2.027,-1.9393,-1.8027,-1.7391,-1.6367,-1.5098,-1.4845,-1.4719,-1.4719,-1.4719,-1.3705,-1.256,-1.256,-1.168,-1.0552,-1.0552,-1.0552,-1.0552,-1.0552,-1.0552,-1.0552,-1.0552,-1.0288,-0.9636,-0.8198,-0.8292,-0.8736,-0.8736,-0.8977,-0.9097,-0.8857,-0.8575,-0.7813,-0.6096,-0.3586,-0.1317,-0.012,0.0,0.0,0.0,0.0,0.0114,0.0445,0.1701,0.3073,0.4314,0.5996,0.7496,0.8397,0.8718,0.8828,0.8828,0.8828,0.8828,0.8828,0.883,0.8783,0.8783,0.8783,0.8783,0.8783,0.883,0.883,-2.7724,-3.0383,-3.2395,-3.346,-3.3952,-3.4062,-3.3395,-3.2676,-3.1917,-3.1408,-3.1782,-3.1908,-3.1152,-3.106,-3.0836,-3.0068,-2.9955,-2.9955,-2.9955,-2.9955,-2.9955,-2.9955,-2.9955,-2.9955,-2.9955,-2.9955,-2.9615,-2.8894,-2.8798,-2.855,-2.7726,-2.7726,-2.7726,-2.7726,-2.6914,-2.6547,-2.6647,-2.5018,-2.4202,-2.4202,-2.3379,-2.2549,-2.1822,-2.267,-2.2549,-2.1822,-2.1007,-2.0652,-2.0652,-2.0652,-2.0147,-1.9282,-1.84,-1.7641,-1.6754,-1.5854,-1.5602,-1.5602,-1.5602,-1.4962,-1.4204,-1.3316,-1.2314,-1.1311,-1.0438,-1.0087,-0.9975,-0.9975,-0.9975,-0.9975,-0.9975,-0.9975,-0.9721,-0.8845,-0.9147,-0.9559,-0.9559,-0.9559,-0.9559,-0.9559,-0.8844,-0.7924,-0.7108,-0.4943,-0.2732,-0.1368,-0.0457,0.0,0.0,0.0,0.0,0.0,0.1434,0.2873,0.4125,0.572,0.7278,0.8683,0.8783,0.8783,0.8783,0.8783,0.8783,0.8783,0.8783,0.8783,0.8783,0.8783,0.8783,0.8783,0.8783,0.8783,-2.6267,-2.8523,-3.1,-3.3401,-3.4019,-3.4233,-3.5265,-3.423,-3.3118,-3.3421,-3.3474,-3.3183,-3.2218,-3.1896,-3.1486,-3.0593,-3.0407,-3.0407,-3.0407,-3.0181,-2.9955,-2.9955,-2.9955,-2.9955,-2.9955,-2.9955,-2.9955,-2.9955,-2.9955,-2.9955,-2.9955,-2.9955,-2.9955,-2.9955,-2.8798,-2.855,-2.9369,-2.7048,-2.6229,-2.703,-2.5877,-2.4678,-2.3484,-2.5034,-2.4916,-2.3364,-2.22,-2.1483,-2.1117,-2.1117,-2.0885,-2.0529,-1.9146,-1.8649,-1.8513,-1.7119,-1.6607,-1.6607,-1.6607,-1.6284,-1.5703,-1.4319,-1.3199,-1.2059,-1.073,-0.9971,-0.9559,-0.9559,-0.9559,-0.9559,-0.9559,-0.9559,-0.9533,-0.9401,-0.9368,-0.9368,-0.9368,-0.9368,-0.9368,-0.9368,-0.8261,-0.733,-0.733,-0.5957,-0.4446,-0.3255,-0.1631,-0.0327,0.0,0.0,0.0,0.0,0.0979,0.239,0.4122,0.5311,0.6717,0.8676,0.8783,0.8783,0.8783,0.8783,0.8783,0.8783,0.8783,0.8783,0.8783,0.8783,0.8783,0.8783,0.8783,0.8783,-2.9196,-3.0214,-3.1362,-3.5526,-3.4906,-3.3279,-3.3079,-3.4478,-3.5918,-3.6033,-3.3492,-3.1362,-3.2006,-3.1455,-3.117,-3.1807,-3.1818,-3.1818,-3.1818,-3.0724,-2.9955,-2.9955,-2.9955,-2.9955,-2.9955,-2.9955,-2.9955,-2.9955,-2.9955,-2.9955,-2.9955,-2.9955,-2.9955,-2.9955,-2.9842,-2.9141,-2.7859,-2.7512,-2.6797,-2.5523,-2.5405,-2.5168,-2.5168,-2.6681,-2.6564,-2.505,-2.4931,-2.4083,-2.2762,-2.2762,-2.1943,-2.0529,-2.0406,-2.0406,-2.0406,-2.0147,-2.0147,-2.0147,-2.0147,-1.8794,-1.6925,-1.6794,-1.4463,-1.1697,-1.1579,-1.0629,-0.9559,-0.9559,-0.9559,-0.9559,-0.9559,-0.9559,-0.9428,-0.888,-0.8863,-0.8863,-0.8863,-0.8863,-0.8863,-0.8863,-0.8735,-0.8608,-0.8608,-0.7385,-0.6394,-0.6178,-0.3797,-0.1522,-0.0218,0.0,0.0,0.0,0.0109,0.1305,0.401,0.4443,0.5742,0.8562,0.8783,0.8783,0.8783,0.8783,0.8783,0.8783,0.8783,0.8783,0.8783,0.8783,0.8783,0.8783,0.8783,0.8783,-2.5491,-2.6566,-2.8241,-3.1375,-3.2891,-3.3863,-3.4944,-3.5569,-3.5909,-3.6529,-3.4853,-3.3335,-3.3628,-3.3243,-3.2801,-3.2525,-3.2948,-3.3112,-3.2149,-3.1616,-3.0948,-3.0068,-2.9955,-2.9955,-2.9955,-2.9955,-2.9955,-2.9955,-2.9955,-2.9955,-2.9955,-2.9955,-2.9955,-2.9955,-2.9955,-2.9615,-2.9026,-2.9026,-2.8665,-2.809,-2.809,-2.809,-2.809,-2.8779,-2.8205,-2.6681,-2.6681,-2.5743,-2.4321,-2.4321,-2.3364,-2.2065,-2.2065,-2.1483,-2.0652,-2.0652,-2.0309,-2.001,-2.001,-1.9267,-1.7964,-1.7003,-1.5527,-1.4031,-1.3008,-1.1501,-1.0229,-1.0229,-0.968,-0.9025,-0.9025,-0.9025,-0.8966,-0.8837,-0.8783,-0.8783,-0.8783,-0.8783,-0.8783,-0.8783,-0.8783,-0.8783,-0.8783,-0.824,-0.7583,-0.6609,-0.5527,-0.4013,-0.1631,-0.0545,0.0,0.0,0.0762,0.174,0.293,0.3794,0.5203,0.7368,0.7476,0.7476,0.7368,0.8234,0.8783,0.8783,0.8783,0.8783,0.8783,0.8783,0.8783,0.8783,0.8783,0.8783,-2.3221,-2.4053,-2.573,-2.8283,-3.0951,-3.3458,-3.5947,-3.5434,-3.48,-3.6215,-3.5122,-3.4044,-3.427,-3.419,-3.3915,-3.3414,-3.4166,-3.4489,-3.3524,-3.3004,-3.2348,-3.1374,-3.0836,-3.0612,-3.0612,-3.0181,-2.9955,-2.9955,-2.9955,-2.9955,-2.9955,-2.9955,-2.9955,-2.9955,-2.9955,-2.9955,-2.9955,-2.9955,-2.9955,-2.9955,-2.9955,-2.9955,-2.9955,-2.9955,-2.9369,-2.8321,-2.8321,-2.7611,-2.6564,-2.6095,-2.5034,-2.3574,-2.3394,-2.2383,-2.0943,-2.0782,-2.0105,-1.9413,-1.9413,-1.9049,-1.8333,-1.7179,-1.6268,-1.543,-1.4222,-1.2378,-1.0667,-1.0667,-0.9725,-0.8783,-0.8783,-0.8991,-0.9305,-0.9305,-0.9305,-0.9198,-0.8783,-0.8783,-0.8783,-0.8783,-0.8783,-0.8783,-0.8783,-0.8783,-0.8347,-0.7255,-0.6825,-0.585,-0.3689,-0.1848,-0.0436,0.0,0.0871,0.163,0.2064,0.3039,0.4335,0.585,0.6286,0.6286,0.585,0.7261,0.8019,0.8126,0.8562,0.8783,0.8783,0.8783,0.8783,0.8783,0.8783,0.8783,-2.4061,-2.3994,-2.4753,-2.8135,-2.9724,-3.1383,-3.4653,-3.3702,-3.2774,-3.4946,-3.353,-3.2149,-3.3071,-3.3492,-3.3935,-3.4615,-3.5606,-3.6378,-3.6275,-3.5102,-3.4169,-3.4169,-3.2895,-3.2059,-3.2059,-3.0724,-2.9955,-2.9955,-2.9955,-2.9955,-2.9955,-2.9955,-2.9955,-2.9955,-2.9955,-2.9955,-2.9955,-2.9955,-2.9955,-2.9955,-2.9955,-2.9955,-2.9955,-2.9955,-2.9955,-2.9955,-2.9955,-2.9842,-2.9728,-2.8205,-2.6681,-2.5223,-2.4418,-2.3218,-2.1851,-2.1115,-2.0023,-1.8828,-1.8828,-1.8452,-1.7863,-1.7863,-1.6605,-1.5013,-1.4909,-1.2997,-1.0667,-1.0667,-0.9725,-0.8783,-0.8783,-0.9725,-1.0667,-1.0667,-1.0667,-1.0356,-0.8991,-0.8783,-0.8783,-0.8783,-0.8783,-0.8783,-0.8783,-0.8783,-0.8783,-0.8783,-0.7368,-0.6502,-0.6502,-0.4013,-0.1522,-0.0109,0.0,0.0544,0.2064,0.2173,0.2822,0.4227,0.5634,0.5742,0.4338,0.5634,0.6502,0.6609,0.8019,0.8783,0.8783,0.8783,0.8783,0.8783,0.8783,0.8783,-2.1849,-2.2905,-2.4484,-2.6243,-2.8089,-3.0066,-3.2579,-3.3214,-3.3458,-3.4141,-3.3729,-3.3293,-3.3629,-3.4058,-3.4823,-3.6078,-3.7109,-3.7428,-3.6482,-3.5963,-3.5335,-3.4382,-3.3847,-3.3524,-3.3524,-3.3091,-3.2874,-3.2874,-3.2874,-3.2458,-3.1505,-3.1394,-3.0948,-2.9955,-2.9955,-2.9955,-2.9955,-2.9955,-2.9955,-2.9955,-2.9955,-2.9955,-2.9955,-2.9955,-2.9955,-2.9955,-2.9955,-2.9955,-2.9842,-2.9387,-2.8894,-2.8249,-2.6449,-2.3811,-2.1144,-2.0941,-1.9746,-1.8231,-1.8231,-1.7854,-1.7387,-1.7387,-1.6946,-1.6485,-1.6485,-1.5105,-1.3636,-1.3636,-1.1936,-1.0356,-1.1319,-1.1848,-1.2156,-1.2156,-1.1408,-1.0561,-1.0144,-0.9412,-0.8783,-0.8783,-0.8783,-0.8783,-0.8783,-0.8783,-0.8783,-0.8783,-0.8347,-0.7583,-0.6609,-0.4771,-0.3039,-0.163,-0.0544,0.0218,0.0653,0.0653,0.1305,0.2713,0.3255,0.3255,0.2822,0.4227,0.5419,0.6502,0.6932,0.7697,0.8783,0.8783,0.8783,0.8783,0.8783,0.8783,-2.2631,-2.4014,-2.5368,-2.6518,-2.7847,-2.9316,-3.0928,-3.1196,-3.13,-3.2096,-3.1845,-3.1741,-3.2704,-3.4311,-3.5703,-3.6288,-3.7505,-3.839,-3.7938,-3.7505,-3.6996,-3.6641,-3.5627,-3.5019,-3.5019,-3.4467,-3.4169,-3.4169,-3.4169,-3.3847,-3.2895,-3.2895,-3.2458,-3.1576,-3.104,-3.0744,-3.0744,-3.0181,-3.0181,-3.0724,-3.0181,-2.9955,-2.9955,-2.9955,-2.9955,-2.9936,-2.9632,-2.9499,-2.9461,-2.9139,-2.9025,-2.8858,-2.7355,-2.4915,-2.2096,-2.1709,-2.0517,-1.9049,-1.9049,-1.881,-1.8486,-1.8007,-1.7803,-1.7701,-1.7217,-1.606,-1.5013,-1.5013,-1.3311,-1.1945,-1.3949,-1.4064,-1.3646,-1.3646,-1.2997,-1.2041,-1.0871,-1.0037,-0.9305,-0.8891,-0.8783,-0.8783,-0.8783,-0.8783,-0.8783,-0.8783,-0.8783,-0.8347,-0.7368,-0.6066,-0.4554,-0.3147,-0.163,-0.0544,0.0,0.0,0.0327,0.1305,0.1305,0.1305,0.1305,0.2713,0.3905,0.4771,0.585,0.6932,0.7911,0.8455,0.8783,0.8783,0.8783,0.8783,-2.5394,-2.6426,-2.6953,-2.8185,-2.8777,-2.9284,-3.0061,-2.8369,-2.72,-2.9063,-2.8377,-2.8182,-3.0598,-3.3955,-3.6147,-3.5596,-3.7023,-3.8631,-3.9943,-3.9128,-3.8859,-4.0199,-3.799,-3.6515,-3.6562,-3.5313,-3.4467,-3.4467,-3.4467,-3.4489,-3.4382,-3.4382,-3.4276,-3.4169,-3.2895,-3.2259,-3.2259,-3.0836,-3.0817,-3.2067,-3.068,-2.999,-2.999,-3.0047,-3.0047,-2.9839,-2.9244,-2.8919,-2.8588,-2.7896,-2.7468,-2.7364,-2.7308,-2.6184,-2.4306,-2.3281,-2.2094,-2.1019,-2.1019,-2.1019,-2.0739,-1.9463,-1.9076,-1.8789,-1.7511,-1.6175,-1.5117,-1.5117,-1.4273,-1.3845,-1.6485,-1.6175,-1.5117,-1.5117,-1.5013,-1.4273,-1.1619,-1.0871,-1.0356,-0.9091,-0.8777,-0.8783,-0.8783,-0.8783,-0.8783,-0.8783,-0.8783,-0.8783,-0.8783,-0.7476,-0.6066,-0.4554,-0.3039,-0.1631,-0.0218,-0.0109,0.0,0.0,0.0,0.0,0.0,0.1305,0.2064,0.2173,0.4771,0.6281,0.6609,0.7911,0.8669,0.8783,0.8783,0.8783,-2.2255,-2.4482,-2.6492,-2.6055,-2.8967,-3.1764,-3.1138,-2.9154,-2.7519,-2.7998,-2.7191,-2.6795,-2.8219,-3.0731,-3.3447,-3.615,-3.6339,-3.6251,-3.6505,-3.6998,-3.7826,-3.9038,-3.7747,-3.7508,-3.9351,-3.8236,-3.7428,-3.7428,-3.7428,-3.7019,-3.5859,-3.5859,-3.5335,-3.4276,-3.3847,-3.374,-3.374,-3.2238,-3.1911,-3.2459,-3.1428,-3.0785,-3.0806,-3.16,-3.1056,-2.9548,-3.112,-3.0206,-2.7753,-2.8578,-2.8294,-2.7308,-2.6785,-2.6224,-2.5544,-2.367,-2.2094,-2.1019,-2.1019,-2.1019,-2.0739,-1.9463,-1.9076,-1.8789,-1.7511,-1.6909,-1.6588,-1.6588,-1.7062,-1.7559,-1.7204,-1.6909,-1.6588,-1.6588,-1.575,-1.4794,-1.4158,-1.2252,-1.0561,-1.0242,-0.9405,-0.8783,-0.8783,-0.8783,-0.8783,-0.8783,-0.8783,-0.8783,-0.8783,-0.7476,-0.6394,-0.5958,-0.3689,-0.1956,-0.163,-0.0653,0.0,0.0,0.0,0.0,0.0,0.0327,0.0979,0.2064,0.2822,0.4335,0.6609,0.6932,0.7697,0.8783,0.8783,0.8783,-2.3363,-2.6112,-2.7851,-2.5125,-2.7412,-3.0037,-2.8963,-2.7205,-2.594,-2.6301,-2.5446,-2.5336,-2.7734,-2.8129,-2.9538,-3.4115,-3.4961,-3.5393,-3.6549,-3.7781,-3.9023,-4.028,-3.9311,-3.9043,-4.0276,-3.9279,-3.8485,-3.8485,-3.8485,-3.8184,-3.7326,-3.7326,-3.7019,-3.6171,-3.5523,-3.523,-3.523,-3.3946,-3.3465,-3.3652,-3.188,-3.1129,-3.115,-3.1668,-3.1324,-3.018,-3.1017,-2.995,-2.773,-2.8025,-2.7494,-2.631,-2.5874,-2.5684,-2.553,-2.437,-2.3499,-2.2921,-2.2921,-2.2921,-2.2631,-2.133,-2.0822,-2.0625,-1.9277,-1.8875,-1.8789,-1.8196,-1.8486,-1.8875,-1.8196,-1.7511,-1.7114,-1.7114,-1.6485,-1.575,-1.5117,-1.374,-1.2252,-1.0985,-1.0144,-0.9412,-0.8884,-0.8783,-0.8783,-0.8783,-0.8783,-0.8783,-0.8783,-0.8019,-0.7261,-0.6502,-0.4443,-0.2822,-0.2173,-0.0871,0.0,0.0,-0.0653,-0.0653,0.0,0.0,0.0327,0.1088,0.1848,0.293,0.4554,0.585,0.6932,0.7697,0.8455,0.8783,-2.5481,-2.8414,-2.9814,-2.5911,-2.63,-2.7372,-2.636,-2.48,-2.3794,-2.4456,-2.3703,-2.3936,-2.7251,-2.5952,-2.5807,-3.0143,-3.2298,-3.4317,-3.6889,-3.8944,-4.0575,-4.1819,-4.1108,-4.0504,-4.0685,-3.9549,-3.8685,-3.8485,-3.8485,-3.8485,-3.8485,-3.8485,-3.8485,-3.8485,-3.7326,-3.6548,-3.6245,-3.512,-3.4609,-3.4609,-3.232,-3.1276,-3.1276,-3.143,-3.1312,-3.0944,-3.0551,-2.941,-2.7824,-2.7255,-2.6271,-2.5038,-2.5038,-2.5038,-2.5038,-2.5038,-2.5038,-2.5038,-2.5038,-2.5038,-2.483,-2.3385,-2.2965,-2.2676,-2.1411,-2.1019,-2.0822,-1.9962,-1.9663,-1.9563,-1.9363,-1.8486,-1.7715,-1.7715,-1.7511,-1.7101,-1.5829,-1.5312,-1.4158,-1.1514,-1.0879,-1.0242,-0.8991,-0.8783,-0.8783,-0.8783,-0.8783,-0.8783,-0.8783,-0.8783,-0.8234,-0.6932,-0.5527,-0.401,-0.2605,-0.1305,-0.0544,-0.0327,-0.1305,-0.1305,0.0,0.0,0.0,0.0,0.1196,0.1956,0.2173,0.4554,0.5958,0.6502,0.7798,0.8562,-2.3398,-2.7018,-3.0675,-3.0514,-2.9518,-2.8518,-2.8345,-2.5597,-2.3109,-2.3238,-2.3063,-2.3121,-2.3703,-2.4337,-2.4491,-2.3569,-2.6158,-2.9256,-3.1957,-3.6201,-3.9421,-4.0696,-4.0688,-4.0975,-4.1818,-4.085,-3.9647,-3.8585,-3.8485,-3.8485,-3.8485,-3.8485,-3.8485,-3.8485,-3.8284,-3.7336,-3.5593,-3.4503,-3.3971,-3.3971,-3.2597,-3.1958,-3.1982,-3.2941,-3.229,-3.0545,-3.2396,-3.0848,-2.706,-2.7918,-2.7079,-2.5038,-2.5038,-2.5038,-2.5038,-2.5038,-2.5038,-2.5038,-2.5038,-2.5038,-2.483,-2.3385,-2.2965,-2.2676,-2.1411,-2.1019,-2.1215,-2.2094,-2.2386,-2.2094,-2.1019,-2.0526,-2.0443,-2.0443,-1.9563,-1.8674,-1.8472,-1.664,-1.4492,-1.2797,-1.1514,-1.0242,-0.8991,-0.8783,-0.8783,-0.8783,-0.8783,-0.8783,-0.8783,-0.8783,-0.8669,-0.8455,-0.7153,-0.5634,-0.4122,-0.3794,-0.3147,-0.1847,-0.0871,-0.0218,0.0,0.0,0.0,0.0,0.0218,0.0871,0.2173,0.2605,0.401,0.6389,0.6609,0.7476,-2.4411,-2.7033,-2.9484,-2.8644,-2.7776,-2.7026,-2.6738,-2.5244,-2.3761,-2.3063,-2.2947,-2.315,-2.3848,-2.3613,-2.3789,-2.5299,-2.6666,-2.8829,-3.2489,-3.6737,-4.0009,-4.1346,-4.1456,-4.1965,-4.3147,-4.2136,-4.1108,-4.0512,-3.9914,-3.9549,-3.9549,-3.8884,-3.8241,-3.7704,-3.768,-3.721,-3.6247,-3.4667,-3.4125,-3.4656,-3.2882,-3.2341,-3.2893,-3.2882,-3.2324,-3.131,-3.2373,-3.1308,-2.8793,-2.9256,-2.8481,-2.6988,-2.6988,-2.6988,-2.6988,-2.6988,-2.6988,-2.6896,-2.6271,-2.5993,-2.5806,-2.4471,-2.409,-2.3995,-2.342,-2.3228,-2.3324,-2.39,-2.3576,-2.2772,-2.2192,-2.1509,-2.1019,-2.1019,-2.0542,-1.9962,-1.9177,-1.8053,-1.6525,-1.4366,-1.3426,-1.2366,-1.0144,-0.9832,-0.9512,-0.8884,-0.8783,-0.8783,-0.8783,-0.8783,-0.8783,-0.8783,-0.7476,-0.6281,-0.5527,-0.6174,-0.5419,-0.2281,-0.2281,-0.163,-0.0109,0.0,0.0,0.0,0.0,0.0327,0.0979,0.174,0.2822,0.4122,0.5742,0.6825,-2.7797,0.0,-3.0335,-2.8902,-2.7834,-2.6927,0.0,-2.5458,-2.4533,-2.3209,-2.2947,-2.328,-2.4374,-2.3124,-2.3037,-2.6552,-2.6725,-2.7961,-3.2456,-3.5685,-3.8477,-4.0949,-4.1532,-4.2098,-4.3106,-4.2289,-4.1639,-4.1279,-4.0536,-4.0004,-4.0004,-3.9059,-3.8134,-3.7337,-3.7063,-3.6729,-3.6526,-3.4938,-3.4508,-3.5317,-3.3598,-3.3193,-3.3945,-3.3193,-3.2811,-3.2811,-3.2564,-3.1935,-3.1022,-3.0534,-2.9758,-2.8881,-2.8659,-2.857,-2.857,-2.857,-2.857,-2.8481,-2.7583,-2.7038,-2.6692,-2.5733,-2.5302,-2.5038,-2.5038,-2.5038,-2.5038,-2.5038,-2.4299,-2.3481,-2.3481,-2.271,-2.1917,-2.1917,-2.1721,-2.1215,-2.0145,-1.9463,-1.8371,-1.5908,-1.5209,-1.4169,-1.1619,-1.1196,-1.0887,-0.9839,-0.9732,-0.9732,-0.9732,-0.9412,-0.9198,-0.9198,-0.7905,-0.6932,-0.6502,-0.7476,-0.6717,-0.3364,-0.3578,-0.2822,-0.0544,-0.0218,0.0,0.0,0.0,0.0,0.0,0.1088,0.1956,0.2713,0.4875,0.6394,0.0,-3.5782,-3.6457,-3.6892,-3.4209,-3.1079,-2.9836,-2.7144,0.0,-2.3209,-2.2947,-2.3114,-2.3724,-2.2733,-2.1861,-2.2199,-2.2259,-2.3811,-2.8547,-2.9403,-3.1817,-3.7808,-3.9626,-4.0449,-4.0531,-4.0452,-3.9904,-3.8863,-3.8692,-3.8606,-3.8606,-3.8519,-3.8466,-3.8387,-3.7301,-3.6323,-3.5308,-3.5124,-3.5097,-3.5175,-3.499,-3.5041,-3.5041,-3.4964,-3.4964,-3.4886,-3.3945,-3.3415,-3.3072,-3.1083,-3.0231,-2.9903,-2.897,-2.857,-2.857,-2.857,-2.857,-2.857,-2.8481,-2.7764,-2.6784,-2.6692,-2.5993,-2.5038,-2.5038,-2.5038,-2.5038,-2.5038,-2.5019,-2.4925,-2.4925,-2.483,-2.483,-2.483,-2.3786,-2.2772,-2.2676,-2.0723,-1.8559,-1.7086,-1.5793,-1.4492,-1.2912,-1.2692,-1.2701,-1.2596,-1.2491,-1.2491,-1.2491,-1.1417,-1.0561,-1.0561,-0.9405,-0.8019,-0.6717,-0.6609,-0.6502,-0.6174,-0.3689,-0.2173,-0.1956,-0.0653,0.0,0.0,0.0,0.0,0.0,0.0109,0.1522,0.4122,0.4338,0.5958,-3.617,-3.7261,-3.7883,-3.6829,-3.4465,-3.1963,-3.0287,-2.7948,-2.5477,-2.3383,-2.3167,-2.3454,-2.3655,-2.3583,-2.4157,-2.6251,-2.621,-2.7108,-3.0591,-3.2558,-3.4192,-3.5663,-3.8477,-4.0521,-4.1346,-4.1461,-4.1275,-4.0826,-4.0013,-3.9574,-3.9574,-3.8823,-3.8425,-3.836,-3.727,-3.6572,-3.6179,-3.5501,-3.5501,-3.6104,-3.5501,-3.5501,-3.6104,-3.5501,-3.5195,-3.5195,-3.4809,-3.4549,0.0,-3.293,-3.2358,-3.2251,-3.1178,-3.0776,-3.0776,-3.0776,-3.0776,-3.069,-2.989,-2.9344,-2.8881,-2.8124,-2.7604,-2.7079,-2.6344,-2.6712,-2.7262,-2.7262,-2.6712,-2.6159,-2.6159,-2.5659,-2.5038,-2.5038,-2.4622,-2.3995,-2.3157,-2.2192,-2.0806,-1.8631,-1.7851,-1.6832,-1.4585,-1.4169,-1.3855,-1.3017,-1.2807,-1.2807,-1.2807,-1.2376,-1.1628,-1.0773,-1.025,-0.9398,-0.8019,-0.7911,-0.7476,-0.6502,-0.5419,-0.401,-0.2173,-0.163,-0.0871,0.0,0.0,0.0,0.0,0.0871,0.239,0.4338,0.5311,0.6286,-3.8962,-3.9554,-3.9927,-3.8508,-3.6386,-3.3971,-3.1508,-2.9129,-2.6631,-2.3772,-2.3454,-2.3814,-2.4126,-2.4507,-2.5642,-2.8413,-2.882,-2.9811,-3.2793,-3.4822,-3.591,-3.5498,-3.8018,-3.9961,-4.0325,-4.0688,-4.0949,-4.0949,-4.0152,-3.9634,-3.9634,-3.8849,-3.8411,-3.8303,-3.7579,-3.7262,-3.7262,-3.6503,-3.6503,-3.7262,-3.6503,-3.6577,-3.719,-3.6476,-3.6179,-3.6179,-3.5804,-3.5879,-3.6029,-3.434,-3.3812,-3.3945,-3.2646,-3.2115,-3.2115,-3.2115,-3.2115,-3.1924,-3.1202,-3.0643,-3.0214,-2.9344,-2.8925,-2.8392,-2.7583,-2.8213,-2.9102,-2.8659,-2.7944,-2.7311,-2.6946,-2.6251,-2.5565,-2.5227,-2.5038,-2.483,-2.3786,-2.3271,-2.2386,-2.0625,-1.9663,-1.8472,-1.6537,-1.5932,-1.5324,-1.4377,-1.4169,-1.4169,-1.4169,-1.3751,-1.3007,-1.1514,-1.0985,-1.0356,-0.9405,-0.8991,-0.824,-0.7261,-0.6717,-0.5527,-0.358,-0.2607,-0.163,-0.0653,-0.0218,0.0,0.0,0.1414,0.2607,0.3689,0.5634,0.6717,-4.2973,-4.3368,-4.3368,-4.3368,-4.1074,-3.7865,-3.393,-3.0826,-2.778,-2.4383,-2.3695,-2.4018,-2.5055,-2.5264,-2.5712,-2.7228,-2.8641,-3.0802,-3.4323,-3.4939,-3.5671,-3.7475,-3.8393,-3.8271,-3.6553,-3.7518,-3.8315,-3.8274,-3.8274,-3.8274,-3.8274,-3.8274,-3.8274,-3.8274,-3.8274,-3.8274,-3.8274,-3.8274,-3.8274,-3.8274,-3.8274,-3.8274,-3.8274,-3.8274,-3.8274,-3.8274,-3.719,-3.7335,-3.8034,-3.4964,-3.4261,-3.4964,-3.2868,-3.2115,-3.2115,-3.2115,-3.2115,-3.2115,-3.2115,-3.1286,-3.0386,-3.0386,-2.9519,-2.8592,-2.8592,-2.9431,-3.0127,-2.8925,-2.8592,-2.8303,-2.7129,-2.6855,-2.6508,-2.5397,-2.5133,-2.5133,-2.5133,-2.3995,-2.2965,-2.2965,-2.0838,-1.9076,-1.9076,-1.8007,-1.7114,-1.7114,-1.7114,-1.7114,-1.7114,-1.5853,-1.4481,-1.3017,-1.1628,-1.0773,-1.0667,-0.9512,-0.8783,-0.8783,-0.7261,-0.6502,-0.6609,-0.3797,-0.2173,-0.2173,-0.0762,0.0,0.0,0.1414,0.2173,0.2281,0.5091,0.7255,-4.3236,-4.3368,-4.3368,-4.3368,-4.1074,-3.7896,-3.4074,-3.0158,-2.6387,-2.2928,-2.1781,-2.1861,-2.3435,-2.4052,-2.5641,-2.9627,-3.017,-3.1229,-3.4497,-3.6071,-3.6965,-3.7138,-3.897,-3.9809,-3.8653,-3.8879,-3.8876,-3.8315,-3.8274,-3.8274,-3.8274,-3.8274,-3.8274,-3.8274,-3.8274,-3.8274,-3.8274,-3.8274,-3.8274,-3.8274,-3.8274,-3.8274,-3.8274,-3.8274,-3.8274,-3.8274,-3.7963,-3.8034,-3.8175,-3.6503,-3.6029,-3.6104,-3.4809,-3.4261,-3.4183,-3.3411,-3.3652,-3.4024,-3.2564,-3.2291,-3.249,-3.1792,-3.131,-3.1055,-3.1055,-3.131,-3.1479,-3.114,-3.1055,-3.0776,-2.9606,-2.8637,-2.7944,-2.7604,-2.7513,-2.7332,-2.6528,-2.5933,-2.5149,-2.3253,-2.2289,-2.1509,-2.0542,-1.9377,-1.85,-1.85,-1.7715,-1.7114,-1.7114,-1.6703,-1.5957,-1.4492,-1.3949,-1.3322,-1.227,-1.0887,-1.0144,-1.0144,-0.887,-0.7583,-0.6609,-0.4659,-0.3689,-0.3689,-0.1196,-0.0545,-0.1522,0.1953,0.3689,0.3689,0.6717,0.8347,-4.3368,-4.3368,-4.3368,-4.3368,-4.1695,-3.9112,-3.5311,-3.1668,-2.7965,-2.3889,-2.2242,-2.1876,-2.3212,-2.4176,-2.6334,-3.1076,-3.2474,-3.3944,-3.704,-3.8914,-3.9709,-3.9004,-4.0316,-4.0772,-3.9554,-3.9816,-3.9518,-3.8384,-3.8274,-3.8274,-3.8274,-3.8274,-3.8274,-3.8274,-3.8274,-3.8274,-3.8274,-3.8274,-3.8274,-3.8274,-3.8274,-3.8274,-3.8274,-3.8274,-3.8274,-3.8274,-3.8274,-3.8274,-3.8175,-3.719,-3.6724,-3.6651,-3.5577,-3.5195,-3.5118,-3.4497,-3.4653,-3.5041,-3.3732,-3.3411,-3.3491,-3.2868,-3.2949,-3.333,-3.333,-3.3031,-3.2729,-3.2729,-3.2424,-3.1924,-3.1202,-3.015,-2.919,-2.8681,-2.857,-2.8213,-2.7038,-2.6855,-2.6211,-2.4167,-2.3271,-2.2676,-2.19,-2.0739,-1.9862,-1.9862,-1.9177,-1.8486,-1.7905,-1.7905,-1.7178,-1.522,-1.5013,-1.4597,-1.3751,-1.2366,-1.1522,-1.1522,-1.025,-0.9184,-0.8322,-0.6277,-0.5203,-0.5203,-0.293,-0.1847,-0.2173,0.1624,0.368,0.4338,0.7368,0.8783,-4.3368,-4.3368,-4.3368,-4.3368,-4.2681,-4.0889,-3.6883,-3.4146,-3.1054,-2.595,-2.3855,-2.3085,-2.3419,-2.4988,-2.762,-3.1801,-3.4951,-3.7975,-4.0935,-4.2459,-4.2971,-4.2217,-4.2042,-4.1385,-3.9881,-4.0489,-4.0234,-3.8523,-3.8384,-3.8384,-3.8384,-3.8315,-3.8274,-3.8274,-3.8413,-3.8384,-3.8274,-3.8384,-3.8413,-3.8274,-3.8274,-3.8274,-3.8274,-3.8274,-3.8274,-3.8274,-3.8274,-3.8274,-3.8175,-3.7262,-3.6871,-3.6798,-3.5879,-3.5501,-3.5501,-3.5348,-3.5424,-3.5424,-3.5271,-3.4653,-3.3866,-3.3812,-3.4419,-3.5195,-3.5195,-3.4497,-3.3812,-3.3812,-3.3112,-3.2341,-3.2258,-3.1455,-3.0386,-2.919,-2.8925,-2.857,-2.7402,-2.7129,-2.6784,-2.5659,-2.4262,-2.3253,-2.3253,-2.2094,-2.1215,-2.1215,-2.1117,-2.0542,-1.9177,-1.9076,-1.8067,-1.5623,-1.522,-1.5094,-1.5059,-1.3792,-1.2938,-1.2898,-1.1513,-1.0674,-1.0569,-0.7946,-0.6574,-0.6793,-0.5087,-0.3689,-0.2281,0.054,0.2701,0.4338,0.7261,0.8676,-4.3368,-4.3368,-4.3368,-4.3368,-4.2681,-4.0633,-3.5481,-3.2671,-2.9349,-2.3178,-2.1741,-2.134,-2.0537,-2.4429,-2.8769,-3.1966,-3.5805,-3.9438,-4.248,-4.2543,-4.2479,-4.2971,-4.2421,-4.1834,-4.1445,-4.1656,-4.1019,-3.9385,-3.9252,-3.9252,-3.9252,-3.8632,-3.8274,-3.8274,-3.8876,-3.8944,-3.8274,-3.8876,-3.8876,-3.8274,-3.8274,-3.8274,-3.8274,-3.8274,-3.8274,-3.8274,-3.8274,-3.8274,-3.8274,-3.8034,-3.7963,-3.7963,-3.7721,-3.765,-3.7579,-3.6724,-3.6944,-3.7407,-3.5728,-3.5577,-3.5954,-3.5118,-3.5041,-3.5195,-3.5195,-3.5041,-3.4886,-3.4886,-3.4731,-3.434,-3.3491,-3.3087,-3.2654,-3.154,-3.131,-3.1032,-2.9867,-2.9583,-2.9256,-2.8055,-2.6834,-2.6006,-2.6006,-2.4094,-2.2482,-2.2482,-2.1705,-2.0542,-1.9177,-1.9076,-1.8875,-1.827,-1.728,-1.6526,-1.6095,-1.4741,-1.3655,-1.3143,-1.187,-1.0715,-0.9853,-0.8276,-0.758,-0.7823,-0.5455,-0.4122,-0.3794,-0.0973,0.173,0.4338,0.6178,0.7697,-4.3368,-4.3368,-4.3368,-4.3368,-4.2971,-4.174,-3.819,-3.5964,-3.2892,-2.6706,-2.496,-2.372,-2.0983,-2.5251,-2.992,-3.213,-3.6693,-4.0803,-4.3039,-4.2971,-4.2826,-4.3313,-4.2568,-4.1952,-4.1952,-4.1952,-4.1445,-4.0203,-4.0427,-4.049,-4.0139,-3.9715,-3.9481,-3.9481,-3.9911,-3.9911,-3.9548,-3.9911,-3.9911,-3.9481,-3.9481,-3.9481,-3.9481,-3.908,-3.8876,-3.8808,-3.8454,-3.8274,-3.8274,-3.8274,-3.8274,-3.8274,-3.8274,-3.8274,-3.8274,-3.7721,-3.7793,-3.8104,-3.7017,-3.6724,-3.6724,-3.6651,-3.6651,-3.6651,-3.6651,-3.6327,-3.5954,-3.5954,-3.5577,-3.5041,-3.4497,-3.434,-3.4261,-3.3732,-3.3193,-3.2622,-3.2052,-3.1046,-2.9954,-2.8837,-2.8124,-2.7492,-2.6946,-2.5728,-2.4604,-2.4072,-2.342,-2.242,-2.1117,-2.1493,-2.1379,-2.0145,-1.8616,-1.7558,-1.7242,-1.5697,-1.4564,-1.4263,-1.3005,-1.1689,-1.058,-0.9293,-0.8406,-0.7944,-0.6648,-0.5574,-0.4953,-0.2161,0.0311,0.2434,0.5282,0.6874,-4.3399,-4.3444,-4.3368,-4.3368,-4.3368,-4.2907,-4.1165,-3.9817,-3.7304,-3.1827,-2.9756,-2.7752,-2.3982,-2.7755,-3.1933,-3.3473,-3.8565,-4.2611,-4.3598,-4.3927,-4.3927,-4.3433,-4.2714,-4.2217,-4.2217,-4.2217,-4.1925,-4.1082,-4.1807,-4.1866,-4.105,-4.0989,-4.0927,-4.0803,-4.0803,-4.0803,-4.0803,-4.0927,-4.0927,-4.0803,-4.0803,-4.0803,-4.0834,-4.001,-3.9685,-3.9685,-3.9012,-3.873,-3.873,-3.873,-3.8661,-3.8494,-3.8494,-3.8384,-3.8274,-3.8274,-3.8274,-3.8274,-3.8274,-3.7721,-3.7162,-3.8145,-3.8384,-3.8274,-3.8274,-3.7721,-3.7017,-3.7017,-3.6402,-3.5728,-3.5501,-3.5501,-3.5424,-3.5271,-3.4497,-3.3866,-3.3866,-3.244,-3.0852,-2.9671,-2.9168,-2.857,-2.7583,-2.7129,-2.6508,-2.5565,-2.5397,-2.4774,-2.3175,-2.3742,-2.3559,-2.1403,-1.949,-1.8211,-1.7921,-1.6443,-1.5401,-1.5115,-1.3962,-1.2843,-1.1759,-1.0437,-0.9156,-0.802,-0.7882,-0.7032,-0.5663,-0.3309,-0.1285,0.051,0.428,0.6019,-4.3544,-4.3718,-4.3368,-4.3368,-4.3368,-4.259,-3.9799,-3.9011,-3.7566,-3.3076,-3.2032,-3.1496,-3.0276,-3.3219,-3.6513,-3.8561,-4.3333,-4.636,-4.534,-4.6261,-4.6097,-4.3664,-4.3258,-4.317,-4.317,-4.317,-4.277,-4.1925,-4.2657,-4.277,-4.1834,-4.1834,-4.1537,-4.0803,-4.0803,-4.0803,-4.0803,-4.1477,-4.1477,-4.0803,-4.0803,-4.0803,-4.0803,-4.0678,-4.0615,-4.0615,-4.0552,-4.0489,-4.0489,-4.0489,-4.0041,-3.9288,-3.9288,-3.8876,-3.8274,-3.8274,-3.8274,-3.8274,-3.8274,-3.8175,-3.8216,-3.905,-3.8876,-3.8274,-3.8274,-3.8175,-3.8104,-3.8104,-3.7963,-3.765,-3.6724,-3.6503,-3.6327,-3.5424,-3.5118,-3.4964,-3.4964,-3.4782,-3.4235,-3.3118,-3.1383,-3.0041,-2.9845,-2.8192,-2.6763,-2.66,-2.66,-2.5748,-2.3253,-2.2572,-2.2236,-2.1872,-1.9805,-1.7862,-1.6534,-1.6158,-1.5359,-1.3907,-1.3618,-1.3117,-1.2046,-1.1035,-1.0061,-0.8979,-0.8155,-0.7032,-0.5663,-0.4297,-0.2251,0.0491,0.3048,0.4825,-4.2879,-4.3836,-4.4316,-4.4316,-4.4065,-4.3526,-4.2581,-4.1857,-4.0477,-3.7258,-3.6578,-3.5768,-3.3021,-3.6078,-3.9073,-3.9154,-4.2851,-4.5422,-4.4789,-4.5028,-4.4781,-4.3532,-4.3368,-4.3368,-4.3368,-4.3368,-4.317,-4.277,-4.3366,-4.3473,-4.277,-4.277,-4.2568,-4.2281,-4.2223,-4.2223,-4.2223,-4.2568,-4.2568,-4.2223,-4.2223,-4.2223,-4.2223,-4.1688,-4.1477,-4.1477,-4.0989,-4.0803,-4.0803,-4.0803,-4.0267,-3.9488,-4.001,-3.9481,-3.8384,-3.9348,-3.9385,-3.9012,-3.9548,-3.9746,-3.968,-3.9488,-3.9252,-3.8876,-3.8454,-3.8274,-3.8274,-3.8274,-3.8274,-3.8175,-3.7721,-3.765,-3.7478,-3.7017,-3.6476,-3.6029,-3.6029,-3.5577,-3.5041,-3.4575,-3.3279,-3.1969,-3.1275,-2.9822,-2.8353,-2.7153,-2.6893,-2.6245,-2.4451,-2.4667,-2.444,-2.3201,-2.1259,-1.9462,-1.8173,-1.6645,-1.5343,-1.4666,-1.3987,-1.3155,-1.2093,-1.1016,-0.9988,-0.8866,-0.7879,-0.7059,-0.6417,-0.5218,-0.3699,-0.1701,0.0755,0.293,-4.2546,-4.3743,-4.4593,-4.4972,-4.4749,-4.4476,-4.4983,-4.4431,-4.3292,-4.154,-4.0931,-3.983,-3.7146,-3.9271,-4.1331,-4.1105,-4.3439,-4.5159,-4.4755,-4.4689,-4.4399,-4.3638,-4.3698,-4.3751,-4.3539,-4.3698,-4.3679,-4.3368,-4.3718,-4.3737,-4.3368,-4.3368,-4.3368,-4.3368,-4.3368,-4.3368,-4.3368,-4.3368,-4.3368,-4.3368,-4.3368,-4.3368,-4.3313,-4.2625,-4.2364,-4.2306,-4.1688,-4.1448,-4.1448,-4.1448,-4.0927,-4.0203,-4.0865,-4.0234,-3.9109,-4.0362,-4.0425,-3.9946,-4.105,-4.1327,-4.0989,-4.0331,-3.9946,-3.9685,-3.908,-3.8906,-3.8906,-3.8906,-3.8906,-3.8906,-3.8906,-3.8769,-3.8563,-3.8563,-3.7835,-3.7118,-3.7118,-3.6503,-3.5879,-3.5652,-3.4964,-3.4078,-3.2905,-3.1611,-3.01,-2.8168,-2.7638,-2.7023,-2.5884,-2.6335,-2.5979,-2.3876,-2.2237,-2.0745,-1.9427,-1.7409,-1.6021,-1.5781,-1.4948,-1.3974,-1.2921,-1.1727,-1.0633,-0.9457,-0.8389,-0.7799,-0.7799,-0.6402,-0.5098,-0.3898,-0.0996,0.1451,-4.3155,-4.3285,-4.3232,-4.4731,-4.5075,-4.5029,-4.5075,-4.5064,-4.4949,-4.4823,-4.3768,-4.3331,-4.5089,-4.4029,-4.3884,-4.7205,-4.8095,-4.79,-4.6521,-4.7476,-4.7274,-4.4402,-4.4654,-4.4749,-4.4165,-4.4654,-4.4529,-4.3444,-4.3368,-4.3335,-4.3368,-4.3368,-4.3368,-4.3368,-4.3368,-4.3368,-4.3368,-4.3368,-4.3368,-4.3368,-4.3368,-4.3368,-4.3368,-4.3313,-4.3258,-4.3258,-4.3225,-4.3225,-4.3225,-4.3225,-4.2714,-4.1834,-4.1893,-4.1416,-4.0678,-4.0803,-4.0803,-4.102,-4.2657,-4.2625,-4.1893,-4.1893,-4.1356,-4.074,-4.0678,-4.0678,-4.0678,-4.0678,-4.0678,-4.0678,-4.0678,-4.001,-3.9421,-3.9421,-3.8808,-3.8175,-3.8175,-3.8175,-3.7863,-3.6871,-3.6651,-3.6253,-3.5168,-3.3228,-3.1414,-3.0346,-2.9286,-2.8252,-2.706,-2.6162,-2.4908,-2.3161,-2.2034,-2.059,-1.8709,-1.8382,-1.7882,-1.6863,-1.6784,-1.623,-1.5218,-1.4029,-1.2954,-1.1927,-1.0737,-1.0149,-1.0149,-0.7832,-0.6206,-0.5102,-0.1559,0.1303,-4.3595,-4.4155,-4.4392,-4.5947,-4.6013,-4.5809,-4.6254,-4.5723,-4.5212,-4.5636,-4.5312,-4.518,-4.5949,-4.5797,-4.5992,-4.7243,-4.7179,-4.6649,-4.5754,-4.565,-4.5206,-4.3798,-4.4133,-4.4249,-4.3665,-4.4912,-4.5201,-4.3963,-4.386,-4.386,-4.386,-4.3485,-4.3368,-4.3368,-4.3368,-4.3368,-4.3368,-4.3368,-4.3368,-4.3368,-4.3368,-4.3368,-4.3368,-4.3368,-4.3368,-4.3368,-4.3368,-4.3368,-4.3368,-4.3368,-4.2826,-4.2042,-4.2625,-4.2016,-4.0958,-4.2016,-4.2074,-4.1716,-4.2915,-4.3115,-4.277,-4.2159,-4.1775,-4.1477,-4.0989,-4.0803,-4.0803,-4.0803,-4.0803,-4.0803,-4.0803,-4.0552,-4.0362,-4.0362,-3.9715,-3.905,-3.905,-3.8632,-3.8175,-3.7793,-3.7061,-3.614,-3.5092,-3.3614,-3.1885,-3.0191,-2.9611,-2.8808,-2.7253,-2.6713,-2.5774,-2.4014,-2.3454,-2.2701,-2.1472,-2.0119,-1.9195,-1.8814,-1.8183,-1.7364,-1.6404,-1.5775,-1.4711,-1.3118,-1.193,-1.0946,-1.0308,-0.8688,-0.6975,-0.5169,-0.3199,-0.0173,-4.1857,-4.2993,-4.4167,-4.5202,-4.5903,-4.6491,-4.6946,-4.6411,-4.5851,-4.6295,-4.6411,-4.6411,-4.6411,-4.6757,-4.7021,-4.7021,-4.6491,-4.5894,-4.547,-4.5029,-4.464,-4.43,-4.477,-4.4783,-4.3996,-4.5235,-4.5601,-4.4558,-4.4461,-4.4363,-4.4165,-4.3808,-4.3485,-4.3368,-4.3368,-4.3368,-4.3368,-4.3518,-4.3559,-4.3645,-4.3823,-4.3823,-4.3592,-4.3444,-4.3368,-4.3368,-4.3368,-4.3368,-4.3368,-4.3368,-4.2971,-4.2511,-4.3115,-4.2657,-4.1839,-4.2948,-4.2971,-4.2568,-4.3115,-4.3368,-4.3258,-4.2625,-4.2454,-4.2364,-4.1839,-4.172,-4.172,-4.172,-4.172,-4.172,-4.172,-4.1448,-4.1234,-4.1234,-4.0521,-3.9946,-3.9946,-3.9518,-3.8893,-3.8238,-3.7375,-3.6312,-3.4918,-3.3951,-3.2806,-3.1029,-3.0464,-2.976,-2.8473,-2.8003,-2.7098,-2.5375,-2.4904,-2.429,-2.3409,-2.1795,-2.0843,-2.0843,-2.0211,-1.9386,-1.8431,-1.7925,-1.6888,-1.5248,-1.38,-1.2683,-1.1976,-1.0046,-0.8172,-0.6274,-0.4409,-0.1385,-3.8193,-3.977,-4.2381,-4.2381,-4.4631,-4.6914,-4.6914,-4.6914,-4.6914,-4.7021,-4.7021,-4.7021,-4.7021,-4.7021,-4.7021,-4.7021,-4.6491,-4.6096,-4.6054,-4.6054,-4.6054,-4.6054,-4.6605,-4.6491,-4.5246,-4.5723,-4.5809,-4.5166,-4.5121,-4.4843,-4.4215,-4.4165,-4.3878,-4.3389,-4.3368,-4.3368,-4.3368,-4.386,-4.4165,-4.4165,-4.4796,-4.4749,-4.4165,-4.3645,-4.3422,-4.3422,-4.3422,-4.3422,-4.3422,-4.3422,-4.3422,-4.3368,-4.3368,-4.3368,-4.3368,-4.3368,-4.3368,-4.3368,-4.3368,-4.3368,-4.3368,-4.3368,-4.3368,-4.3368,-4.3368,-4.3368,-4.3368,-4.3368,-4.3368,-4.3368,-4.3368,-4.2681,-4.201,-4.201,-4.1416,-4.0865,-4.0865,-4.0772,-4.0181,-3.8113,-3.7685,-3.6921,-3.4736,-3.4347,-3.4002,-3.2946,-3.1938,-3.1218,-3.0799,-2.9913,-2.8681,-2.7032,-2.6044,-2.5188,-2.4289,-2.3527,-2.3029,-2.2958,-2.3029,-2.2465,-2.1276,-2.0434,-1.9386,-1.8302,-1.6357,-1.5379,-1.5299,-1.1976,-0.9701,-0.8402,-0.5007,-0.2165,-4.4203,-4.3348,-4.2381,-4.2381,-4.3024,-4.3632,-4.3632,-4.3632,-4.4274,-4.6557,-4.7021,-4.7021,-4.7021,-4.7021,-4.7021,-4.7021,-4.6872,-4.6605,-4.6137,-4.6054,-4.5894,-4.5426,-4.5936,-4.6213,-4.5809,-4.5971,-4.6013,-4.5809,-4.5381,-4.5246,-4.5514,-4.4654,-4.4099,-4.3929,-4.3539,-4.3485,-4.3878,-4.4015,-4.4363,-4.4843,-4.5029,-4.4983,-4.4843,-4.4688,-4.4626,-4.4626,-4.4626,-4.4626,-4.4626,-4.4626,-4.4332,-4.3929,-4.3929,-4.3665,-4.3389,-4.3789,-4.3929,-4.386,-4.3465,-4.3368,-4.3368,-4.3368,-4.3368,-4.3368,-4.3368,-4.3368,-4.3368,-4.3368,-4.3368,-4.3368,-4.3368,-4.317,-4.2971,-4.2971,-4.2306,-4.1656,-4.1656,-4.042,-3.9098,-3.8546,-3.6824,-3.5123,-3.4046,-3.3065,-3.2158,-3.1439,-3.1437,-3.1533,-3.1425,-3.0228,-2.8976,-2.7888,-2.7577,-2.7109,-2.6299,-2.5898,-2.526,-2.4014,-2.4473,-2.4083,-2.2536,-2.2198,-2.1211,-1.9461,-1.7459,-1.5656,-1.4097,-1.155,-0.8849,-0.6109,-0.4323,-0.1298,-4.0389,-3.878,-3.771,-3.903,-3.8887,-3.9422,-4.3418,-4.274,-4.2419,-4.6236,-4.7021,-4.7021,-4.7021,-4.7021,-4.7021,-4.7021,-4.7021,-4.6872,-4.653,-4.6491,-4.6335,-4.5971,-4.6254,-4.6491,-4.6491,-4.6491,-4.6491,-4.6491,-4.6096,-4.5971,-4.6054,-4.5381,-4.4796,-4.4558,-4.4267,-4.4216,-4.4558,-4.4796,-4.5155,-4.5514,-4.5766,-4.5766,-4.5514,-4.5514,-4.5381,-4.5075,-4.5075,-4.5075,-4.5075,-4.5075,-4.489,-4.4558,-4.4558,-4.4348,-4.4149,-4.4446,-4.4558,-4.4461,-4.386,-4.3665,-4.3612,-4.3444,-4.3518,-4.3665,-4.3665,-4.3665,-4.3665,-4.3665,-4.3665,-4.3665,-4.3665,-4.3841,-4.3996,-4.377,-4.2784,-4.1949,-4.1685,-4.0145,-3.8521,-3.762,-3.6174,-3.4678,-3.3434,-3.2594,-3.1972,-3.158,-3.1815,-3.1972,-3.1739,-3.09,-3.0029,-2.9273,-2.9242,-2.8916,-2.8065,-2.7639,-2.6982,-2.5997,-2.6013,-2.5791,-2.515,-2.4106,-2.2892,-2.1639,-1.931,-1.6862,-1.4285,-1.2013,-0.9244,-0.5859,-0.3713,0.0428,-3.1101,-3.0312,-3.1334,-3.3785,-3.3366,-3.4543,0.0,-4.1634,-3.9854,-4.4488,-4.5594,-4.5808,-4.6165,-4.6379,-4.6629,-4.6985,-4.7021,-4.7021,-4.7021,-4.7021,-4.7021,-4.7021,-4.7021,-4.7021,-4.7021,-4.7021,-4.7021,-4.7021,-4.7021,-4.6796,-4.6213,-4.6096,-4.5809,-4.5246,-4.5121,-4.5121,-4.5246,-4.5766,-4.6096,-4.6213,-4.6796,-4.6722,-4.6213,-4.6213,-4.5851,-4.5336,-4.5336,-4.5336,-4.5336,-4.5336,-4.5291,-4.5246,-4.5246,-4.5246,-4.5336,-4.5212,-4.5246,-4.5121,-4.4461,-4.4265,-4.4149,-4.3698,-4.3841,-4.4265,-4.4265,-4.4165,-4.4165,-4.4215,-4.4165,-4.4165,-4.4215,-4.4654,-4.4902,-4.416,-4.2966,-4.1879,-4.1258,-3.9867,-3.8175,-3.6336,-3.5803,-3.5028,-3.3103,-3.2785,-3.2785,-3.2884,-3.2835,-3.2586,-3.1972,-3.1815,-3.1527,-3.0848,-3.0822,-3.0456,-2.9595,-2.8856,-2.8372,-2.8188,-2.7629,-2.7566,-2.8188,-2.5799,-2.429,-2.4083,-2.113,-1.8114,-1.4965,-1.261,-0.9719,-0.6195,-0.2746,0.2786,0.0,0.0,0.0,0.0,0.0,0.0,0.0,-3.112,-3.1441,-3.4899,-3.6574,-3.828,-4.0781,-4.2347,-4.4096,-4.6629,-4.7021,-4.7021,-4.7021,-4.7021,-4.7021,-4.7021,-4.7021,-4.7021,-4.7021,-4.7021,-4.7021,-4.7021,-4.7021,-4.6984,-4.6834,-4.6371,-4.6013,-4.5851,-4.5381,-4.5381,-4.5851,-4.6013,-4.6371,-4.6834,-4.6984,-4.6984,-4.6834,-4.6834,-4.6796,-4.6644,-4.6644,-4.6644,-4.6644,-4.6644,-4.6371,-4.5851,-4.5851,-4.6213,-4.6605,-4.6054,-4.5851,-4.5766,-4.5121,-4.489,-4.489,-4.4783,-4.483,-4.489,-4.489,-4.4558,-4.4265,-4.4749,-4.4558,-4.4265,-4.4796,-4.4983,-4.472,-4.3371,-4.2813,-4.2221,-4.0894,-3.9119,-3.7657,-3.7269,-3.5907,-3.4515,-3.3638,-3.3433,-3.3621,-3.4145,-3.3792,-3.3385,-3.3258,-3.2804,-3.223,-3.158,-3.1473,-3.1203,-3.0512,-3.0286,-2.9653,-2.8249,-2.8615,-2.8676,-2.8188,-2.6289,-2.4877,-2.4129,-2.0429,-1.6998,-1.3774,-1.0707,-0.6928,-0.2668,0.0764,0.503,0.0,0.0,0.0,0.0,0.0,0.0,0.0,0.0,0.0,0.0,0.0,-3.4839,-3.7269,0.0,-4.208,-4.4409,-4.6095,-4.7021,-4.7021,-4.7021,-4.7021,-4.7021,-4.7021,-4.7021,-4.7021,-4.7021,-4.7021,-4.7021,-4.7021,-4.7021,-4.7021,-4.6722,-4.653,-4.653,-4.6254,-4.6213,-4.6566,-4.653,-4.6722,-4.7021,-4.7021,-4.7021,-4.7021,-4.7021,-4.7021,-4.7021,-4.7021,-4.7021,-4.7021,-4.7021,-4.6834,-4.653,-4.653,-4.6722,-4.6984,-4.6683,-4.653,-4.6451,-4.5809,-4.5558,-4.5514,-4.5166,-4.5302,-4.5558,-4.5558,-4.4924,-4.4195,-4.4523,-4.3894,-4.323,-4.354,-4.3796,-4.3653,-4.2575,-4.1641,-4.0713,-3.9598,-3.8054,-3.6837,-3.6837,-3.606,-3.5157,-3.4577,-3.449,-3.4523,-3.4545,-3.4325,-3.4022,-3.3668,-3.3338,-3.2651,-3.123,-3.1118,-3.0816,-3.0171,-3.0148,-2.9952,-2.948,-2.9419,-2.9182,-2.8796,-2.7109,-2.5568,-2.4129,-2.1235,-1.7644,-1.3439,-1.0676,-0.6739,-0.1549,0.5657,1.1461,0.0,0.0,0.0,0.0,0.0,0.0,0.0,0.0,0.0,0.0,0.0,0.0,0.0,0.0,0.0,-4.1885,-4.4725,-4.6774,-4.7097,-4.7169,-4.7169,-4.7169,-4.7095,-4.7021,-4.7021,-4.7021,-4.7021,-4.7021,-4.7021,-4.7021,-4.7021,-4.7021,-4.7021,-4.7021,-4.7132,-4.7132,-4.7021,-4.7132,-4.7132,-4.7021,-4.7021,0.0,-4.7021,-4.7021,-4.7021,-4.7021,-4.7021,-4.7021,-4.7021,-4.7021,-4.7021,-4.7021,-4.7132,-4.7169,-4.7133,-4.7241,-4.7205,-4.7096,-4.6573,-4.63,-4.6137,-4.5636,-4.5809,-4.6254,-4.6254,-4.525,0.0,-4.4203,-4.3166,-4.2076,-4.217,-4.2448,-4.2489,-4.1636,-4.0373,-3.918,-3.8401,-3.7212,-3.6309,-3.6382,-3.6238,-3.5977,-3.5473,-3.5519,-3.5237,-3.4168,-3.4346,-3.4261,-3.3345,-3.3646,-3.331,-3.1475,-3.1256,-3.0928,-3.006,-2.9647,-2.9929,-3.1073,-2.9985,-2.9281,-2.9279,-2.7983,-2.623,-2.3989,-2.1547,-1.7839,-1.2904,-0.9951,-0.5579,0.0171,0.9464,1.6334,0.0,0.0,0.0,0.0,0.0,0.0,0.0,0.0,0.0,0.0,0.0,0.0,0.0,0.0,0.0,0.0,-4.3444,-4.5856,-4.7367,-4.7548,-4.7548,-4.7548,-4.7241,-4.7021,-4.7021,-4.7021,-4.7021,-4.7021,-4.7021,-4.7021,-4.7021,-4.7021,0.0,0.0,0.0,-4.7381,-4.7021,-4.7381,-4.7381,-4.7021,-4.7021,-4.7021,-4.7021,-4.7021,-4.7021,-4.7021,-4.7021,-4.7021,-4.7021,-4.7021,-4.7021,-4.7058,-4.7415,-4.7548,-4.7614,-4.7954,-4.7863,-4.7548,-4.7445,0.0,0.0,-4.6834,-4.6872,-4.6946,-4.6946,-4.5433,-4.3892,-4.4487,-4.3099,-4.1609,-4.2207,-4.2379,-4.2021,-4.0424,-3.9929,-3.9493,-3.8359,-3.7456,-3.6933,-3.7141,-3.6625,-3.5977,-3.5473,-3.5955,-3.5376,-3.2315,-3.3432,-3.392,-3.1969,-3.3743,-3.485,-3.4064,-3.3955,0.0,-3.1572,-2.9965,-3.0056,-3.2466,-3.0368,-2.901,-2.8997,-2.8629,-2.6802,-2.3474,-1.9089,-1.4929,-1.1019,-0.5441,0.0252,0.5891,0.8749,1.2918,0.0,0.0,0.0,0.0,0.0,0.0,0.0,0.0,0.0,0.0,0.0,0.0,0.0,0.0,0.0,0.0,-3.9944,-4.2909,-4.3771,-4.5383,-4.6777,-4.7538,-4.7484,-4.7312,-4.7058,-4.7021,-4.7021,-4.7021,-4.7021,-4.7021,-4.7021,-4.7021,-4.7021,-4.7021,-4.7205,-4.7205,-4.7021,-4.7205,-4.7205,-4.7021,-4.7021,-4.7021,-4.7021,-4.7021,-4.7021,-4.7021,-4.7021,-4.7021,-4.7021,-4.7021,-4.7021,-4.7095,0.0,0.0,0.0,0.0,-4.7614,-4.7312,-4.7312,-4.7169,-4.6878,-4.5986,-4.5701,-4.5523,-4.4595,-4.3166,-4.1908,-4.2312,-4.1225,-4.0,-4.029,-4.0224,-3.9902,-3.9056,-3.8645,-3.8346,-3.7843,-3.7495,-3.7283,-3.743,-3.737,0.0,-3.6381,-3.6558,-3.6207,-3.4477,-3.4966,-3.5191,-3.4301,-3.5153,-3.5374,-3.4272,-3.3896,-3.3258,-3.2127,-3.1013,0.0,0.0,0.0,-3.1319,-3.1738,-3.0367,0.0,0.0,0.0,-1.3967,-1.0147,-0.2878,0.0,0.0,1.4687,1.8319,0.0,0.0,0.0,0.0,0.0,0.0,0.0,0.0,0.0,0.0,0.0,0.0,0.0,0.0,0.0,0.0,-3.5457,-3.8968,-3.9209,-4.2253,-4.464,-4.5131,-4.6291,-4.6506,-4.5308,-4.5988,-4.6739,-4.7169,-4.7276,-4.7346,-4.7346,-4.7277,-4.7205,-4.7205,-4.7205,-4.7169,-4.7021,-4.7133,-4.7133,-4.7021,-4.7021,-4.7021,-4.7021,-4.7021,-4.7095,-4.7205,-4.7205,-4.7277,-4.7346,-4.7346,-4.7346,-4.7379,-4.7473,-4.7572,-4.7563,-4.6757,-4.6338,-4.6149,-4.6051,-4.5915,-4.5594,-4.4622,-4.4264,-4.3981,-4.2929,-4.1661,-4.0572,-4.0756,-3.9815,-3.8786,-3.8786,-3.8643,-3.846,-3.8259,-3.7966,-3.7804,-3.7877,-3.7823,-3.7776,-3.7776,-3.8029,-3.8002,-3.7349,-3.7129,-3.665,-3.5445,-3.5791,-3.5961,-3.5308,-3.5897,-3.6,-3.4926,-3.4477,-3.397,-3.3132,-3.2284,-3.2489,-3.4184,-3.3129,-3.3074,-3.4619,-3.1834,-2.8362,-2.4297,-1.7538,-1.1659,0.0,0.0,0.0,0.0,0.0,0.0,0.0,0.0,0.0,0.0,0.0,0.0,0.0,0.0,0.0,0.0,0.0,0.0,0.0,0.0,0.0,0.0,0.0,0.0,-3.4218,-3.8361,-4.0819,-3.9337,-4.2835,-4.4077,-4.0762,-4.3401,-4.5985,-4.7505,-4.7954,-4.8159,-4.8159,-4.7801,-4.7614,-4.7614,-4.7614,-4.7415,-4.7021,-4.7415,-4.7415,-4.7021,-4.7021,-4.7021,-4.7021,-4.7021,-4.7241,-4.7614,-4.7614,-4.7801,-4.8159,-4.8159,-4.8159,-4.804,-4.638,-4.5999,-4.6102,-4.4181,-4.37,-4.3954,-4.3605,-4.3074,-4.2588,-4.3072,-4.3044,-4.2877,-4.3046,-4.2036,-4.0804,-4.0804,-3.9716,-3.8528,-3.8528,-3.8469,-3.8506,-3.8469,-3.8483,-3.8536,-3.8768,-3.8643,-3.8446,-3.8446,-3.8446,-3.8391,-3.8117,-3.7656,-3.6325,-3.3411,-3.4775,0.0,-3.3231,-3.5263,-3.6901,-3.6866,-3.6866,-3.6348,-3.517,-3.3437,-3.3296,-3.5372,-3.3135,-3.3247,-3.6694,-3.2417,-2.9324,-2.8049,-1.6336,-0.6778,0.0289,0.0,0.0,0.0,0.0,0.0,0.0,0.0,0.0,0.0,0.0,0.0,0.0,0.0,0.0,0.0,0.0,0.0,0.0,0.0,0.0,0.0,0.0,0.0,0.0,-3.457,-3.8096,-3.7326,-3.9484,-3.9621,-3.6064,-3.8739,-4.089,-4.1399,-4.4353,-4.614,-4.614,-4.6839,-4.7241,-4.7241,-4.7241,-4.7169,-4.7021,-4.7205,-4.7205,-4.7021,-4.7312,-4.745,-4.745,-4.7711,-4.7894,-4.8014,-4.8014,-4.8101,-4.8215,-4.8215,-4.7203,-4.5571,-4.4996,-4.485,-4.4871,-4.3954,-4.3576,-4.3531,-4.3284,-4.2971,-4.251,-4.186,-4.1546,-4.1312,-4.0377,-3.9692,-3.9299,-3.9459,-3.9152,-3.8729,-3.8729,-3.8729,-3.8705,-3.8514,-3.8469,-3.8491,-3.8601,-3.8536,-3.8469,-3.8469,-3.6739,-3.4838,-3.3525,-3.5637,-3.6068,-3.193,-3.4593,-3.68,-3.604,-3.6969,-3.7707,-3.7707,-3.74,-3.7016,-3.6652,-3.5547,-3.5441,-3.6673,-3.541,-3.5272,-3.6638,-3.3834,-3.0151,-2.5701,-1.8713,-1.0866,-0.2104,0.0,0.0,0.0,0.0,0.0,0.0,0.0,0.0,0.0,0.0,0.0,0.0,0.0,0.0,0.0,0.0,0.0,0.0,0.0,0.0,0.0,0.0,0.0,0.0,0.0,0.0,-3.5568,-3.703,0.0,-3.2116,-3.4232,-3.586,-3.5875,-3.9219,-4.1816,-4.3013,-4.375,-4.4692,-4.5844,-4.5719,-4.5941,-4.6551,-4.6551,-4.6873,-4.7484,-4.7711,-4.7832,-4.7832,-4.8101,-4.827,-4.8331,-4.7753,-4.7572,-4.7696,-4.7081,-4.5157,-4.2511,-4.1792,-4.0876,-3.9975,-4.0103,-4.008,-4.0175,-4.1158,-4.1437,-4.1239,-4.0304,-3.8858,-3.7287,-3.6278,-3.4849,-3.3979,-3.591,-3.6459,-3.6869,-3.8617,-3.9083,-3.9048,-3.8879,-3.884,-3.884,-3.884,-3.7879,-3.7233,-3.7881,-3.5716,-3.3024,-3.0695,-3.2523,-3.3303,-3.03,-3.2927,-3.5638,-3.6827,-3.7736,-3.8234,-3.8234,-3.792,-3.7714,-3.7714,-3.7293,-3.711,-3.7287,-3.6858,-3.6453,-3.6139,-3.3711,-2.9626,-2.3717,-1.7858,-1.0312,0.0,0.0,0.0,0.0,0.0,0.0,0.0,0.0,0.0,0.0,0.0,0.0,0.0,0.0,0.0,0.0,0.0,0.0,0.0,0.0,0.0,0.0,0.0,0.0,0.0,0.0,0.0,-3.3549,-3.4882,0.0,0.0,0.0,0.0,-3.092,-3.2828,-3.5468,-3.8757,-3.8622,-3.9985,-4.334,-4.3091,-4.3755,-4.553,-4.553,-4.6363,-4.7958,-4.7958,-4.7986,-4.7986,-4.7986,-4.8162,-4.8306,-4.6799,-4.6356,-4.6567,-4.4547,-4.1876,-3.8854,-3.6798,-3.4227,-3.1855,-3.2915,-3.3467,-3.409,-3.7182,-3.839,-3.8474,-3.8233,-3.5087,-3.1354,-3.1222,-2.8138,0.0,0.0,-3.1704,-3.2851,-3.7815,-3.9071,-3.9161,-3.9423,-3.946,-3.9475,-3.9475,-3.6893,-3.4986,-3.6479,-3.4992,-3.2454,-2.9091,0.0,-2.8107,-2.8086,-3.0001,-3.2491,-3.5349,-3.736,-3.8491,-3.8491,-3.8491,-3.8491,-3.8491,-3.8469,-3.8174,-3.7376,-3.7246,-3.6615,-3.5299,-3.2015,-2.7652,-2.214,-1.3696,0.0,0.0,0.0,0.0,0.0,0.0,0.0,0.0,0.0,0.0,0.0,0.0,0.0,0.0,0.0,0.0,0.0,0.0,0.0,0.0,0.0,0.0,0.0,0.0,0.0,0.0,-2.4468,-2.7019,-2.6685,-2.6156,-2.4309,0.0,0.0,0.0,0.0,0.0,0.0,-3.1536,-3.2493,-3.5012,-3.9522,-3.9573,-4.09,-4.3792,-4.3792,-4.4012,-4.4477,-4.4758,-4.4877,-4.4877,-4.5157,-4.5336,-4.5375,-4.5002,-4.4889,-4.4472,-3.7912,-3.4697,-3.3538,-2.9339,-2.7267,-2.6745,-2.8287,-2.8721,-2.9208,-3.3966,-3.4557,-3.3283,-3.3592,-3.19,-2.9333,-2.7117,0.0,0.0,0.0,0.0,-2.7737,-3.2676,-3.403,-3.5006,-3.8599,-3.9545,-3.958,-3.958,-3.7926,-3.5469,-3.2125,-2.887,-2.5116,-2.0443,-2.0668,0.0,-2.1349,-2.9871,-3.5334,-3.2712,-3.6123,-3.8786,-3.8786,-3.8786,-3.8786,-3.8786,-3.8601,-3.8307,-3.7949,-3.6543,-3.5152,-3.3835,-2.881,-2.3314,-1.7529,0.0,0.0,0.0,0.0,0.0,0.0,0.0,0.0,0.0,0.0,0.0,0.0,0.0,0.0,0.0,0.0,0.0,0.0,0.0,0.0,0.0,0.0,0.0,0.0,0.0,0.0,0.0,-2.1605,-2.456,-2.4152,-2.2961,-2.0767,0.0,0.0,0.0,0.0,0.0,0.0,0.0,0.0,0.0,-3.3281,-3.3429,-3.5015,-3.8262,-3.9706,-4.0777,-4.1574,-4.3206,-4.4012,-4.4012,-4.4216,-4.4306,-4.4268,-4.3521,-4.1988,-3.9573,-3.4237,-3.0383,-2.7379,0.0,0.0,0.0,0.0,-2.3791,-2.4293,-2.8725,-2.9462,-2.8457,-2.8752,0.0,0.0,0.0,0.0,0.0,0.0,0.0,-2.4735,-2.9745,-3.2184,-3.3981,-3.6694,-3.7371,-3.7451,-3.7447,-3.3853,-2.9853,-2.7185,-2.3434,-1.9164,-1.4334,-1.3124,0.0,0.0,0.0,-3.338,-3.0684,-3.5472,-3.9118,-3.9118,-3.9118,-3.9118,-3.9118,-3.8214,-3.7449,-3.7008,-3.5,-3.2615,-2.9937,-2.5627,-1.9064,0.0,0.0,0.0,0.0,0.0,0.0,0.0,0.0,0.0,0.0,0.0,0.0,0.0,0.0,0.0,0.0,0.0,0.0,0.0,0.0,0.0,0.0,0.0,0.0,0.0,0.0,0.0,0.0,0.0,-2.3273,-2.3134,0.0,0.0,0.0,0.0,0.0,0.0,0.0,0.0,0.0,0.0,0.0,0.0,0.0,-2.7814,-3.1056,-3.39,-3.607,-3.7538,-4.0358,-4.1742,-4.1726,-4.1726,-4.2062,-4.2586,-4.0455,0.0,-3.3613,-3.1128,0.0,0.0,0.0,0.0,0.0,0.0,0.0,0.0,0.0,0.0,0.0,0.0,0.0,0.0,0.0,0.0,0.0,0.0,0.0,0.0,0.0,0.0,-3.3485,-3.3345,-3.3672,-3.3725,-3.2813,-2.682,-2.1494,-2.1253,-1.7751,-1.3494,0.0,0.0,0.0,0.0,0.0,0.0,-2.8745,-3.5026,-3.9452,-3.9481,-3.949,-3.9475,-3.9475,-3.7662,-3.6234,-3.5519,-3.2867,-2.9503,-2.5319,-2.1918,0.0,0.0,0.0,0.0,0.0,0.0,0.0,0.0,0.0,0.0,0.0,0.0,0.0,0.0,0.0,0.0,0.0,0.0,0.0,0.0,0.0,0.0,0.0,0.0,0.0,0.0,0.0,0.0,0.0,0.0,0.0,0.0,0.0,0.0,0.0,0.0,0.0,0.0,0.0,0.0,0.0,0.0,0.0,0.0,0.0,0.0,0.0,0.0,0.0,0.0,-2.7842,-2.8121,-2.809,-2.809,-3.0334,-3.3949,-2.9582,-2.8781,-3.0002,-2.2837,0.0,0.0,0.0,0.0,0.0,0.0,0.0,0.0,0.0,0.0,0.0,0.0,0.0,0.0,0.0,0.0,0.0,0.0,0.0,0.0,0.0,0.0,-2.7656,-2.6784,-2.8716,-2.9175,-2.3478,0.0,0.0,0.0,0.0,0.0,0.0,0.0,0.0,0.0,0.0,0.0,-2.532,-3.3619,-3.9485,-3.9599,-3.9518,-3.9476,-3.9476,-3.7681,-3.6066,-3.4988,-3.0313,-2.6335,0.0,0.0,0.0,0.0,0.0,0.0,0.0,0.0,0.0,0.0,0.0,0.0,0.0,0.0,0.0,0.0,0.0,0.0,0.0,0.0,0.0,0.0,0.0,0.0,0.0,0.0,0.0,0.0,0.0,0.0,0.0,0.0,0.0,0.0,0.0,0.0,0.0,0.0,0.0,0.0,0.0,0.0,0.0,0.0,0.0,0.0,0.0,0.0,0.0,0.0,0.0,0.0,0.0,0.0,0.0,0.0,0.0,0.0,-2.4475,-2.2252,0.0,0.0,0.0,0.0,0.0,0.0,0.0,0.0,0.0,0.0,0.0,0.0,0.0,0.0,0.0,0.0,0.0,0.0,0.0,0.0,0.0,0.0,0.0,0.0,0.0,0.0,0.0,0.0,0.0,0.0,0.0,0.0,0.0,0.0,0.0,0.0,0.0,0.0,0.0,0.0,-2.4374,-3.2517,-3.8617,-3.9553,-3.9588,-3.9522,-3.9448,-3.6865,-3.4129,-3.1516,-2.7751,0.0,0.0,0.0,0.0,0.0,0.0,0.0,0.0,0.0,0.0,0.0,0.0,0.0,0.0,0.0,0.0,0.0,0.0,0.0,0.0,0.0,0.0,0.0,0.0,0.0,0.0,0.0,0.0,0.0,0.0,0.0,0.0,0.0,0.0,0.0,0.0,0.0,0.0,0.0,0.0,0.0,0.0,0.0,0.0,0.0,0.0,0.0,0.0,0.0,0.0,0.0,0.0,0.0,0.0,0.0,0.0,0.0,0.0,0.0,-2.028,-1.6843,0.0,0.0,0.0,0.0,0.0,0.0,0.0,0.0,0.0,0.0,0.0,0.0,0.0,0.0,0.0,0.0,0.0,0.0,0.0,0.0,0.0,0.0,0.0,0.0,0.0,0.0,0.0,0.0,0.0,0.0,0.0,0.0,0.0,0.0,0.0,0.0,0.0,0.0,0.0,0.0,-2.4156,-3.1764,-3.7781,-3.9468,-3.9638,-3.9583,-3.9466,-3.6059,-3.2225,-2.8298,-2.4909,0.0,0.0,0.0,0.0,0.0,0.0,0.0,0.0,0.0,0.0,0.0,0.0,0.0,0.0,0.0,0.0,0.0,0.0,0.0,0.0,0.0,0.0,0.0,0.0,0.0,0.0,0.0,0.0,0.0,0.0,0.0,0.0,0.0,0.0,0.0,0.0,0.0,0.0,0.0,0.0,0.0,0.0,0.0,0.0,0.0,0.0,0.0,0.0,0.0,0.0,0.0,0.0,0.0,0.0,0.0,0.0,0.0,0.0,0.0,0.0,0.0,0.0,0.0,0.0,0.0,0.0,0.0,0.0,0.0,0.0,0.0,0.0,0.0,0.0,0.0,0.0,0.0,0.0,0.0,0.0,0.0,0.0,0.0,0.0,0.0,0.0,0.0,0.0,0.0,0.0,0.0,0.0,0.0,0.0,0.0,0.0,0.0,0.0,0.0,0.0,0.0,-2.3778,-3.1576,-3.7788,-3.947,-3.9663,-3.9591,-3.9472,-3.5773,-3.1813,-2.7882,0.0,0.0,0.0,0.0,0.0,0.0,0.0,0.0,0.0,0.0,0.0,0.0,0.0,0.0,0.0,0.0,0.0,0.0,0.0,0.0,0.0,0.0,0.0,0.0,0.0,0.0,0.0,0.0,0.0,0.0,0.0,0.0,0.0,0.0,0.0,0.0,0.0,0.0,0.0,0.0,0.0,0.0,0.0,0.0,0.0,0.0,0.0,0.0,0.0,0.0,0.0,0.0,0.0,0.0,0.0,0.0,0.0,0.0,0.0,0.0,0.0,0.0,0.0,0.0,0.0,0.0,0.0,0.0,0.0,0.0,0.0,0.0,0.0,0.0,0.0,0.0,0.0,0.0,0.0,0.0,0.0,0.0,0.0,0.0,0.0,0.0,0.0,0.0,0.0,0.0,0.0,0.0,0.0,0.0,0.0,0.0,0.0,0.0,0.0,0.0,0.0,0.0,-2.1863,-2.9701,-3.5899,-3.7795,-3.908,-3.9711,-3.9492,-3.5802,-3.1163,-2.5611,0.0,0.0,0.0,0.0,0.0,0.0,0.0,0.0,0.0,0.0,0.0,0.0,0.0,0.0,0.0,0.0,0.0,0.0,0.0,0.0,0.0,0.0,0.0,0.0,0.0,0.0,0.0,0.0,0.0,0.0,0.0,0.0,0.0,0.0,0.0,0.0,0.0,0.0,0.0,0.0,0.0,0.0,0.0,0.0,0.0,0.0,0.0,0.0,0.0,0.0,0.0,0.0,0.0,0.0,0.0,0.0,0.0,0.0,0.0,0.0,0.0,0.0,0.0,0.0,0.0,0.0,0.0,0.0,0.0,0.0,0.0,0.0,0.0,0.0,0.0,0.0,0.0,0.0,0.0,0.0,0.0,0.0,0.0,0.0,0.0,0.0,0.0,0.0,0.0,0.0,0.0,0.0,0.0,0.0,0.0,0.0,0.0,0.0,0.0,0.0,0.0,0.0,-2.0304,-2.8253,-3.4547,-3.6584,-3.8576,-3.9447,-3.879,-3.5643,-3.0672,-2.3576,0.0,0.0,0.0,0.0,0.0,0.0,0.0,0.0,0.0,0.0,0.0,0.0,0.0,0.0,0.0,0.0,0.0,0.0,0.0,0.0,0.0,0.0,0.0,0.0,0.0,0.0,0.0,0.0,0.0,0.0,0.0,0.0,0.0,0.0,0.0,0.0,0.0,0.0,0.0,0.0,0.0,0.0,0.0,0.0,0.0,0.0,0.0,0.0,0.0,0.0,0.0,0.0,0.0,0.0,0.0,0.0,0.0,0.0,0.0,0.0,0.0,0.0,0.0,0.0,0.0,0.0,0.0,0.0,0.0,0.0,0.0,0.0,0.0,0.0,0.0,0.0,0.0,0.0,0.0,0.0,0.0,0.0,0.0,0.0,0.0,0.0,0.0,0.0,0.0,0.0,0.0,0.0,0.0,0.0,0.0,0.0,0.0,0.0,0.0,0.0,0.0,0.0,-1.9677,-2.7902,-3.4388,-3.6339,-3.8296,-3.8795,-3.7125,-3.5028,-3.0372,0.0,0.0,0.0,0.0,0.0,0.0,0.0,0.0,0.0,0.0,0.0,0.0,0.0,0.0,0.0,0.0,0.0,0.0,0.0,0.0,0.0,0.0,0.0,0.0,0.0,0.0,0.0,0.0,0.0,0.0,0.0,0.0,0.0,0.0,0.0,0.0,0.0,0.0,0.0,0.0,0.0,0.0,0.0,0.0,0.0,0.0,0.0,0.0,0.0,0.0,0.0,0.0,0.0,0.0,0.0,0.0,0.0,0.0,0.0,0.0,0.0,0.0,0.0,0.0,0.0,0.0,0.0,0.0,0.0,0.0,0.0,0.0,0.0,0.0,0.0,0.0,0.0,0.0,0.0,0.0,0.0,0.0,0.0,0.0,0.0,0.0,0.0,0.0,0.0,0.0,0.0,0.0,0.0,0.0,0.0,0.0,0.0,0.0,0.0,0.0,0.0,0.0,0.0,-1.7357,-2.3494,-2.949,-3.3828,-3.6284,-3.741,-3.6971,-3.4843,-3.0171,-2.2265,0.0,0.0,0.0,0.0,0.0,0.0,0.0,0.0,0.0,0.0,0.0,0.0,0.0,0.0,0.0,0.0,0.0,0.0,0.0,0.0,0.0,0.0,0.0,0.0,0.0,0.0,0.0,0.0,0.0,0.0,0.0,0.0,0.0,0.0,0.0,0.0,0.0,0.0,0.0,0.0,0.0,0.0,0.0,0.0,0.0,0.0,0.0,0.0,0.0,0.0,0.0,0.0,0.0,0.0,0.0,0.0,0.0,0.0,0.0,0.0,0.0,0.0,0.0,0.0,0.0,0.0,0.0,0.0,0.0,0.0,0.0,0.0,0.0,0.0,0.0,0.0,0.0,0.0,0.0,0.0,0.0,0.0,0.0,0.0,0.0,0.0,0.0,0.0,0.0,0.0,0.0,0.0,0.0,0.0,0.0,0.0,0.0,0.0,0.0,0.0,0.0,0.0,0.0,-2.2434,-2.7724,-3.2556,-3.5254,-3.6404,-3.5747,-3.4346,-2.9904,-2.1417,0.0,0.0,0.0,0.0,0.0,0.0,0.0,0.0,0.0,0.0,0.0,0.0,0.0,0.0,0.0,0.0,0.0,0.0,0.0,0.0,0.0,0.0,0.0,0.0,0.0,0.0,0.0,0.0,0.0,0.0,0.0,0.0,0.0,0.0,0.0,0.0,0.0,0.0,0.0,0.0,0.0,0.0,0.0,0.0,0.0,0.0,0.0,0.0,0.0,0.0,0.0,0.0,0.0,0.0,0.0,0.0,0.0,0.0,0.0,0.0,0.0,0.0,0.0,0.0,0.0,0.0,0.0,0.0,0.0,0.0,0.0,0.0,0.0,0.0,0.0,0.0,0.0,0.0,0.0,0.0,0.0,0.0,0.0,0.0,0.0,0.0,0.0,0.0,0.0,0.0,0.0,0.0,0.0,0.0,0.0,0.0,0.0,0.0,0.0,0.0,0.0,0.0,0.0,-2.368,-2.8216,-3.2241,-3.4785,-3.5447,-3.3633,-3.3444,-2.9463,-2.0151,-1.8517,0.0,0.0,0.0,0.0,0.0,0.0,0.0,0.0,0.0,0.0,0.0,0.0,0.0,0.0,0.0,0.0,0.0,0.0,0.0,0.0,0.0,0.0,0.0,0.0,0.0,0.0,0.0,0.0,0.0,0.0,0.0,0.0,0.0,0.0,0.0,0.0,0.0,0.0,0.0,0.0,0.0,0.0,0.0,0.0,0.0,0.0,0.0,0.0,0.0,0.0,0.0,0.0,0.0,0.0,0.0,0.0,0.0,0.0,0.0,0.0,0.0,0.0,0.0,0.0,0.0,0.0,0.0,0.0,0.0,0.0,0.0,0.0,0.0,0.0,0.0,0.0,0.0,0.0,0.0,0.0,0.0,0.0,0.0,0.0,0.0,0.0,0.0,0.0,0.0,0.0,0.0,0.0,0.0,0.0,0.0,0.0,0.0,0.0,0.0,0.0,0.0,0.0,-1.9856,-2.3799,-3.036,-3.197,-3.2352,-3.1874,-3.1551,-2.8365,-2.1227,-1.8955,0.0,0.0,0.0,0.0,0.0,0.0,0.0,0.0,0.0,0.0,0.0,0.0,0.0,0.0,0.0,0.0,0.0,0.0,0.0,0.0,0.0,0.0,0.0,0.0,0.0,0.0,0.0,0.0,0.0,0.0,0.0,0.0,0.0,0.0,0.0,0.0,0.0,0.0,0.0,0.0,0.0,0.0,0.0,0.0,0.0,0.0,0.0,0.0,0.0,0.0,0.0,0.0,0.0,0.0,0.0,0.0,0.0,0.0,0.0,0.0,0.0,0.0,0.0,0.0,0.0,0.0,0.0,0.0,0.0,0.0,0.0,0.0,0.0,0.0,0.0,0.0,0.0,0.0,0.0,0.0,0.0,0.0,0.0,0.0,0.0,0.0,0.0,0.0,0.0,0.0,0.0,0.0,0.0,0.0,0.0,0.0,0.0,0.0,0.0,0.0,0.0,0.0,-1.79,-2.2463,-2.927,-3.0777,-3.118,-3.0963,-3.0813,-2.802,-2.1778,-2.0101,0.0,0.0,0.0,0.0,0.0,0.0,0.0,0.0,0.0,0.0,0.0,0.0,0.0,0.0,0.0,0.0,0.0,0.0,0.0,0.0,0.0,0.0,0.0,0.0,0.0,0.0,0.0,0.0,0.0,0.0,0.0,0.0,0.0,0.0,0.0,0.0,0.0,0.0,0.0,0.0,0.0,0.0,0.0,0.0,0.0,0.0,0.0,0.0,0.0,0.0,0.0,0.0,0.0,0.0,0.0,0.0,0.0,0.0,0.0,0.0,0.0,0.0,0.0,0.0,0.0,0.0,0.0,0.0,0.0,0.0,0.0,0.0,0.0,0.0,0.0,0.0,0.0,0.0,0.0,0.0,0.0,0.0,0.0,0.0,0.0,0.0,0.0,0.0,0.0,0.0,0.0,0.0,0.0,0.0,0.0,0.0,0.0,0.0,0.0,0.0,0.0,0.0,0.0,-2.2176,-2.7207,-2.9619,-3.0693,-3.0268,-3.0324,-2.7841,-2.1882,0.0,0.0,0.0,0.0,0.0,0.0,0.0,0.0,0.0,0.0,0.0,0.0,0.0,0.0,0.0,0.0,0.0,0.0,0.0,0.0,0.0,0.0,0.0,0.0,0.0,0.0,0.0,0.0,0.0,0.0,0.0,0.0,0.0,0.0,0.0,0.0,0.0,0.0,0.0,0.0,0.0,0.0,0.0,0.0,0.0,0.0,0.0,0.0,0.0,0.0,0.0,0.0,0.0,0.0,0.0,0.0,0.0,0.0,0.0,0.0,0.0,0.0,0.0,0.0,0.0,0.0,0.0,0.0,0.0,0.0,0.0,0.0,0.0,0.0,0.0,0.0,0.0,0.0,0.0,0.0,0.0,0.0,0.0,0.0,0.0,0.0,0.0,0.0,0.0,0.0,0.0,0.0,0.0,0.0,0.0,0.0,0.0,0.0,0.0,0.0,0.0,0.0,0.0,0.0,-1.9668,-2.0396,-2.5462,-2.8825,-2.888,-2.88,-2.6614,-2.1538,0.0,0.0,0.0,0.0,0.0,0.0,0.0,0.0,0.0,0.0,0.0,0.0,0.0,0.0]}],[{"header":{"parameterUnit":"kt","parameterCategory":2,"dx":1,"dy":1,"la1":29.285339999999998,"la2":30.599998999999997,"lo1":-89.70041500000002,"lo2":-87.6738589999976,"nx":112,"ny":82,"refTime":"2022-10-14T06:00:00:Z","depth":0,"parameterNumber":2,"parameterNumberName":"V-component_of_WINDS"},"data":[6.057,6.1654,6.0546,4.8862,4.7107,4.4795,3.1533,3.1925,3.3586,2.8188,3.0009,3.2618,3.2898,2.8618,2.5325,2.6063,2.37,2.1219,0.0,1.9469,1.9523,1.9523,2.33,2.6882,2.9302,3.1282,3.7619,5.0222,5.0914,5.5174,6.5441,6.7913,6.8993,6.8993,6.8993,6.8993,6.8993,6.9048,6.9085,6.9085,6.9127,6.9134,6.9134,6.9242,6.9328,6.9407,6.9651,6.9803,6.9871,6.993,6.9971,6.9971,6.9971,6.9971,6.9971,6.9971,6.9971,6.9971,6.9971,6.9971,6.9971,6.9971,6.9971,6.9971,6.9971,6.9971,6.9971,6.9971,6.9971,6.9971,6.9971,6.9971,6.9971,6.9971,6.993,6.9878,6.9797,6.9651,6.9477,6.9242,6.9177,6.9119,6.9009,6.8993,6.8993,6.8993,6.8993,6.8993,6.8993,6.8993,6.8993,6.8993,6.8993,6.8993,6.8993,6.8993,6.8993,6.8993,6.8993,6.8993,6.8993,6.8993,6.8993,6.8993,6.8993,6.8993,6.8993,6.8993,6.8993,6.8993,6.8993,6.8993,5.3843,5.4961,5.3894,4.0627,3.9309,3.7899,2.5252,2.6229,2.8413,2.3493,2.7289,3.0301,2.6352,2.5201,2.4307,2.2691,2.2422,2.1668,0.0,1.976,2.0135,2.0091,2.5888,3.0815,3.3245,3.4934,4.0608,5.1966,5.1622,5.5547,6.623,6.8211,6.8993,6.8993,6.8993,6.8993,6.8993,6.8993,6.8993,6.8993,6.8993,6.8993,6.902,6.9095,6.9156,6.9241,6.945,6.9679,6.979,6.9875,6.993,6.9971,6.9971,6.9971,6.9971,6.9971,6.9971,6.9971,6.9971,6.9971,6.9971,6.9971,6.9971,6.9971,6.9971,6.9971,6.9971,6.9971,6.9971,6.9971,6.9971,6.9971,6.9971,6.9971,6.9971,6.997,6.9871,6.9809,6.9706,6.9474,6.9297,6.9198,6.9072,6.9061,6.9061,6.9061,6.8997,6.8993,6.8993,6.8993,6.8993,6.8993,6.8993,6.8993,6.8993,6.8993,6.8993,6.8993,6.8993,6.8993,6.8993,6.8993,6.8993,6.8993,6.8993,6.8993,6.8993,6.8993,6.8993,6.8993,6.8993,6.8993,4.8094,4.6707,4.4916,3.2217,3.0016,2.8917,2.1001,2.2861,2.5818,2.4228,2.7781,3.0601,2.8755,2.7139,2.5563,2.3958,2.3833,0.0,0.0,2.0938,2.2074,2.2,2.7392,3.3867,4.0824,3.4369,3.727,5.5479,4.9316,5.1821,6.8096,6.8993,6.8993,6.8993,6.8993,6.8993,6.8993,6.8993,6.8993,6.8993,6.8993,6.8993,6.8993,6.8993,6.9085,6.9201,6.9221,6.9392,6.9776,6.9783,6.9867,6.997,6.9971,6.9971,6.997,6.9971,6.9971,6.9971,6.9971,6.9971,6.9971,6.9971,6.9971,6.9971,6.9971,6.9971,6.9971,6.9971,6.9971,6.9971,6.9971,6.9971,6.9971,6.9971,6.9971,6.9971,6.9971,6.9878,6.979,6.979,6.9464,6.9204,6.9204,6.9146,6.9109,6.9033,6.8945,6.8833,6.887,6.8908,6.8945,6.8945,6.8956,6.8993,6.8993,6.8993,6.8993,6.8993,6.8993,6.8993,6.8993,6.8993,6.8993,6.8993,6.8945,6.8945,6.8993,6.8945,6.8945,6.8993,6.8881,6.887,3.8763,4.008,4.1089,3.248,3.1641,3.1021,2.3889,2.2472,2.2829,2.3477,2.3834,0.0,0.0,0.0,2.2796,2.3441,0.0,2.7184,2.2938,2.8553,3.3523,3.4652,3.5493,3.9069,4.6954,4.7138,5.1176,6.1847,5.6784,5.7689,6.791,6.878,6.8993,6.8993,6.8993,6.8993,6.8993,6.8993,6.8993,6.8993,6.8993,6.8993,6.8993,6.8993,6.9035,6.9061,6.9177,6.9261,6.9361,6.9689,6.9803,6.9824,6.993,6.9927,6.9824,6.993,6.9971,6.9971,6.9971,6.9971,6.9971,6.9971,6.9971,6.9971,6.9971,6.9971,6.9971,6.9971,6.9971,6.9971,6.9971,6.9971,6.9971,6.9971,6.9971,6.9971,6.9971,6.9969,6.9881,6.9803,6.9706,6.9589,6.9384,6.841,6.7139,6.5759,6.5663,6.5646,6.5368,6.6499,6.7257,6.7176,6.8272,6.8993,6.8993,6.8993,6.8993,6.8993,6.8993,6.8993,6.8993,6.8993,6.8993,6.8993,6.7786,6.7786,6.8993,6.7749,6.7786,6.8945,6.6477,6.5318,3.5218,3.6391,3.7784,3.0653,3.1595,3.2066,2.3601,2.1921,2.2244,2.2512,0.0,0.0,0.0,0.0,0.0,0.0,2.8969,3.1074,2.7007,3.3428,3.9351,4.1601,4.47,4.7995,5.1453,5.2383,5.6552,6.5646,6.0046,5.985,6.812,6.8846,6.8993,6.8993,6.8993,6.8993,6.8993,6.8993,6.8993,6.8993,6.8993,6.8993,6.8993,6.8993,6.8993,6.902,6.9072,6.9156,6.9204,6.9474,6.9551,6.9613,6.9714,6.9708,6.9613,6.9714,6.9791,6.9881,6.9881,6.9929,6.9971,6.9971,6.9971,6.9971,6.9971,6.9971,6.9971,6.9971,6.9971,6.9971,6.9971,6.9971,6.9971,6.9971,6.9971,6.9971,6.9971,6.9971,6.997,6.9878,6.9814,6.929,6.7797,6.6724,6.5705,6.4547,6.4377,6.4287,6.4069,6.4894,6.5509,6.5418,6.629,6.6889,6.6889,6.6889,6.6889,6.6889,6.6889,6.6889,6.6889,6.6889,6.6889,6.6889,6.5917,6.5879,6.6889,6.5879,6.5917,6.6851,6.487,6.3935,3.4451,3.3913,3.4316,2.7907,2.9978,3.1313,2.261,0.0,2.3974,2.3634,0.0,2.5615,2.7421,0.0,0.0,2.7921,3.2822,3.5712,3.2572,3.7995,4.3383,4.6449,5.4013,5.8009,5.5583,5.404,5.7324,6.726,6.1303,6.0652,6.8528,6.8993,6.8993,6.8993,6.8993,6.8993,6.8993,6.8993,6.8993,6.8993,6.8993,6.8993,6.8993,6.8993,6.8993,6.8993,6.8993,6.9061,6.9181,6.9201,6.9277,6.9375,6.9375,6.9375,6.9375,6.9402,6.9573,6.9731,6.9731,6.9824,6.997,6.997,6.997,6.9971,6.9971,6.9971,6.9971,6.9971,6.9971,6.9971,6.9971,6.9971,6.9933,6.9743,6.9705,6.9705,6.9705,6.9705,6.9705,6.9705,6.9574,6.8491,6.5224,6.4561,6.4404,6.4164,6.3905,6.3666,6.3631,6.3682,6.3717,6.3722,6.3871,6.3959,6.3935,6.3935,6.3935,6.3935,6.3935,6.3935,6.3935,6.3935,6.3935,6.3935,6.3785,6.3785,6.3935,6.3785,6.3598,6.3411,6.3411,6.3411,2.904,2.7591,2.7997,2.7814,2.5814,2.5009,0.0,0.0,0.0,3.6782,3.6425,3.5712,3.8668,3.8316,3.7959,3.9025,4.3416,4.5523,4.2419,5.0624,5.7652,5.9579,6.0257,6.1327,6.3254,6.209,6.2759,6.6529,6.6198,6.657,6.8261,6.878,6.8993,6.8993,6.8993,6.8993,6.8993,6.8993,6.8993,6.8993,6.8993,6.8993,6.8993,6.8993,6.8993,6.8993,6.8993,6.9009,6.9048,6.9156,6.9204,6.9261,6.9261,6.9261,6.9241,6.9346,6.9428,6.949,6.949,6.9622,6.9814,6.9814,6.9919,6.9971,6.9971,6.9971,6.9971,6.9971,6.9971,6.9971,6.9971,6.9971,6.9629,6.8262,6.7921,6.7921,6.7921,6.7921,6.7921,6.7921,6.792,6.6856,6.3592,6.3022,6.2482,6.0888,6.0746,6.0763,6.0415,6.1622,6.2456,6.2259,6.3368,6.4074,6.3959,6.3935,6.3935,6.3935,6.3935,6.3935,6.3935,6.3935,6.3935,6.3935,6.2701,6.2701,6.3935,6.2701,6.1355,6.0046,6.0046,6.0046,2.6088,2.5002,2.5217,2.4627,2.4409,0.0,0.0,2.5955,2.7608,3.5157,3.5472,3.6132,4.1819,4.3441,4.412,4.4631,4.9304,5.3157,5.3978,5.8081,6.1898,6.4253,6.3147,6.3147,6.5465,6.5002,6.4976,6.5993,6.6834,6.7634,6.8205,6.8467,6.8751,6.8993,6.8993,6.8993,6.8993,6.8993,6.8993,6.8993,6.8993,6.8993,6.8993,6.8993,6.8993,6.8993,6.8993,6.8993,6.902,6.9085,6.9119,6.9119,6.9119,6.9119,6.9081,6.916,6.8695,6.8045,6.8045,6.8216,6.8286,6.7508,6.7846,6.8477,6.7692,6.7465,6.7465,6.7465,6.7465,6.7465,6.7465,6.7465,6.7237,6.6364,6.6174,6.6174,6.6174,6.6174,6.6174,6.6174,6.5529,6.4238,6.177,6.1314,6.101,6.0012,5.9858,5.9802,5.9609,6.0303,6.0785,6.0662,6.1293,6.1658,6.1614,6.1559,6.1542,6.1542,6.1542,6.1542,6.1542,6.1542,6.1542,6.1542,6.0757,6.0757,6.1542,6.0719,5.9934,5.9089,5.9089,5.9089,2.3879,2.3458,2.3665,2.2318,2.4024,0.0,2.4801,2.5187,2.7658,3.4255,3.5923,3.8213,4.4906,4.8406,5.0228,4.9826,5.4013,5.8783,6.2979,6.2517,6.271,6.5394,6.4609,6.4324,6.5573,6.5715,6.5715,6.5715,6.6114,6.6827,6.7854,6.7997,6.8271,6.8693,6.878,6.8874,6.8874,6.8929,6.8993,6.8993,6.8993,6.8993,6.8993,6.8993,6.8993,6.8993,6.8993,6.8993,6.8993,6.8993,6.8646,6.801,6.801,6.801,6.801,6.801,6.7211,6.6132,6.6132,6.6319,6.6338,6.5112,6.5612,6.654,6.5298,6.4921,6.4921,6.4921,6.4921,6.4921,6.4921,6.4921,6.4845,6.4542,6.4466,6.4466,6.4466,6.4466,6.439,6.4048,6.2947,6.1656,6.0289,6.0062,6.0062,6.0062,5.9898,5.9759,5.9759,5.9669,5.9565,5.9536,5.9419,5.9344,5.9301,5.9175,5.9119,5.9112,5.9089,5.9089,5.9089,5.9089,5.9089,5.9089,5.9089,5.9089,5.9089,5.9089,5.9089,5.9089,5.9089,5.9089,2.1261,2.0839,2.1756,2.5255,2.3542,0.0,3.7171,3.8242,3.9461,4.9567,5.2729,5.4082,5.5653,5.7402,5.8769,5.9377,6.0043,6.1414,6.4031,6.4291,6.4552,6.5592,6.5537,6.5501,6.568,6.5715,6.5715,6.5715,6.5732,6.6064,6.6614,6.7243,6.7557,6.7632,6.8066,6.8303,6.8303,6.878,6.8993,6.8993,6.8993,6.8993,6.8993,6.8993,6.8993,6.8993,6.8993,6.8993,6.8993,6.8993,6.7263,6.4533,6.4533,6.4533,6.4533,6.4533,6.4408,6.4245,6.4245,6.4433,6.4622,6.4586,6.4753,6.4995,6.4957,6.4921,6.4921,6.4921,6.4921,6.4921,6.4921,6.4921,6.458,6.3175,6.2833,6.2833,6.2833,6.2833,6.2415,6.0897,6.0479,6.0289,6.01,6.0062,6.0062,6.0062,6.0061,6.0023,6.0023,6.0022,5.9898,5.9663,5.9645,5.9518,5.9318,5.9267,5.9233,5.9074,5.9089,5.9089,5.9089,5.9089,5.9089,5.9089,5.9089,5.9089,5.9089,5.9089,5.9089,5.9089,5.9089,5.9089,1.9185,1.8935,1.9443,2.2104,0.0,0.0,3.3622,3.6438,4.0092,4.9669,5.2086,5.4044,5.9062,6.0555,6.1316,6.2161,6.2277,6.2789,6.4294,6.4562,6.4792,6.5575,6.5715,6.5715,6.5715,6.5715,6.5323,6.4431,6.518,6.539,6.4723,6.609,6.7078,6.744,6.767,6.7927,6.8238,6.8436,6.8722,6.8993,6.8993,6.8993,6.8993,6.8993,6.8993,6.8993,6.8993,6.8459,6.7449,6.6477,6.5244,6.3935,6.3935,6.3935,6.3935,6.3935,6.3374,6.2589,6.2589,6.2683,6.2611,6.1778,6.2229,6.2973,6.2116,6.1955,6.2074,6.2074,6.2074,6.2074,6.2074,6.2074,6.1922,6.1277,6.1125,6.1125,6.1125,6.1125,6.0897,6.0213,6.0062,6.0062,6.0062,6.0062,6.0062,6.0062,6.0062,6.0062,6.0062,6.0062,6.0023,5.9903,5.9764,5.9638,5.9508,5.9351,5.9287,5.9214,5.9126,5.9089,5.9089,5.9089,5.9089,5.9089,5.9089,5.9089,5.9089,5.9089,5.9089,5.9089,5.9089,5.9089,1.7804,0.0,0.0,0.0,0.0,0.0,3.449,3.7482,4.1395,4.9319,5.1324,5.3597,6.0042,6.156,6.1798,6.1872,6.2245,6.2751,6.3651,6.361,6.3838,6.4633,6.4542,6.4574,6.5037,6.5073,6.4788,6.4074,6.4645,6.4752,6.4074,6.5023,6.5854,6.6331,6.606,6.6083,6.6453,6.6731,6.7284,6.8099,6.8219,6.8571,6.8956,6.8534,6.8309,6.8309,6.7823,6.6664,6.5019,6.3823,6.3038,6.2626,6.2626,6.2626,6.2626,6.2626,6.1879,6.0944,6.0944,6.0944,6.0728,5.9627,6.0173,6.1045,6.001,5.981,5.9982,6.0061,6.0062,6.0062,6.0062,6.0062,6.0062,6.0062,6.0062,6.0062,6.0062,6.0062,6.0062,6.0062,6.0062,6.0062,6.0062,6.0062,6.0062,6.0062,6.0062,6.0062,6.0062,6.0062,6.0062,6.0062,5.9901,5.9764,5.9669,5.9443,5.9312,5.9284,5.9152,5.9089,5.9089,5.9089,5.9089,5.9089,5.9089,5.9089,5.9089,5.9089,5.9089,5.9089,5.9089,5.9005,0.0,0.0,0.0,3.0287,3.2196,3.5258,4.659,4.7149,4.6886,5.2672,5.5138,5.6938,5.9269,6.0886,6.1144,5.8976,5.9784,6.1016,6.1792,6.1322,6.1313,6.2181,6.1637,6.1755,6.3325,6.3468,6.4074,6.5537,6.4288,6.411,6.5537,6.4253,6.3432,6.3482,6.253,6.1965,6.2007,6.3027,6.4296,6.5811,6.6308,6.7412,6.8945,6.73,6.6552,6.644,6.4795,6.3225,6.1766,6.1729,6.0719,5.9201,5.9201,5.9201,5.9201,5.9201,5.9201,5.9164,5.9164,5.9164,5.9194,5.9289,5.9322,5.9419,5.9616,5.9669,5.9721,5.9983,6.0062,6.0062,6.0062,6.0062,6.0062,6.0062,6.0062,6.0062,6.0062,6.0062,6.0062,6.0062,6.0062,6.0062,6.0062,6.0062,6.0062,6.0062,6.0062,6.0062,6.0062,6.0062,6.0062,6.0062,6.0062,5.9943,5.9712,5.9565,5.9419,5.9301,5.9152,5.9089,5.9089,5.9089,5.9089,5.9089,5.9089,5.9089,5.9089,5.9089,5.9089,5.9089,5.9089,5.8809,2.1462,2.3987,2.7347,3.3002,3.705,4.0967,4.5834,4.9154,5.1719,5.3624,5.527,5.6595,5.7376,5.784,5.7968,5.7216,5.7473,5.8063,5.8866,5.8759,5.8993,5.9909,6.026,6.0616,6.1146,6.1542,6.1612,6.1077,6.1505,6.1612,6.1077,6.1541,6.1827,6.1827,6.1495,6.1458,6.182,6.2185,6.2782,6.3651,6.4148,6.4542,6.4737,6.4505,6.4399,6.4362,6.3804,6.199,5.9425,5.9802,5.9575,5.9089,5.9089,5.9089,5.9089,5.9089,5.9089,5.9089,5.9089,5.9089,5.9074,5.9147,5.9233,5.9318,5.9379,5.9493,5.9574,5.9646,5.9739,5.981,5.981,5.9943,6.0062,6.0062,6.0062,6.0062,6.0062,6.0062,6.0062,6.0062,6.0062,6.0062,6.0062,6.0062,6.0062,6.0062,6.0062,6.0062,6.0062,6.0062,6.0062,6.0062,6.0062,6.0023,5.9943,5.9654,5.9469,5.9406,5.9214,5.9089,5.9089,5.9089,5.9089,5.9089,5.9089,5.9089,5.9089,5.9089,5.9089,5.9089,5.9089,5.9005,2.4216,2.71,3.0272,3.6657,4.1557,4.5373,4.7313,5.0634,5.3462,5.392,5.4843,5.5697,5.6294,5.5895,5.5533,5.5533,5.5993,5.6571,5.7088,5.6917,5.6932,5.749,5.7808,5.8293,5.9086,5.9572,5.9694,5.9579,5.9936,6.0007,5.9543,5.9971,6.0185,6.0185,6.0185,6.0098,5.9889,6.0065,6.0603,6.1499,6.2032,6.2393,6.2597,6.2356,6.2264,6.2195,6.1475,5.9968,5.8137,5.8644,5.8809,5.8834,5.9028,5.9089,5.9089,5.9089,5.9089,5.9089,5.9089,5.9089,5.9089,5.9089,5.9147,5.9252,5.9267,5.9344,5.9419,5.9469,5.9556,5.9578,5.9578,5.9755,5.9941,5.9941,6.0022,6.0061,5.9943,6.0022,6.0061,5.9943,6.0022,6.0062,6.0062,6.0062,6.0062,6.0062,6.0062,6.0062,6.0062,6.0062,6.0023,5.9943,5.9941,5.9941,5.9941,5.9612,5.9432,5.9481,5.9215,5.9089,5.9089,5.9089,5.9089,5.9089,5.9089,5.8514,5.7354,5.7354,5.7354,5.7354,5.7915,5.7878,2.5759,2.913,3.2609,4.1446,4.5685,4.853,5.1259,5.1883,5.2212,5.3591,5.3887,5.4415,5.5829,5.4941,5.3887,5.3887,5.5171,5.6162,5.6162,5.5487,5.5069,5.5069,5.4515,5.4965,5.7139,5.7332,5.8274,6.0552,5.9353,5.9175,6.0685,5.9401,5.858,5.858,5.858,5.7867,5.6359,5.685,5.7821,5.9314,5.9853,6.0874,6.2232,6.0764,6.0069,5.996,5.8022,5.7369,5.7724,5.8137,5.8313,5.8369,5.8834,5.9089,5.9089,5.9089,5.9089,5.9089,5.9089,5.9089,5.9089,5.9089,5.9089,5.9119,5.9233,5.9267,5.9318,5.9419,5.9469,5.9481,5.9481,5.9546,5.9663,5.9663,5.9858,5.9983,5.9759,5.9858,5.9981,5.9712,5.9858,6.0061,6.0061,6.0062,6.0062,6.0062,6.0062,6.0024,5.9948,5.991,5.983,5.9451,5.9517,5.9517,5.9441,5.9256,5.9193,5.9205,5.8989,5.8827,5.8827,5.8827,5.8827,5.8827,5.8827,5.7317,5.4214,5.4214,5.4214,5.4251,5.5747,5.5635,3.0533,3.6604,4.1483,4.6377,4.8726,5.0143,5.1555,5.1387,5.1146,5.2244,5.2442,5.2574,5.2936,5.2705,5.2442,5.2442,5.2771,5.3001,5.3001,5.287,5.2736,5.2736,5.3126,5.3591,5.4198,5.4744,5.5515,5.6603,5.6336,5.6496,5.75,5.7224,5.6975,5.6975,5.6975,5.6751,5.6359,5.6501,5.6768,5.7162,5.7713,5.7934,5.7924,5.7937,5.7752,5.7348,5.7198,5.7176,5.7332,5.7724,5.8045,5.8341,5.8462,5.8747,5.9089,5.9089,5.9089,5.9089,5.9089,5.9089,5.9089,5.9089,5.9089,5.9074,5.9126,5.9147,5.9147,5.9192,5.927,5.9328,5.9328,5.9432,5.9574,5.9651,5.9717,5.981,5.9943,5.9788,5.9621,5.9556,5.9638,5.9768,5.9768,5.9943,6.0062,6.0062,6.0062,5.9606,5.8353,5.8163,5.767,5.6338,5.7263,5.7425,5.6146,5.6875,5.6907,5.58,5.5573,5.5485,5.5485,5.5485,5.5485,5.5485,5.5485,5.5074,5.4214,5.4214,5.4214,5.4214,5.4625,5.4625,2.8915,3.6489,4.3753,4.7915,5.0078,5.1185,5.1253,5.1253,5.1253,5.1818,5.1883,5.1883,5.1883,5.1883,5.1883,5.1883,5.1883,5.1883,5.1883,5.1883,5.1883,5.1883,5.2302,5.2707,5.304,5.3455,5.4027,5.4732,5.4784,5.4975,5.5414,5.5449,5.5449,5.5449,5.5741,5.5741,5.5414,5.6059,5.6187,5.5884,5.6509,5.6675,5.6404,5.6675,5.6675,5.6404,5.6675,5.6808,5.685,5.7294,5.7586,5.7822,5.8197,5.8489,5.8784,5.9005,5.9089,5.9089,5.9089,5.9089,5.9089,5.9089,5.9089,5.9089,5.9089,5.9089,5.9089,5.9089,5.9147,5.9195,5.9195,5.9301,5.9406,5.9466,5.9527,5.9616,5.9782,5.9594,5.9406,5.9481,5.9032,5.8422,5.7764,5.7742,5.786,5.786,5.786,5.748,5.6531,5.6417,5.6037,5.504,5.57,5.5815,5.4803,5.5353,5.537,5.4482,5.4297,5.4214,5.4214,5.4214,5.4214,5.4214,5.2756,5.2008,5.2008,5.2008,5.2008,5.2045,5.2793,5.2718,2.6154,3.3717,4.236,4.7686,5.0259,5.1387,5.0843,5.1253,5.1752,5.1883,5.1883,5.1883,5.1883,5.1883,5.1883,5.1883,5.1883,5.1883,5.1883,5.1883,5.1883,5.1883,5.1883,5.2207,5.283,5.2891,5.3253,5.4005,5.4061,5.4117,5.4228,5.4228,5.4228,5.4228,5.4784,5.4836,5.4392,5.5596,5.5931,5.5343,5.6059,5.6359,5.6359,5.6359,5.6359,5.6359,5.6359,5.6359,5.6404,5.685,5.7094,5.7215,5.7887,5.8197,5.8284,5.8759,5.8933,5.8933,5.8933,5.892,5.9005,5.9005,5.9028,5.9089,5.9089,5.9089,5.9089,5.9089,5.9089,5.9089,5.9089,5.9172,5.9287,5.9284,5.9034,5.879,5.879,5.8703,5.8661,5.8764,5.7757,5.6491,5.5151,5.4971,5.4974,5.5012,5.5012,5.4936,5.4708,5.4671,5.4553,5.4178,5.4353,5.4317,5.3981,5.4028,5.3983,5.3736,5.3604,5.3541,5.3541,5.3541,5.3541,5.3541,5.0699,4.9185,4.9185,4.9185,4.9185,4.9222,5.0699,5.0587,3.4235,3.8142,4.1831,4.7568,4.9248,4.9903,5.132,5.1185,5.0981,5.1752,5.1883,5.1883,5.1883,5.1883,5.1883,5.1883,5.1883,5.1883,5.1883,5.1883,5.1883,5.1883,5.1883,5.1949,5.2078,5.211,5.2428,5.3219,5.3279,5.3513,5.4173,5.4228,5.4228,5.4228,5.4338,5.4626,5.5042,5.5294,5.5658,5.6187,5.6314,5.6359,5.6359,5.6359,5.6359,5.6359,5.6359,5.6359,5.6404,5.6457,5.6724,5.7173,5.733,5.7552,5.7858,5.7924,5.7956,5.7956,5.7956,5.8204,5.8462,5.8462,5.8721,5.9089,5.9089,5.9089,5.9089,5.9089,5.9089,5.9089,5.9089,5.9097,5.9168,5.927,5.7186,5.516,5.516,5.5121,5.5101,5.5141,5.4916,5.4723,5.4559,5.4705,5.4882,5.4974,5.5012,5.4519,5.3114,5.2924,5.2354,5.0948,5.1947,5.2112,5.0576,5.1628,5.17,5.0176,5.0083,5.0064,5.0064,5.0064,5.0064,5.0064,4.9446,4.9185,4.9185,4.9185,4.9185,4.9185,4.9446,4.9446,3.3187,3.6209,3.9473,4.4809,4.7599,4.91,4.951,5.0078,5.0341,4.9539,4.9887,5.0571,5.1085,5.1185,5.132,5.1818,5.1883,5.1883,5.1883,5.1883,5.1883,5.1883,5.1883,5.1883,5.1883,5.1883,5.2078,5.2395,5.2491,5.2583,5.2979,5.2979,5.2979,5.2979,5.3396,5.3537,5.3445,5.4269,5.4679,5.4679,5.5077,5.5463,5.5754,5.5414,5.5463,5.5754,5.6187,5.6359,5.6359,5.6359,5.6501,5.6802,5.7054,5.7254,5.748,5.7656,5.7724,5.7724,5.7724,5.7854,5.8045,5.8255,5.7932,5.7517,5.7721,5.7205,5.6569,5.6569,5.6569,5.6569,5.6569,5.6569,5.6575,5.6642,5.5401,5.4214,5.4214,5.4214,5.4214,5.4214,5.3566,5.3019,5.3096,5.254,5.2131,5.2261,5.2315,5.2089,5.1292,5.1178,5.0836,5.0039,5.055,5.0603,4.964,5.0207,5.0197,4.9241,4.9185,4.9185,4.9185,4.9185,4.9185,4.9185,4.9185,4.9185,4.9185,4.9185,4.9185,4.9185,4.9185,4.9185,3.1583,3.4448,3.8112,4.2559,4.5765,4.7772,4.7441,4.8659,4.9331,4.751,4.8029,4.9195,5.0329,5.0309,5.0388,5.1422,5.162,5.162,5.162,5.1752,5.1883,5.1883,5.1883,5.1883,5.1883,5.1883,5.1883,5.1883,5.1883,5.1883,5.1883,5.1883,5.1883,5.1883,5.2491,5.2583,5.2174,5.3371,5.3778,5.3338,5.3949,5.4466,5.4991,5.4303,5.4358,5.5042,5.5645,5.5966,5.6105,5.6105,5.6233,5.6404,5.6808,5.6973,5.6978,5.7333,5.7443,5.7443,5.7443,5.726,5.7107,5.743,5.6607,5.554,5.5851,5.5143,5.4214,5.4214,5.4214,5.4214,5.4214,5.4214,5.4064,5.3316,5.313,5.313,5.313,5.313,5.313,5.313,5.216,5.134,5.134,5.0333,4.9574,4.9666,4.9822,4.9924,4.9963,4.9963,4.9963,4.9963,4.9877,4.9754,4.9602,4.9489,4.9356,4.9204,4.9185,4.9185,4.9185,4.9185,4.9185,4.9185,4.9185,4.9185,4.9185,4.9185,4.9185,4.9185,4.9185,4.9185,3.5418,3.7478,3.9961,4.3288,4.408,4.4565,4.6589,4.7454,4.7664,4.7386,4.7831,4.8758,5.0239,4.9375,4.8926,5.041,5.0673,5.0673,5.0673,5.1387,5.1883,5.1883,5.1883,5.1883,5.1883,5.1883,5.1883,5.1883,5.1883,5.1883,5.1883,5.1883,5.1883,5.1883,5.1949,5.2302,5.2952,5.3133,5.3455,5.4117,5.4173,5.4283,5.4283,5.3513,5.3571,5.4338,5.4392,5.4732,5.5294,5.5294,5.5706,5.6404,5.6448,5.6448,5.6448,5.6501,5.6501,5.6501,5.6501,5.5765,5.4932,5.4932,5.4453,5.3871,5.3896,5.4053,5.4214,5.4214,5.4214,5.4214,5.4214,5.4214,5.3466,5.0363,4.9633,4.9633,4.9633,4.9633,4.9633,4.9633,4.954,4.9447,4.9447,4.9414,4.9399,4.9426,4.9628,4.9826,4.9924,4.9963,4.9963,4.9963,4.9925,4.9832,4.9573,4.9536,4.9441,4.9185,4.9185,4.9185,4.9185,4.9185,4.9185,4.9185,4.9185,4.9185,4.9185,4.9185,4.9185,4.9185,4.9185,4.9185,3.0649,3.2371,3.4875,3.7557,3.99,4.2193,4.4726,4.4717,4.4542,4.5311,4.6042,4.6734,4.7363,4.8143,4.8629,4.8448,4.9078,4.9791,5.0463,5.0843,5.1253,5.1818,5.1883,5.1883,5.1883,5.1883,5.1883,5.1883,5.1883,5.1883,5.1883,5.1883,5.1883,5.1883,5.1883,5.2078,5.2365,5.2365,5.2521,5.283,5.283,5.283,5.283,5.2458,5.2769,5.3513,5.3513,5.3971,5.4626,5.4626,5.5042,5.5658,5.5658,5.5966,5.6359,5.6359,5.5797,5.4977,5.4977,5.4034,5.292,5.3117,5.2419,5.1463,5.1692,5.1348,5.0842,5.0842,5.0988,5.1185,5.1185,5.1185,5.0849,4.9484,4.9185,4.9185,4.9185,4.9185,4.9185,4.9185,4.9185,4.9185,4.9185,4.924,4.9269,4.937,4.9465,4.9611,4.9822,4.9922,4.9963,4.9963,4.9881,4.9819,4.9687,4.959,4.95,4.9301,4.9285,4.9285,4.9301,4.9203,4.9185,4.9185,4.9185,4.9185,4.9185,4.9185,4.9185,4.9185,4.9185,4.9185,2.7796,2.9178,3.1632,3.3857,3.6723,3.9873,4.284,4.2229,4.1473,4.316,4.3957,4.4367,4.4864,4.6206,4.7111,4.663,4.7679,4.8801,4.9469,4.9863,5.0291,5.0948,5.132,5.1454,5.1454,5.1752,5.1883,5.1883,5.1883,5.1883,5.1883,5.1883,5.1883,5.1883,5.1883,5.1883,5.1883,5.1883,5.1883,5.1883,5.1883,5.1883,5.1883,5.1883,5.2174,5.2707,5.2707,5.304,5.3571,5.3801,5.4303,5.487,5.4452,5.4711,5.5278,5.4852,5.4133,5.3336,5.3336,5.2337,5.1062,5.1341,5.0442,4.9313,4.9597,4.9189,4.8617,4.8617,4.8891,4.9185,4.9185,4.9109,4.9011,4.9011,4.9011,4.9032,4.9185,4.9185,4.9185,4.9185,4.9185,4.9185,4.9185,4.9185,4.9222,4.928,4.9341,4.9428,4.9636,4.9815,4.9923,4.9963,4.9879,4.9784,4.9768,4.968,4.9546,4.9428,4.9413,4.9413,4.9428,4.9317,4.9238,4.9221,4.9185,4.9185,4.9185,4.9185,4.9185,4.9185,4.9185,4.9185,2.9318,3.0299,3.2259,3.398,3.5424,3.7401,4.1298,4.0164,3.9059,4.1647,4.1778,4.1897,4.3295,4.3451,4.3828,4.5316,4.6613,4.7409,4.7488,4.8314,4.9025,4.9025,4.9935,5.0565,5.0565,5.1387,5.1883,5.1883,5.1883,5.1883,5.1883,5.1883,5.1883,5.1883,5.1883,5.1883,5.1883,5.1883,5.1883,5.1883,5.1883,5.1883,5.1883,5.1883,5.1883,5.1883,5.1883,5.1949,5.2014,5.2769,5.3513,5.409,5.2664,5.2457,5.2754,5.1292,5.1157,5.173,5.173,5.0696,4.9415,4.9415,4.8569,4.7614,4.7647,4.8085,4.8617,4.8617,4.8891,4.9185,4.9185,4.8891,4.8617,4.8617,4.8617,4.8722,4.9109,4.9185,4.9185,4.9185,4.9185,4.9185,4.9185,4.9185,4.9185,4.9185,4.9301,4.9385,4.9385,4.9611,4.9826,4.9925,4.9963,4.9884,4.9768,4.9763,4.9693,4.9555,4.9453,4.9441,4.9584,4.9453,4.9385,4.937,4.9238,4.9185,4.9185,4.9185,4.9185,4.9185,4.9185,4.9185,2.6271,2.791,3.0101,3.1554,3.3475,3.5831,3.8826,3.9582,3.9873,4.0688,4.0735,4.0749,4.116,4.3202,4.4773,4.4552,4.5622,4.6634,4.733,4.7725,4.8191,4.8876,4.9248,4.9469,4.9469,4.9759,4.9903,4.9903,4.9903,5.022,5.0912,5.0981,5.1253,5.1883,5.1883,5.1883,5.1883,5.1883,5.1883,5.1883,5.1883,5.1883,5.1883,5.1883,5.1883,5.1883,5.1883,5.1883,5.1949,5.2207,5.2395,5.2573,5.1631,5.1355,5.1362,5.087,5.045,5.0089,5.0089,4.9055,4.777,4.777,4.7525,4.7205,4.7205,4.7545,4.7948,4.7948,4.8321,4.8722,4.8547,4.842,4.8305,4.8305,4.8448,4.864,4.8767,4.8991,4.9185,4.9185,4.9185,4.9185,4.9185,4.9185,4.9185,4.9185,4.9222,4.9269,4.937,4.9544,4.968,4.9784,4.9884,4.9924,4.9883,4.9883,4.9832,4.9699,4.9666,4.9666,4.9693,4.9555,4.9477,4.9385,4.9326,4.929,4.9185,4.9185,4.9185,4.9185,4.9185,4.9185,2.5244,2.6553,2.8298,3.0372,3.2034,3.3725,3.5894,3.6365,3.6326,3.6438,3.6153,3.6194,3.6965,3.9996,4.2549,4.3247,4.4108,4.4949,4.6023,4.6523,4.6929,4.711,4.7929,4.8422,4.8422,4.877,4.9025,4.9025,4.9025,4.9248,4.9935,4.9935,5.022,5.0779,5.1153,5.142,5.142,5.1752,5.1752,5.1387,5.1752,5.1883,5.1883,5.1883,5.1883,5.185,5.1324,5.1094,5.1029,5.047,5.0272,5.0237,4.9862,4.943,4.905,4.8475,4.8043,4.7746,4.7746,4.7146,4.6335,4.6605,4.6683,4.6722,4.6984,4.7311,4.7614,4.7614,4.7999,4.8357,4.7857,4.7863,4.7984,4.7984,4.8085,4.8294,4.8532,4.8789,4.9011,4.9165,4.9185,4.9185,4.9185,4.9185,4.9185,4.9185,4.9185,4.9222,4.9301,4.9402,4.9564,4.9673,4.9784,4.9884,4.9963,4.9963,4.9924,4.9832,4.9832,4.9832,4.9832,4.9699,4.9619,4.9544,4.9428,4.9326,4.9255,4.9204,4.9185,4.9185,4.9185,4.9185,2.5505,2.6083,2.6953,3.0093,3.0995,3.1404,3.2806,3.1369,2.9814,3.0096,2.9386,2.9311,3.141,3.4553,3.7925,4.1494,4.2217,4.2716,4.3781,4.4814,4.5098,4.4062,4.5881,4.716,4.722,4.8161,4.877,4.877,4.877,4.8801,4.8876,4.8876,4.8951,4.9025,4.9935,5.0393,5.0393,5.132,5.1288,5.0335,5.106,5.1424,5.1424,5.1523,5.1523,5.1424,5.0145,4.9588,4.9516,4.8074,4.7576,4.7636,4.7537,4.6995,4.6199,4.4722,4.4558,4.5075,4.5075,4.5075,4.5246,4.5851,4.6054,4.6213,4.6834,4.7312,4.7581,4.7581,4.7801,4.7888,4.7205,4.7312,4.7581,4.7581,4.7614,4.7801,4.8398,4.8532,4.8722,4.9051,4.9147,4.9185,4.9185,4.9185,4.9185,4.9185,4.9185,4.9185,4.9185,4.9285,4.9402,4.9564,4.968,4.9822,4.9924,4.9963,4.9963,4.9963,4.9963,4.9963,4.9963,4.9832,4.9768,4.9763,4.9544,4.9375,4.937,4.9255,4.9166,4.9185,4.9185,4.9185,2.2255,2.4269,2.6608,2.8186,2.9606,3.0943,3.2104,3.0588,2.8999,2.9119,2.8157,2.7747,2.9222,3.1546,3.4939,4.0148,4.0182,4.0261,4.2366,4.2188,4.2011,4.2603,4.4001,4.4899,4.4871,4.5974,4.6634,4.6634,4.6634,4.6959,4.7803,4.7803,4.8191,4.8951,4.9248,4.9322,4.9322,5.0361,4.9849,4.7897,4.7035,4.6733,4.6764,4.7742,4.8052,4.7748,4.7693,4.7874,4.8069,4.7095,4.709,4.7537,4.6393,4.5883,4.5613,4.4517,4.4558,4.5075,4.5075,4.5075,4.5246,4.5851,4.6054,4.6213,4.6834,4.7095,4.7169,4.7169,4.6878,4.6654,4.6948,4.7095,4.7169,4.7169,4.7415,4.7643,4.7796,4.8241,4.864,4.8708,4.8954,4.9185,4.9185,4.9185,4.9185,4.9185,4.9185,4.9185,4.9185,4.9285,4.9399,4.9415,4.9636,4.9772,4.9784,4.9883,4.9963,4.9963,4.9963,4.9963,4.9963,4.9924,4.9877,4.9768,4.9693,4.9546,4.937,4.9326,4.929,4.9185,4.9185,4.9185,2.1596,2.3823,2.5858,2.5345,2.6704,2.8133,2.8214,2.6969,2.5603,2.5177,2.4148,2.4043,2.6204,2.7763,3.0058,3.3966,3.5267,3.665,3.8853,3.9987,4.0586,4.0633,4.2713,4.413,4.4146,4.5186,4.5864,4.5864,4.5864,4.6115,4.6715,4.6715,4.6959,4.7567,4.8006,4.8268,4.8268,4.8255,4.7572,4.6318,4.553,4.5081,4.5113,4.5862,4.6006,4.5813,4.5342,4.5464,4.5923,4.485,4.4866,4.5571,4.4814,4.4486,4.4443,4.3964,4.3963,4.4267,4.4267,4.4267,4.4416,4.4971,4.5166,4.5257,4.5971,4.6137,4.6213,4.6491,4.6335,4.6137,4.6491,4.6834,4.7021,4.7021,4.7205,4.7415,4.7581,4.7918,4.8241,4.8546,4.8767,4.8991,4.9128,4.9185,4.9185,4.9185,4.9185,4.9185,4.9185,4.9238,4.9317,4.9385,4.9536,4.9693,4.9763,4.9879,4.9963,4.9963,4.9883,4.9883,4.9963,4.9963,4.9924,4.9875,4.9815,4.9687,4.9564,4.9428,4.9326,4.929,4.9204,4.9185,2.1667,2.3843,2.5128,2.3025,2.3785,2.4863,2.3944,2.2725,2.1518,2.0704,1.9889,2.0084,2.2866,2.3885,2.4705,2.6087,2.9209,3.2283,3.4702,3.7772,3.9526,3.8657,4.1469,4.3626,4.3821,4.4899,4.5696,4.5864,4.5864,4.5864,4.5864,4.5864,4.5864,4.5864,4.6715,4.699,4.6601,4.5359,4.4698,4.4698,4.4282,4.4051,4.4051,4.4268,4.4305,4.4193,4.3029,4.2992,4.3675,4.2372,4.2454,4.3368,4.3368,4.3368,4.3368,4.3368,4.3368,4.3368,4.3368,4.3368,4.3444,4.398,4.4115,4.4265,4.489,4.5075,4.5166,4.5636,4.5766,4.5809,4.5894,4.6335,4.6757,4.6757,4.6834,4.6985,4.7309,4.7479,4.7796,4.8423,4.8569,4.8708,4.9109,4.9185,4.9185,4.9185,4.9185,4.9185,4.9185,4.9185,4.9203,4.9326,4.9465,4.9573,4.9705,4.9832,4.9884,4.9924,4.9832,4.9832,4.9963,4.9963,4.9963,4.9963,4.9835,4.9772,4.9763,4.9564,4.9415,4.9385,4.9235,4.9185,1.9721,2.2671,2.5399,2.4272,2.4117,2.4249,2.4102,2.1765,1.965,1.9499,1.9352,1.9401,1.9889,2.0786,2.1478,2.1597,2.45,2.8129,3.2097,3.4655,3.644,3.7128,3.9464,4.1334,4.2369,4.3615,4.4813,4.578,4.5864,4.5864,4.5864,4.5864,4.5864,4.5864,4.6032,4.5092,4.2986,4.167,4.1027,4.1027,3.9896,3.929,3.9319,4.0497,4.0776,4.0351,4.0546,4.131,4.2271,4.139,4.1898,4.3368,4.3368,4.3368,4.3368,4.3368,4.3368,4.3368,4.3368,4.3368,4.3444,4.398,4.4115,4.4265,4.489,4.5075,4.4983,4.4558,4.4412,4.4558,4.5075,4.5302,4.5381,4.5381,4.5809,4.6219,4.63,4.699,4.7775,4.8178,4.8423,4.8708,4.9109,4.9185,4.9185,4.9185,4.9185,4.9185,4.9185,4.9185,4.9166,4.9204,4.9333,4.9453,4.9602,4.959,4.9673,4.9777,4.9879,4.9924,4.9963,4.9963,4.9963,4.9963,4.9924,4.9879,4.9763,4.9705,4.9573,4.9361,4.937,4.9285,1.9504,2.0837,2.2319,2.198,2.1798,2.1886,2.2237,2.1183,1.9938,1.9352,1.9255,1.9425,2.0011,2.0346,2.0954,2.2284,2.4116,2.6533,2.9901,3.2789,3.4933,3.5942,3.8154,3.9998,4.1124,4.232,4.3319,4.3826,4.4524,4.4899,4.4899,4.5527,4.5574,4.4934,4.4905,4.3761,4.1332,4.059,3.9955,3.9344,3.867,3.8034,3.7507,3.867,3.9039,3.8838,3.9097,3.9714,4.0553,4.0267,4.0865,4.1957,4.1957,4.1957,4.1957,4.1957,4.1957,4.2016,4.2454,4.2625,4.2738,4.3473,4.3685,4.3737,4.4047,4.4149,4.4098,4.3789,4.3878,4.4215,4.451,4.4843,4.5075,4.5075,4.5336,4.5636,4.6013,4.6424,4.699,4.7734,4.8007,4.8251,4.8767,4.887,4.8933,4.9128,4.9185,4.9185,4.9185,4.9185,4.9185,4.9185,4.9285,4.9375,4.9465,4.9389,4.9477,4.9759,4.9759,4.9784,4.9963,4.9963,4.9963,4.9963,4.9963,4.9924,4.9877,4.9819,4.9693,4.9602,4.9441,4.9341,2.0196,0.0,2.0947,2.0806,2.0785,2.0849,0.0,2.0986,2.0495,1.9474,1.9255,1.9448,2.0092,1.975,2.0026,2.1985,2.2725,2.4199,2.7354,2.9944,3.2286,3.4361,3.6422,3.8239,3.95,4.0483,4.1098,4.1459,4.2344,4.2899,4.2899,4.3761,4.3868,4.2951,4.2636,4.1514,3.9341,3.9145,3.8663,3.7873,3.7643,3.719,3.6402,3.719,3.7579,3.7579,3.7793,3.8227,3.8826,3.9258,3.985,4.049,4.074,4.0803,4.0803,4.0803,4.0803,4.0865,4.1477,4.1834,4.21,4.2826,4.317,4.3368,4.3368,4.3368,4.3368,4.3368,4.3612,4.3929,4.3929,4.4332,4.4688,4.4688,4.4783,4.4983,4.5514,4.5851,4.634,4.7202,4.7512,4.7832,4.8398,4.8497,4.8607,4.8907,4.8928,4.8928,4.8928,4.8991,4.9032,4.9032,4.9218,4.9326,4.9385,4.9285,4.9356,4.9659,4.9606,4.9693,4.9884,4.9924,4.9963,4.9963,4.9963,4.9963,4.9963,4.9875,4.9772,4.9699,4.9495,4.9399,0.0,2.346,2.4707,2.3844,2.3622,2.3419,2.2483,2.1495,0.0,1.9474,1.9255,1.9054,1.8536,1.7522,1.685,1.7034,1.708,1.8855,2.3743,2.4672,2.6698,3.1725,3.3398,3.5007,3.714,3.7394,3.8033,3.9204,3.9373,3.9457,3.9457,3.9541,3.9487,3.9405,3.829,3.6963,3.5618,3.5587,3.5559,3.5483,3.5451,3.5348,3.5348,3.5424,3.5424,3.5501,3.6402,3.6787,3.6891,3.8728,3.9397,3.9503,4.0427,4.0803,4.0803,4.0803,4.0803,4.0803,4.0865,4.1356,4.2042,4.21,4.2625,4.3368,4.3368,4.3368,4.3368,4.3368,4.3335,4.3389,4.3389,4.3444,4.3444,4.3444,4.3808,4.4215,4.4265,4.5212,4.6224,4.6627,4.7201,4.7775,4.8187,4.8206,4.8243,4.827,4.8298,4.8298,4.8298,4.8485,4.864,4.864,4.8954,4.9238,4.9356,4.937,4.9385,4.9389,4.9636,4.9763,4.9772,4.9883,4.9963,4.9963,4.9963,4.9963,4.9963,4.9963,4.9826,4.9602,4.9584,4.9415,2.1626,2.261,2.3557,2.3237,2.3247,2.3116,2.2513,2.2132,2.1378,1.9621,1.8929,1.8573,1.8316,1.7531,1.7713,2.0234,1.9661,2.0613,2.5442,2.5667,2.6474,2.9793,3.2286,3.4456,3.5942,3.6041,3.6197,3.676,3.7476,3.7884,3.7884,3.8654,3.776,3.4844,3.4907,3.4706,3.4183,3.4886,3.4886,3.4261,3.4886,3.4886,3.4261,3.4886,3.5195,3.5195,3.5577,3.5776,0.0,3.7221,3.7719,3.7761,3.8847,3.9214,3.9214,3.9214,3.9214,3.9281,3.9846,4.0203,4.049,4.1112,4.1508,4.1898,4.2364,4.2133,4.1779,4.1779,4.2133,4.2479,4.2479,4.2915,4.3368,4.3368,4.3518,4.3737,4.4015,4.451,4.5132,4.6113,4.6502,4.6881,4.7707,4.7832,4.7924,4.8159,4.8215,4.8215,4.8215,4.8288,4.8435,4.8593,4.8745,4.8916,4.9238,4.9255,4.9285,4.9385,4.9477,4.9573,4.9763,4.9784,4.9879,4.9963,4.9963,4.9963,4.9963,4.9879,4.9754,4.9584,4.9489,4.9413,2.2495,2.2836,2.3402,2.3482,2.3855,2.3897,2.2579,2.2656,2.2247,1.9509,1.8573,1.8109,1.769,1.716,1.7788,2.0833,2.0463,2.1362,2.5736,2.5767,2.621,2.8618,3.0512,3.2216,3.3687,3.4141,3.4361,3.4361,3.5058,3.553,3.553,3.6386,3.5352,3.214,3.2811,3.3112,3.3112,3.3891,3.3891,3.3112,3.3891,3.3812,3.3193,3.3866,3.4183,3.4183,3.4575,3.4497,3.434,3.6029,3.6577,3.6402,3.7721,3.8274,3.8274,3.8274,3.8274,3.8384,3.8876,3.9222,3.9554,4.0203,4.0552,4.0927,4.1477,4.105,4.0425,4.074,4.1234,4.1656,4.1893,4.2421,4.2971,4.3258,4.3368,4.3444,4.3808,4.3998,4.4412,4.5257,4.5766,4.63,4.7026,4.7274,4.7515,4.777,4.7832,4.7832,4.7832,4.7954,4.8122,4.8423,4.8546,4.8722,4.8954,4.9109,4.924,4.9317,4.9356,4.9465,4.9644,4.9743,4.9784,4.9883,4.9924,4.9963,4.9963,4.9829,4.9743,4.9636,4.9453,4.9356,2.4811,2.5038,2.5038,2.5038,2.6041,2.6145,2.2886,2.3124,2.3002,1.905,1.8264,1.7773,1.6349,1.6095,1.638,1.718,1.8071,1.9907,2.359,2.3901,2.4977,2.8368,2.7766,2.7933,3.0266,3.1481,3.2008,3.2115,3.2115,3.2115,3.2115,3.2115,3.2115,3.2115,3.2115,3.2115,3.2115,3.2115,3.2115,3.2115,3.2115,3.2115,3.2115,3.2115,3.2115,3.2115,3.3193,3.3031,3.2341,3.5424,3.6104,3.5424,3.7478,3.8274,3.8274,3.8274,3.8274,3.8274,3.8274,3.8808,3.9421,3.9421,4.0075,4.0834,4.0834,4.0139,3.9619,4.0552,4.0834,4.0989,4.1775,4.1952,4.2217,4.3115,4.3313,4.3313,4.3313,4.3737,4.4115,4.4115,4.5201,4.6054,4.6054,4.6605,4.7021,4.7021,4.7021,4.7021,4.7021,4.7381,4.7739,4.8159,4.8435,4.8593,4.8617,4.8933,4.9185,4.9185,4.9317,4.9385,4.937,4.9628,4.9763,4.9763,4.9881,4.9963,4.9963,4.9829,4.9763,4.9759,4.9474,4.928,2.4962,2.5038,2.5038,2.5038,2.6041,2.6167,2.2875,2.2623,2.1946,1.8075,1.6264,1.5378,1.5219,1.4811,1.5559,1.8784,1.8488,1.9231,2.3268,2.3988,2.4699,2.6125,2.7414,2.8658,3.0199,3.065,3.1202,3.2008,3.2115,3.2115,3.2115,3.2115,3.2115,3.2115,3.2115,3.2115,3.2115,3.2115,3.2115,3.2115,3.2115,3.2115,3.2115,3.2115,3.2115,3.2115,3.2424,3.2341,3.2174,3.3891,3.434,3.4261,3.5577,3.6104,3.6179,3.6944,3.6724,3.6327,3.7793,3.7976,3.7706,3.8395,3.8838,3.9042,3.9042,3.8838,3.8701,3.8974,3.9042,3.9214,4.001,4.0709,4.1234,4.1508,4.1568,4.1688,4.2249,4.2527,4.2908,4.3964,4.4461,4.4843,4.5336,4.5929,4.6371,4.6371,4.6757,4.7021,4.7021,4.7169,4.7346,4.7775,4.7857,4.8036,4.8315,4.8607,4.8767,4.8767,4.9053,4.9269,4.937,4.9516,4.9636,4.9636,4.9835,4.9922,4.9826,4.9697,4.9636,4.9636,4.9356,4.9222,2.5038,2.5038,2.5038,2.5038,2.6054,2.6134,2.2931,2.2485,2.1555,1.7436,1.543,1.4411,1.4364,1.4312,1.5435,1.9044,1.9224,2.0095,2.3258,2.4198,2.4933,2.5816,2.7065,2.8549,3.0214,2.9867,3.0323,3.1924,3.2115,3.2115,3.2115,3.2115,3.2115,3.2115,3.2115,3.2115,3.2115,3.2115,3.2115,3.2115,3.2115,3.2115,3.2115,3.2115,3.2115,3.2115,3.2115,3.2115,3.2174,3.3193,3.3652,3.3732,3.4809,3.5195,3.5271,3.5879,3.5728,3.5348,3.6651,3.6944,3.6871,3.7478,3.7407,3.7017,3.7017,3.7335,3.765,3.765,3.7963,3.8384,3.8876,3.965,4.0362,4.0771,4.0803,4.105,4.1834,4.1952,4.2357,4.3599,4.3998,4.4265,4.4654,4.5246,4.568,4.568,4.6013,4.6335,4.6644,4.6644,4.6877,4.7548,4.7614,4.7743,4.7954,4.8251,4.846,4.846,4.8745,4.8957,4.9072,4.9337,4.95,4.95,4.9687,4.9777,4.9763,4.9595,4.9522,4.9584,4.9301,4.9185,2.5038,2.5038,2.5038,2.5038,2.59,2.6049,2.2935,2.2494,2.1443,1.6852,1.5197,1.4425,1.3726,1.4427,1.5866,1.8268,2.0179,2.1925,2.3634,2.4637,2.5565,2.6508,2.6784,2.7652,2.978,2.9014,2.9366,3.1756,3.1924,3.1924,3.1924,3.2008,3.2115,3.2115,3.1948,3.1924,3.2115,3.1924,3.1948,3.2115,3.2115,3.2115,3.2115,3.2115,3.2115,3.2115,3.2115,3.2115,3.2174,3.3112,3.3491,3.3572,3.4497,3.4886,3.4886,3.5041,3.4964,3.4964,3.5118,3.5728,3.6476,3.6577,3.5954,3.5195,3.5195,3.5879,3.6577,3.6577,3.7262,3.8034,3.8104,3.8671,3.9421,4.0362,4.0552,4.0803,4.1596,4.1775,4.2042,4.2915,4.3546,4.3964,4.3964,4.4558,4.4983,4.4983,4.5029,4.5336,4.6013,4.6054,4.646,4.7377,4.7548,4.7509,4.74,4.7705,4.7865,4.7719,4.7955,4.8148,4.8172,4.8788,4.9107,4.9116,4.9436,4.9636,4.9759,4.9504,4.9471,4.9584,4.9317,4.9204,2.5038,2.5038,2.5038,2.5038,2.59,2.5886,2.2171,2.142,2.0171,1.5196,1.3851,1.3205,1.2037,1.4104,1.661,1.8363,2.0672,2.2884,2.4526,2.5689,2.6159,2.5565,2.6251,2.7038,2.7562,2.7311,2.8192,3.0495,3.0667,3.0667,3.0667,3.1564,3.2115,3.2115,3.1202,3.1117,3.2115,3.1202,3.1202,3.2115,3.2115,3.2115,3.2115,3.2115,3.2115,3.2115,3.2115,3.2115,3.2115,3.2341,3.2424,3.2424,3.2646,3.2729,3.2811,3.3652,3.3411,3.2949,3.4653,3.4809,3.4419,3.5271,3.5348,3.5195,3.5195,3.5348,3.5501,3.5501,3.5652,3.6029,3.6871,3.7234,3.7564,3.8603,3.8838,3.9012,3.9816,3.998,4.0267,4.1205,4.192,4.2438,4.2438,4.3466,4.4363,4.4363,4.4749,4.5336,4.6013,4.6054,4.6137,4.638,4.6839,4.6668,4.5451,4.5708,4.5371,4.4018,4.43,4.4632,4.4908,4.6344,4.7194,4.7385,4.8824,4.9602,4.959,4.9536,4.9553,4.9584,4.9426,4.929,2.5038,2.5038,2.5038,2.5038,2.5565,2.5328,2.2834,2.2039,2.0653,1.6366,1.5072,1.4112,1.2176,1.4579,1.7274,1.8457,2.1185,2.3558,2.4849,2.5565,2.5733,2.5133,2.6086,2.6855,2.6855,2.6855,2.7562,2.9344,2.897,2.8881,2.9431,3.0064,3.0432,3.0432,2.9803,2.9803,3.0346,2.9803,2.9803,3.0432,3.0432,3.0432,3.0432,3.0946,3.1202,3.1286,3.184,3.2115,3.2115,3.2115,3.2115,3.2115,3.2115,3.2115,3.2115,3.2646,3.2564,3.2258,3.333,3.3652,3.3652,3.3732,3.3732,3.3732,3.3732,3.4024,3.4419,3.4419,3.4809,3.5348,3.5879,3.6029,3.6104,3.6651,3.719,3.7693,3.8029,3.8855,3.975,4.0615,4.1112,4.1537,4.1893,4.2608,4.3267,4.3651,4.4047,4.448,4.5029,4.4809,4.4822,4.5514,4.5505,4.515,4.4336,4.4021,4.3528,4.2628,4.287,4.3248,4.3649,4.4678,4.5356,4.5632,4.6567,4.709,4.7122,4.7142,4.757,4.8459,4.8232,4.8146,2.4679,2.483,2.5038,2.5038,2.5038,2.4773,2.3766,2.2988,2.1646,1.8375,1.7179,1.5942,1.3431,1.5783,1.8344,1.8938,2.2042,2.4602,2.5171,2.5361,2.5361,2.5076,2.5919,2.6508,2.6508,2.6508,2.6967,2.8235,2.715,2.7058,2.8213,2.8303,2.8392,2.857,2.857,2.857,2.857,2.8392,2.8392,2.857,2.857,2.857,2.8592,2.9606,3.0041,3.0041,3.1032,3.1503,3.1503,3.1503,3.1588,3.1732,3.1732,3.1924,3.2115,3.2115,3.2115,3.2115,3.2115,3.2646,3.3168,3.215,3.1924,3.2115,3.2115,3.2646,3.333,3.333,3.3945,3.4653,3.4886,3.4886,3.4964,3.5118,3.5879,3.6476,3.6476,3.7649,3.8961,3.9915,4.0331,4.0803,4.1477,4.1775,4.2217,4.2971,4.3115,4.3345,4.4048,4.3053,4.2721,4.3883,4.352,4.3165,4.2999,4.2284,4.1745,4.1527,4.1728,4.2007,4.2402,4.3059,4.3543,4.3806,4.4139,4.4398,4.4517,4.4525,4.5313,4.6771,4.6577,4.65,2.3397,2.4109,2.5038,2.5038,2.5038,2.4714,2.3094,2.2637,2.1798,1.9097,1.84,1.7729,1.551,1.8225,2.0658,2.0395,2.402,2.6766,2.6177,2.6709,2.6614,2.5209,2.5227,2.5302,2.5302,2.5302,2.5826,2.6967,2.6012,2.5826,2.7038,2.7038,2.7492,2.857,2.857,2.857,2.857,2.7583,2.7583,2.857,2.857,2.857,2.857,2.8748,2.8837,2.8837,2.8925,2.9014,2.9014,2.9014,2.9629,3.0558,3.0558,3.1202,3.2115,3.2115,3.2115,3.2115,3.2115,3.2174,3.2067,3.0923,3.1202,3.2115,3.2115,3.2174,3.2258,3.2258,3.2424,3.2729,3.3652,3.3891,3.4024,3.4964,3.5271,3.5424,3.5424,3.5549,3.6076,3.7105,3.8583,3.9685,3.9785,4.1019,4.201,4.2159,4.2159,4.264,4.3964,4.1357,3.9503,3.9662,4.0607,4.0836,3.9916,3.9742,3.9243,3.8209,3.8192,3.8367,3.8796,4.0475,4.1509,4.1796,4.3472,4.4398,4.4517,4.4631,4.4819,4.5025,4.5,4.4959,2.1379,2.2095,2.2824,2.2824,2.3307,2.351,2.2048,2.2845,2.3134,2.0335,1.9757,1.9018,1.6644,1.8086,1.9481,1.8886,2.2188,2.4791,2.4445,2.5346,2.5855,2.5133,2.5038,2.5038,2.5038,2.5038,2.5302,2.5826,2.466,2.4471,2.5826,2.5826,2.6086,2.6548,2.6641,2.6641,2.6641,2.6086,2.6086,2.6641,2.6641,2.6641,2.6641,2.7332,2.7583,2.7583,2.8303,2.857,2.857,2.857,2.9256,3.03,2.9606,3.0432,3.1924,3.0604,3.0495,3.1032,3.0346,3.0087,3.0173,3.03,3.0667,3.1202,3.184,3.2115,3.2115,3.2115,3.2115,3.2174,3.2646,3.2729,3.2868,3.333,3.3866,3.434,3.434,3.4809,3.5348,3.5804,3.696,3.8099,3.8622,3.9755,4.0492,4.0256,4.0248,4.0221,4.0096,3.8349,3.7455,3.8235,3.8352,3.8403,3.8316,3.8053,3.7737,3.7231,3.7411,3.7671,3.8065,3.9061,3.969,3.9994,4.1012,4.1623,4.1689,4.1741,4.2284,4.3285,4.3274,4.3258,1.9614,2.0282,2.0794,2.0971,2.1705,2.2175,2.1215,2.2517,2.3383,2.1166,2.0519,1.975,1.7718,1.8104,1.8618,1.8194,2.1187,2.3509,2.3298,2.4391,2.4992,2.4564,2.4222,2.4127,2.4508,2.4222,2.4336,2.5038,2.4109,2.3995,2.5038,2.5038,2.5038,2.5038,2.5038,2.5038,2.5038,2.5038,2.5038,2.5038,2.5038,2.5038,2.5133,2.5993,2.6344,2.6436,2.7332,2.7695,2.7695,2.7695,2.8392,2.9344,2.8481,2.9366,3.097,2.919,2.9102,2.9693,2.8213,2.7875,2.8303,2.9168,2.9693,3.0041,3.0946,3.1225,3.1225,3.1225,3.1225,3.1225,3.1225,3.1395,3.1648,3.1648,3.2457,3.3275,3.3275,3.3891,3.4497,3.4731,3.5424,3.6226,3.7192,3.8347,3.8875,3.8241,3.8392,3.7711,3.5302,3.4633,3.4949,3.6417,3.611,3.6114,3.6925,3.6704,3.6627,3.6731,3.6996,3.7375,3.7792,3.806,3.8341,3.8648,3.9049,3.921,3.921,3.9308,4.0072,4.1427,4.1484,4.1547,1.8429,1.9272,2.0389,2.0858,2.1019,2.1117,2.1019,2.1133,2.1199,2.102,2.0409,1.9633,1.9023,1.9373,1.9884,2.0159,2.3069,2.5068,2.4346,2.4978,2.4872,2.3237,2.19,2.1705,2.2869,2.19,2.2323,2.483,2.5038,2.5019,2.5038,2.5038,2.5038,2.5038,2.5038,2.5038,2.5038,2.5038,2.5038,2.5038,2.5038,2.5038,2.5038,2.5133,2.5227,2.5227,2.5208,2.5208,2.5208,2.5208,2.5919,2.7038,2.6946,2.7673,2.8748,2.857,2.857,2.8324,2.6012,2.5993,2.6946,2.6946,2.7764,2.8659,2.8748,2.8748,2.8748,2.8748,2.8748,2.8748,2.8748,2.9606,3.0386,3.0386,3.1286,3.2174,3.2174,3.2174,3.2482,3.3491,3.3732,3.4104,3.5168,3.6904,3.7771,3.6487,3.715,3.5838,3.0451,3.0229,3.1173,3.2772,3.3448,3.4268,3.5373,3.5501,3.5671,3.6163,3.62,3.6452,3.6968,3.7273,3.762,3.8117,3.8391,3.855,3.855,3.8932,3.9186,3.9421,3.9681,3.9805,1.6844,1.7393,1.7823,1.8331,1.9177,1.9563,1.8688,1.9762,2.0723,1.9962,1.9468,1.9294,1.9033,1.8503,1.8117,1.8253,2.0026,2.1506,2.2069,2.3135,2.391,2.4278,2.3096,2.279,2.4204,2.1542,2.0838,2.3499,2.369,2.369,2.369,2.4603,2.5038,2.5038,2.5038,2.5038,2.5038,2.5038,2.5038,2.5038,2.5038,2.5038,2.5038,2.5038,2.5038,2.5038,2.5038,2.5038,2.5038,2.5038,2.5733,2.6784,2.5993,2.6896,2.8414,2.6896,2.6804,2.722,2.5659,2.5397,2.5826,2.66,2.7129,2.7583,2.8303,2.857,2.857,2.857,2.857,2.857,2.857,2.8925,2.919,2.919,3.0064,3.0923,3.0923,3.1564,3.2174,3.2564,3.2075,3.1974,3.3011,3.3177,3.3018,3.2376,3.2599,3.1995,2.9611,2.9538,3.0311,3.1867,3.2281,3.2723,3.3542,3.4326,3.4808,3.5015,3.5305,3.5799,3.6416,3.6279,3.6641,3.7563,3.7838,3.8174,3.8469,3.8789,3.9056,3.9259,3.9545,3.9636,1.5754,1.5968,1.6075,1.6452,1.7506,1.8196,1.7319,1.8399,1.9463,1.8587,1.8399,1.8399,1.8399,1.7715,1.7114,1.7114,1.8196,1.9363,2.0244,2.1117,2.2014,2.2939,2.1836,2.1721,2.3516,2.0854,1.9946,2.2094,2.2289,2.2482,2.2869,2.3786,2.4603,2.5038,2.5038,2.5038,2.5038,2.4622,2.4394,2.4318,2.3918,2.3918,2.4413,2.483,2.5038,2.5038,2.5038,2.5038,2.5038,2.5038,2.5565,2.6178,2.5397,2.6012,2.717,2.5678,2.5565,2.6086,2.5397,2.5038,2.5227,2.5993,2.6271,2.6344,2.717,2.7353,2.7353,2.7353,2.7353,2.7353,2.7353,2.7695,2.7944,2.7944,2.8903,2.9693,2.9693,3.0323,3.0937,3.0965,3.0401,3.02,3.0893,3.0436,3.0061,3.0227,2.9937,2.9245,2.8225,2.8372,2.9186,3.0646,3.103,3.1513,3.222,3.3242,3.3847,3.3847,3.414,3.4615,3.5219,3.5181,3.5606,3.6586,3.7156,3.7632,3.7983,3.8499,3.8862,3.906,3.9466,3.965,1.5431,1.5366,1.5321,1.5321,1.6244,1.7075,1.7075,1.7075,1.7075,1.7114,1.7114,1.7114,1.7114,1.7114,1.7114,1.7114,1.8196,1.8976,1.9076,1.9076,1.9076,1.9076,1.8007,1.8196,2.0739,1.9762,1.9563,2.0822,2.0921,2.1509,2.2772,2.2869,2.3576,2.4925,2.5038,2.5038,2.5038,2.369,2.2869,2.2869,2.1607,2.1705,2.2869,2.4318,2.4944,2.4944,2.4944,2.4944,2.4944,2.4944,2.4944,2.5038,2.5038,2.5038,2.5038,2.5038,2.5038,2.5038,2.5038,2.5038,2.5038,2.5038,2.5038,2.5038,2.5038,2.5038,2.5038,2.5038,2.5038,2.5038,2.5038,2.59,2.6763,2.6763,2.7673,2.8481,2.8481,2.8549,2.8529,2.872,2.8657,2.8716,2.8889,2.8821,2.9169,3.0189,2.9266,2.7741,2.5844,2.6465,2.7577,2.8988,2.9828,3.0555,3.137,3.2087,3.2586,3.2636,3.2586,3.2839,3.3397,3.4007,3.4615,3.5158,3.6312,3.6901,3.6935,3.7983,3.8548,3.8697,3.9357,3.9653,1.6527,1.5992,1.5321,1.5321,1.5553,1.5881,1.5881,1.5881,1.6114,1.6945,1.7114,1.7114,1.7114,1.7114,1.7114,1.7114,1.7408,1.8007,1.8875,1.9076,1.9363,2.0344,1.9262,1.8789,1.9563,1.9277,1.9177,1.9563,2.0443,2.0739,2.0145,2.19,2.3079,2.3481,2.4508,2.4603,2.3576,2.3157,2.2482,2.1509,2.1117,2.1215,2.1509,2.1917,2.2128,2.2128,2.2128,2.2128,2.2128,2.2128,2.271,2.3481,2.3481,2.4204,2.4925,2.39,2.3481,2.369,2.4716,2.5038,2.5038,2.5038,2.5038,2.5038,2.5038,2.5038,2.5038,2.5038,2.5038,2.5038,2.5038,2.5302,2.5565,2.5565,2.6436,2.7311,2.7311,2.7521,2.776,2.7749,2.6632,2.5871,2.66,2.6066,2.5925,2.6851,2.6146,2.5308,2.4774,2.6046,2.7377,2.8379,2.8681,2.9071,2.9857,3.0056,3.0643,3.1867,3.1323,3.1528,3.279,3.3066,3.3618,3.4573,3.5795,3.6661,3.7207,3.8075,3.8714,3.9124,3.9476,3.9653,1.48,1.4115,1.3725,1.4206,1.4154,1.4348,1.5803,1.5556,1.5439,1.6829,1.7114,1.7114,1.7114,1.7114,1.7114,1.7114,1.7114,1.7408,1.8095,1.8196,1.8486,1.9277,1.8688,1.8196,1.8196,1.8196,1.8196,1.8196,1.8976,1.9277,1.9076,2.0443,2.1607,2.2094,2.2921,2.3018,2.2094,2.1607,2.0936,2.0145,1.9663,1.9663,2.0145,2.0145,2.0443,2.1019,2.1019,2.1019,2.1019,2.1019,2.1411,2.2094,2.2094,2.2596,2.3228,2.2403,2.2094,2.2289,2.369,2.4204,2.4299,2.483,2.4622,2.4204,2.4204,2.4204,2.4204,2.4204,2.4204,2.4204,2.4204,2.3804,2.3516,2.4013,2.4453,2.4833,2.5419,2.5452,2.5376,2.5495,2.4515,2.3945,2.4515,2.4118,2.3874,2.4452,2.4083,2.3874,2.4245,2.5246,2.6219,2.706,2.7149,2.7441,2.8311,2.8621,2.9189,3.0171,3.0057,3.0197,3.0782,3.1702,3.2543,3.3163,3.4658,3.5955,3.6972,3.7812,3.8504,3.9201,3.9462,3.9254,1.1783,1.1183,1.1482,1.2297,1.2227,1.2658,0.0,1.5154,1.4604,1.6192,1.6595,1.6673,1.6803,1.6881,1.6971,1.7101,1.7114,1.7114,1.7114,1.7114,1.7114,1.7114,1.7114,1.7114,1.7114,1.7114,1.7114,1.7114,1.7114,1.7613,1.8789,1.8976,1.9563,2.0739,2.0921,2.0921,2.0739,1.9663,1.8976,1.8789,1.7613,1.7701,1.8789,1.8789,1.9463,2.0542,2.0542,2.0542,2.0542,2.0542,2.064,2.0739,2.0739,2.0739,2.0542,2.0723,2.0739,2.0921,2.2289,2.2676,2.2983,2.4222,2.3804,2.2676,2.2676,2.2869,2.2869,2.2772,2.2869,2.2869,2.2772,2.19,2.1297,2.2379,2.2129,2.1917,2.2987,2.2671,2.2263,2.2376,2.2372,2.2531,2.2751,2.2744,2.2744,2.2601,2.2672,2.3029,2.3874,2.4083,2.4521,2.5429,2.552,2.5897,2.6764,2.7504,2.8003,2.8188,2.8736,2.8796,2.8188,3.034,3.1513,3.1528,3.3489,3.517,3.6579,3.7416,3.8269,3.9111,3.9274,3.8625,0.0,0.0,0.0,0.0,0.0,0.0,0.0,1.1404,1.1521,1.2788,1.3402,1.3933,1.4944,1.5413,1.6049,1.6971,1.7114,1.7114,1.7114,1.7114,1.7114,1.7114,1.7114,1.7114,1.7114,1.7114,1.7114,1.7114,1.7114,1.7217,1.7511,1.85,1.9177,1.9463,2.0443,2.0443,1.9463,1.9177,1.85,1.7511,1.7217,1.7217,1.7511,1.7511,1.7613,1.7905,1.7905,1.7905,1.7905,1.7905,1.85,1.9463,1.9463,1.8789,1.8007,1.9076,1.9463,1.9663,2.0921,2.1411,2.1411,2.1721,2.1624,2.1411,2.1411,2.2094,2.2676,2.1705,2.2094,2.2676,2.1607,2.1215,2.0972,2.0803,2.065,2.0479,2.0167,2.0147,2.0234,2.0235,2.0419,2.0841,2.1533,2.1711,2.1419,2.072,2.1219,2.1784,2.1909,2.2651,2.3524,2.4452,2.4589,2.4931,2.5831,2.6096,2.67,2.8126,2.7754,2.7692,2.8188,2.9714,3.0857,3.1445,3.3833,3.5638,3.6842,3.7965,3.8795,3.9394,3.8907,3.8205,0.0,0.0,0.0,0.0,0.0,0.0,0.0,0.0,0.0,0.0,0.0,1.2166,1.2924,0.0,1.4695,1.5508,1.6436,1.7114,1.7114,1.7114,1.7114,1.7114,1.7114,1.7114,1.7114,1.7114,1.7114,1.7114,1.7114,1.7114,1.7114,1.7701,1.8095,1.8095,1.8688,1.8789,1.8108,1.8095,1.7701,1.7114,1.7114,1.7114,1.7114,1.7114,1.7114,1.7114,1.7114,1.7114,1.7114,1.7114,1.7511,1.8095,1.8095,1.7701,1.7217,1.7803,1.8095,1.8297,1.9563,2.0046,2.0145,2.0822,2.0526,2.0046,2.0046,1.9884,1.9561,1.8899,1.8632,1.835,1.7702,1.7473,1.7526,1.7853,1.8106,1.8233,1.857,1.8457,1.8266,1.8266,1.8374,1.8792,1.9762,1.9913,1.9932,2.0045,2.0421,2.0849,2.1345,2.1857,2.2336,2.2898,2.2921,2.3327,2.4215,2.4305,2.5022,2.6778,2.6957,2.7213,2.7566,2.9071,3.0336,3.1445,3.3333,3.5195,3.6925,3.7856,3.8712,3.9416,3.7849,3.6075,0.0,0.0,0.0,0.0,0.0,0.0,0.0,0.0,0.0,0.0,0.0,0.0,0.0,0.0,0.0,1.3609,1.5291,1.6679,1.6678,1.6703,1.6703,1.6703,1.6909,1.7114,1.7114,1.7114,1.7114,1.7114,1.7114,1.7114,1.7114,1.7114,1.7114,1.7114,1.6806,1.6806,1.7114,1.6806,1.6806,1.7114,1.7114,0.0,1.7114,1.7114,1.7114,1.7114,1.7114,1.7114,1.7114,1.7114,1.7114,1.7114,1.6806,1.6703,1.6691,1.6382,1.6485,1.6793,1.7878,1.8472,1.8875,1.9962,1.9563,1.8688,1.8688,1.7824,0.0,1.6527,1.5605,1.4591,1.4315,1.4203,1.432,1.5257,1.57,1.6029,1.6797,1.6763,1.6547,1.6294,1.661,1.7257,1.827,1.8098,1.8148,1.894,1.963,2.0081,2.0135,2.0517,2.0916,2.123,2.1282,2.1757,2.3066,2.2544,2.2862,2.4606,2.516,2.5342,2.5229,2.6439,2.7762,2.923,3.1351,3.3728,3.6189,3.7464,3.8474,3.9142,3.5629,3.2582,0.0,0.0,0.0,0.0,0.0,0.0,0.0,0.0,0.0,0.0,0.0,0.0,0.0,0.0,0.0,0.0,1.3594,1.49,1.5162,1.522,1.522,1.522,1.6382,1.7114,1.7114,1.7114,1.7114,1.7114,1.7114,1.7114,1.7114,1.7114,0.0,0.0,0.0,1.5853,1.7114,1.5853,1.5853,1.7114,1.7114,1.7114,1.7114,1.7114,1.7114,1.7114,1.7114,1.7114,1.7114,1.7114,1.7114,1.7012,1.575,1.522,1.5013,1.3751,1.4064,1.522,1.5416,0.0,0.0,1.7511,1.7408,1.7319,1.7319,1.7668,1.7845,1.6633,1.6652,1.6706,1.5466,1.5215,1.5087,1.4813,1.4731,1.4374,1.3021,1.4191,1.5204,1.4164,1.5546,1.7257,1.827,1.6862,1.5566,1.5674,1.8152,1.8996,1.6201,1.7566,1.9119,1.9966,2.0001,0.0,2.39,2.1079,1.9799,2.1387,2.0291,1.9384,1.8921,1.886,1.9562,2.1136,2.6395,3.0609,3.3664,3.696,3.8534,3.8274,3.1023,2.7236,0.0,0.0,0.0,0.0,0.0,0.0,0.0,0.0,0.0,0.0,0.0,0.0,0.0,0.0,0.0,0.0,1.1927,1.2609,1.1933,1.2799,1.3856,1.4875,1.5543,1.6175,1.7012,1.7114,1.7114,1.7114,1.7114,1.7114,1.7114,1.7114,1.7114,1.7114,1.6485,1.6485,1.7114,1.6485,1.6485,1.7114,1.7114,1.7114,1.7114,1.7114,1.7114,1.7114,1.7114,1.7114,1.7114,1.7114,1.7114,1.6909,0.0,0.0,0.0,0.0,1.5013,1.6175,1.6175,1.6588,1.7062,1.6738,1.6634,1.6569,1.6231,1.5605,1.484,1.3646,1.2801,1.2134,1.1553,1.1915,1.2581,1.2973,1.359,1.3862,1.3123,1.3647,1.4218,1.3716,1.3879,0.0,1.6388,1.5896,1.5462,1.6077,1.7338,1.7738,1.6361,1.6956,1.7541,1.7368,1.7928,1.9009,2.0864,2.014,0.0,0.0,0.0,2.0436,1.8976,2.0968,0.0,0.0,0.0,2.8796,3.4254,3.3743,0.0,0.0,2.3504,2.0797,0.0,0.0,0.0,0.0,0.0,0.0,0.0,0.0,0.0,0.0,0.0,0.0,0.0,0.0,0.0,0.0,0.9667,1.035,0.9233,1.0535,1.2066,1.3261,1.4153,1.5111,1.6044,1.6285,1.6322,1.6472,1.6163,1.5957,1.5957,1.6279,1.6485,1.6485,1.6485,1.6703,1.7114,1.6691,1.6691,1.7114,1.7114,1.7114,1.7114,1.7114,1.6909,1.6485,1.6485,1.6279,1.5957,1.5957,1.5957,1.5738,1.3501,1.2414,1.2301,1.3518,1.4388,1.5106,1.552,1.6034,1.6482,1.5474,1.5349,1.5467,1.4677,1.3436,1.2211,1.1303,1.0112,0.9044,0.9044,0.9635,1.0485,1.1333,1.2153,1.2649,1.2307,1.2472,1.2731,1.2731,1.2082,1.2165,1.415,1.4719,1.4994,1.5504,1.6311,1.6578,1.572,1.6076,1.6217,1.555,1.6168,1.7122,1.846,1.8265,1.8288,1.8754,1.9906,1.9775,1.8021,2.1171,2.3904,2.5828,2.5399,2.7634,0.0,0.0,0.0,0.0,0.0,0.0,0.0,0.0,0.0,0.0,0.0,0.0,0.0,0.0,0.0,0.0,0.0,0.0,0.0,0.0,0.0,0.0,0.0,0.0,0.79,0.8856,0.9518,0.9353,1.2182,1.4109,1.3738,1.4102,1.4499,1.4978,1.3751,1.3017,1.3017,1.4273,1.5013,1.5013,1.5013,1.575,1.7114,1.575,1.575,1.7114,1.7114,1.7114,1.7114,1.7114,1.6382,1.5013,1.5013,1.4273,1.3017,1.3017,1.3017,1.2872,1.2319,1.1362,1.0432,1.1118,1.0693,0.9946,1.1379,1.3375,1.5081,1.2861,1.2955,1.3622,1.2547,1.1658,1.1125,1.1125,1.0642,1.0234,1.0234,1.0308,1.0318,1.0308,1.0402,1.0056,0.895,0.9635,1.0392,1.0392,1.0392,1.0737,1.1927,1.2966,1.3311,1.2326,1.4851,0.0,1.259,1.4068,1.5379,1.5365,1.5365,1.6183,1.8114,1.4975,1.3962,1.6494,1.5363,1.437,1.3628,1.5636,1.7016,1.7442,2.4106,2.7186,2.6498,0.0,0.0,0.0,0.0,0.0,0.0,0.0,0.0,0.0,0.0,0.0,0.0,0.0,0.0,0.0,0.0,0.0,0.0,0.0,0.0,0.0,0.0,0.0,0.0,0.6798,0.7751,0.8617,1.0028,1.0988,1.1371,1.1844,1.2209,1.2361,1.3349,1.3996,1.3996,1.5559,1.6382,1.6382,1.6382,1.6588,1.7114,1.66,1.66,1.7114,1.6175,1.5647,1.5647,1.4701,1.396,1.3541,1.3541,1.3227,1.2807,1.2807,1.1551,0.9479,0.9257,0.9023,0.8722,0.9946,1.0562,1.1056,1.1699,1.2933,1.4018,1.2003,1.1717,1.1846,1.1103,1.0728,1.0438,0.9656,0.9309,0.9119,0.9119,0.9119,0.9382,1.014,1.0308,1.0224,0.9803,1.0056,1.0308,1.0308,1.0016,0.9907,1.033,1.2184,1.3128,1.1622,1.3279,1.4311,1.3207,1.3091,1.3168,1.3168,1.3798,1.4488,1.5088,1.5364,1.5226,1.4631,1.5489,1.5612,1.4617,1.7801,1.9862,2.0444,2.4833,2.6073,2.4054,0.0,0.0,0.0,0.0,0.0,0.0,0.0,0.0,0.0,0.0,0.0,0.0,0.0,0.0,0.0,0.0,0.0,0.0,0.0,0.0,0.0,0.0,0.0,0.0,0.0,0.0,0.813,0.8549,0.0,0.9742,0.9816,0.9776,0.9865,1.0876,1.1597,1.1828,1.3376,1.4306,1.4565,1.5076,1.5372,1.5463,1.5463,1.5456,1.5543,1.4701,1.4169,1.4169,1.3227,1.2596,1.205,1.2017,1.1641,1.1121,1.1086,0.9598,0.7496,0.784,0.7576,0.7229,0.9074,0.9993,1.039,1.1125,1.1686,1.1825,1.1083,1.0321,0.973,0.9382,0.8689,0.7923,0.7633,0.7418,0.7501,0.7857,0.804,0.8211,0.8976,0.9146,0.9146,0.9146,0.8919,0.8681,0.8398,0.8657,0.8772,0.8368,1.0099,1.0901,0.9191,1.0461,1.158,1.1347,1.1357,1.1416,1.1416,1.2047,1.2436,1.2436,1.3758,1.4245,1.3664,1.4985,1.5945,1.6279,1.9365,2.123,2.1828,2.5269,2.5684,0.0,0.0,0.0,0.0,0.0,0.0,0.0,0.0,0.0,0.0,0.0,0.0,0.0,0.0,0.0,0.0,0.0,0.0,0.0,0.0,0.0,0.0,0.0,0.0,0.0,0.0,0.0,0.7591,0.7893,0.0,0.0,0.0,0.0,0.7495,0.6604,0.6334,0.6921,0.8386,0.9415,0.9906,1.1244,1.2134,1.2413,1.2413,1.2531,1.2738,1.2738,1.2634,1.2634,1.2634,1.1785,1.0488,1.0268,0.9431,0.8106,0.7755,0.7384,0.7026,0.7654,0.6964,0.5832,0.8283,0.8577,0.7949,0.9529,0.9394,0.8706,0.971,0.883,0.7311,0.7208,0.5661,0.0,0.0,0.5377,0.5424,0.6583,0.6889,0.6817,0.6863,0.6869,0.6783,0.6783,0.6339,0.5776,0.5046,0.6406,0.7269,0.6117,0.0,0.7008,0.5332,0.6926,0.8101,0.7353,0.8969,1.0224,1.0224,1.0224,1.0224,1.0224,1.0308,1.1217,1.3419,1.3556,1.4979,1.8278,1.9619,2.0649,2.1288,2.4964,0.0,0.0,0.0,0.0,0.0,0.0,0.0,0.0,0.0,0.0,0.0,0.0,0.0,0.0,0.0,0.0,0.0,0.0,0.0,0.0,0.0,0.0,0.0,0.0,0.0,0.0,0.4645,0.5252,0.6592,0.5679,0.5056,0.0,0.0,0.0,0.0,0.0,0.0,0.6847,0.8403,0.971,1.0775,1.1161,1.1631,1.2145,1.2145,1.2205,1.223,1.1159,1.0671,1.0671,0.9598,0.8915,0.8512,0.8442,0.8218,0.7742,0.6685,0.6118,0.5914,0.5239,0.4747,0.4416,0.4861,0.5648,0.6475,0.6525,0.7424,0.8376,0.7217,0.6781,0.6436,0.5148,0.0,0.0,0.0,0.0,0.396,0.5322,0.501,0.4609,0.5511,0.5031,0.4422,0.4422,0.4825,0.5143,0.516,0.5874,0.5972,0.4439,0.4819,0.0,0.5076,0.8214,0.9965,0.8156,0.8589,0.9044,0.9044,0.9044,0.9044,0.9044,0.9803,1.0894,1.233,1.2583,1.3936,1.7054,1.714,1.9049,2.3157,0.0,0.0,0.0,0.0,0.0,0.0,0.0,0.0,0.0,0.0,0.0,0.0,0.0,0.0,0.0,0.0,0.0,0.0,0.0,0.0,0.0,0.0,0.0,0.0,0.0,0.0,0.0,0.4053,0.4774,0.6078,0.4828,0.399,0.0,0.0,0.0,0.0,0.0,0.0,0.0,0.0,0.0,0.8067,0.8103,0.8487,0.9274,0.9441,0.9696,0.9789,0.9282,0.8954,0.8954,0.8095,0.7812,0.7806,0.7674,0.7404,0.6889,0.5883,0.5221,0.4766,0.0,0.0,0.0,0.0,0.3397,0.4338,0.4293,0.5195,0.6179,0.507,0.0,0.0,0.0,0.0,0.0,0.0,0.0,0.2164,0.385,0.3596,0.3197,0.4262,0.401,0.3606,0.4018,0.3707,0.3599,0.4549,0.4396,0.3682,0.2206,0.2079,0.0,0.0,0.0,0.7477,0.548,0.6735,0.787,0.787,0.787,0.787,0.787,0.8647,0.9859,1.1403,1.2051,1.3426,1.5668,1.7204,1.7856,0.0,0.0,0.0,0.0,0.0,0.0,0.0,0.0,0.0,0.0,0.0,0.0,0.0,0.0,0.0,0.0,0.0,0.0,0.0,0.0,0.0,0.0,0.0,0.0,0.0,0.0,0.0,0.0,0.0,0.4629,0.5768,0.0,0.0,0.0,0.0,0.0,0.0,0.0,0.0,0.0,0.0,0.0,0.0,0.0,0.4468,0.5336,0.5825,0.6198,0.6619,0.7025,0.7266,0.7357,0.7357,0.7417,0.7509,0.7133,0.0,0.57,0.5139,0.0,0.0,0.0,0.0,0.0,0.0,0.0,0.0,0.0,0.0,0.0,0.0,0.0,0.0,0.0,0.0,0.0,0.0,0.0,0.0,0.0,0.0,0.2268,0.3064,0.3242,0.347,0.4102,0.2701,0.1739,0.3176,0.2455,0.127,0.0,0.0,0.0,0.0,0.0,0.0,0.1381,0.4456,0.6691,0.6518,0.6697,0.6783,0.6783,0.7406,0.8615,1.069,1.2044,1.3445,1.5138,1.8473,0.0,0.0,0.0,0.0,0.0,0.0,0.0,0.0,0.0,0.0,0.0,0.0,0.0,0.0,0.0,0.0,0.0,0.0,0.0,0.0,0.0,0.0,0.0,0.0,0.0,0.0,0.0,0.0,0.0,0.0,0.0,0.0,0.0,0.0,0.0,0.0,0.0,0.0,0.0,0.0,0.0,0.0,0.0,0.0,0.0,0.0,0.0,0.0,0.0,0.0,0.4534,0.4706,0.489,0.489,0.528,0.5986,0.495,0.443,0.4216,0.3362,0.0,0.0,0.0,0.0,0.0,0.0,0.0,0.0,0.0,0.0,0.0,0.0,0.0,0.0,0.0,0.0,0.0,0.0,0.0,0.0,0.0,0.0,0.1813,0.1756,0.1882,0.1848,0.1025,0.0,0.0,0.0,0.0,0.0,0.0,0.0,0.0,0.0,0.0,0.0,0.0387,0.3385,0.5198,0.4249,0.494,0.5548,0.5548,0.6899,0.8825,1.1368,1.2634,1.4824,0.0,0.0,0.0,0.0,0.0,0.0,0.0,0.0,0.0,0.0,0.0,0.0,0.0,0.0,0.0,0.0,0.0,0.0,0.0,0.0,0.0,0.0,0.0,0.0,0.0,0.0,0.0,0.0,0.0,0.0,0.0,0.0,0.0,0.0,0.0,0.0,0.0,0.0,0.0,0.0,0.0,0.0,0.0,0.0,0.0,0.0,0.0,0.0,0.0,0.0,0.0,0.0,0.0,0.0,0.0,0.0,0.0,0.0,0.344,0.288,0.0,0.0,0.0,0.0,0.0,0.0,0.0,0.0,0.0,0.0,0.0,0.0,0.0,0.0,0.0,0.0,0.0,0.0,0.0,0.0,0.0,0.0,0.0,0.0,0.0,0.0,0.0,0.0,0.0,0.0,0.0,0.0,0.0,0.0,0.0,0.0,0.0,0.0,0.0,0.0,-0.0053,0.2488,0.4144,0.3547,0.3986,0.459,0.5193,0.65,0.8115,1.0013,1.3162,0.0,0.0,0.0,0.0,0.0,0.0,0.0,0.0,0.0,0.0,0.0,0.0,0.0,0.0,0.0,0.0,0.0,0.0,0.0,0.0,0.0,0.0,0.0,0.0,0.0,0.0,0.0,0.0,0.0,0.0,0.0,0.0,0.0,0.0,0.0,0.0,0.0,0.0,0.0,0.0,0.0,0.0,0.0,0.0,0.0,0.0,0.0,0.0,0.0,0.0,0.0,0.0,0.0,0.0,0.0,0.0,0.0,0.0,0.0,0.1685,0.1326,0.0,0.0,0.0,0.0,0.0,0.0,0.0,0.0,0.0,0.0,0.0,0.0,0.0,0.0,0.0,0.0,0.0,0.0,0.0,0.0,0.0,0.0,0.0,0.0,0.0,0.0,0.0,0.0,0.0,0.0,0.0,0.0,0.0,0.0,0.0,0.0,0.0,0.0,0.0,0.0,-0.116,0.0901,0.2311,0.2068,0.2424,0.3202,0.4409,0.6034,0.7588,0.8855,1.2829,0.0,0.0,0.0,0.0,0.0,0.0,0.0,0.0,0.0,0.0,0.0,0.0,0.0,0.0,0.0,0.0,0.0,0.0,0.0,0.0,0.0,0.0,0.0,0.0,0.0,0.0,0.0,0.0,0.0,0.0,0.0,0.0,0.0,0.0,0.0,0.0,0.0,0.0,0.0,0.0,0.0,0.0,0.0,0.0,0.0,0.0,0.0,0.0,0.0,0.0,0.0,0.0,0.0,0.0,0.0,0.0,0.0,0.0,0.0,0.0,0.0,0.0,0.0,0.0,0.0,0.0,0.0,0.0,0.0,0.0,0.0,0.0,0.0,0.0,0.0,0.0,0.0,0.0,0.0,0.0,0.0,0.0,0.0,0.0,0.0,0.0,0.0,0.0,0.0,0.0,0.0,0.0,0.0,0.0,0.0,0.0,0.0,0.0,0.0,0.0,0.0,-0.3979,-0.2347,-0.1402,-0.2673,-0.0952,0.0777,0.1982,0.5666,0.8301,0.9397,0.0,0.0,0.0,0.0,0.0,0.0,0.0,0.0,0.0,0.0,0.0,0.0,0.0,0.0,0.0,0.0,0.0,0.0,0.0,0.0,0.0,0.0,0.0,0.0,0.0,0.0,0.0,0.0,0.0,0.0,0.0,0.0,0.0,0.0,0.0,0.0,0.0,0.0,0.0,0.0,0.0,0.0,0.0,0.0,0.0,0.0,0.0,0.0,0.0,0.0,0.0,0.0,0.0,0.0,0.0,0.0,0.0,0.0,0.0,0.0,0.0,0.0,0.0,0.0,0.0,0.0,0.0,0.0,0.0,0.0,0.0,0.0,0.0,0.0,0.0,0.0,0.0,0.0,0.0,0.0,0.0,0.0,0.0,0.0,0.0,0.0,0.0,0.0,0.0,0.0,0.0,0.0,0.0,0.0,0.0,0.0,0.0,0.0,0.0,0.0,0.0,0.0,-0.5047,-0.4439,-0.3852,-0.3972,-0.2219,-0.026,0.1552,0.4952,0.7123,0.7647,0.0,0.0,0.0,0.0,0.0,0.0,0.0,0.0,0.0,0.0,0.0,0.0,0.0,0.0,0.0,0.0,0.0,0.0,0.0,0.0,0.0,0.0,0.0,0.0,0.0,0.0,0.0,0.0,0.0,0.0,0.0,0.0,0.0,0.0,0.0,0.0,0.0,0.0,0.0,0.0,0.0,0.0,0.0,0.0,0.0,0.0,0.0,0.0,0.0,0.0,0.0,0.0,0.0,0.0,0.0,0.0,0.0,0.0,0.0,0.0,0.0,0.0,0.0,0.0,0.0,0.0,0.0,0.0,0.0,0.0,0.0,0.0,0.0,0.0,0.0,0.0,0.0,0.0,0.0,0.0,0.0,0.0,0.0,0.0,0.0,0.0,0.0,0.0,0.0,0.0,0.0,0.0,0.0,0.0,0.0,0.0,0.0,0.0,0.0,0.0,0.0,0.0,-0.6305,-0.6393,-0.6092,-0.5386,-0.3799,-0.1722,0.0931,0.3746,0.5546,0.5878,0.0,0.0,0.0,0.0,0.0,0.0,0.0,0.0,0.0,0.0,0.0,0.0,0.0,0.0,0.0,0.0,0.0,0.0,0.0,0.0,0.0,0.0,0.0,0.0,0.0,0.0,0.0,0.0,0.0,0.0,0.0,0.0,0.0,0.0,0.0,0.0,0.0,0.0,0.0,0.0,0.0,0.0,0.0,0.0,0.0,0.0,0.0,0.0,0.0,0.0,0.0,0.0,0.0,0.0,0.0,0.0,0.0,0.0,0.0,0.0,0.0,0.0,0.0,0.0,0.0,0.0,0.0,0.0,0.0,0.0,0.0,0.0,0.0,0.0,0.0,0.0,0.0,0.0,0.0,0.0,0.0,0.0,0.0,0.0,0.0,0.0,0.0,0.0,0.0,0.0,0.0,0.0,0.0,0.0,0.0,0.0,0.0,0.0,0.0,0.0,0.0,0.0,-0.8151,-0.8464,-0.8335,-0.7807,-0.6237,-0.3906,-0.0648,0.1912,0.3729,0.0,0.0,0.0,0.0,0.0,0.0,0.0,0.0,0.0,0.0,0.0,0.0,0.0,0.0,0.0,0.0,0.0,0.0,0.0,0.0,0.0,0.0,0.0,0.0,0.0,0.0,0.0,0.0,0.0,0.0,0.0,0.0,0.0,0.0,0.0,0.0,0.0,0.0,0.0,0.0,0.0,0.0,0.0,0.0,0.0,0.0,0.0,0.0,0.0,0.0,0.0,0.0,0.0,0.0,0.0,0.0,0.0,0.0,0.0,0.0,0.0,0.0,0.0,0.0,0.0,0.0,0.0,0.0,0.0,0.0,0.0,0.0,0.0,0.0,0.0,0.0,0.0,0.0,0.0,0.0,0.0,0.0,0.0,0.0,0.0,0.0,0.0,0.0,0.0,0.0,0.0,0.0,0.0,0.0,0.0,0.0,0.0,0.0,0.0,0.0,0.0,0.0,0.0,-0.9721,-0.9552,-0.9369,-0.9143,-0.7135,-0.4345,-0.0726,0.2436,0.4375,0.4631,0.0,0.0,0.0,0.0,0.0,0.0,0.0,0.0,0.0,0.0,0.0,0.0,0.0,0.0,0.0,0.0,0.0,0.0,0.0,0.0,0.0,0.0,0.0,0.0,0.0,0.0,0.0,0.0,0.0,0.0,0.0,0.0,0.0,0.0,0.0,0.0,0.0,0.0,0.0,0.0,0.0,0.0,0.0,0.0,0.0,0.0,0.0,0.0,0.0,0.0,0.0,0.0,0.0,0.0,0.0,0.0,0.0,0.0,0.0,0.0,0.0,0.0,0.0,0.0,0.0,0.0,0.0,0.0,0.0,0.0,0.0,0.0,0.0,0.0,0.0,0.0,0.0,0.0,0.0,0.0,0.0,0.0,0.0,0.0,0.0,0.0,0.0,0.0,0.0,0.0,0.0,0.0,0.0,0.0,0.0,0.0,0.0,0.0,0.0,0.0,0.0,0.0,0.0,-1.1246,-1.1342,-1.05,-0.8139,-0.5035,-0.1092,0.1875,0.3804,0.4601,0.0,0.0,0.0,0.0,0.0,0.0,0.0,0.0,0.0,0.0,0.0,0.0,0.0,0.0,0.0,0.0,0.0,0.0,0.0,0.0,0.0,0.0,0.0,0.0,0.0,0.0,0.0,0.0,0.0,0.0,0.0,0.0,0.0,0.0,0.0,0.0,0.0,0.0,0.0,0.0,0.0,0.0,0.0,0.0,0.0,0.0,0.0,0.0,0.0,0.0,0.0,0.0,0.0,0.0,0.0,0.0,0.0,0.0,0.0,0.0,0.0,0.0,0.0,0.0,0.0,0.0,0.0,0.0,0.0,0.0,0.0,0.0,0.0,0.0,0.0,0.0,0.0,0.0,0.0,0.0,0.0,0.0,0.0,0.0,0.0,0.0,0.0,0.0,0.0,0.0,0.0,0.0,0.0,0.0,0.0,0.0,0.0,0.0,0.0,0.0,0.0,0.0,0.0,-1.3194,-1.3686,-1.1655,-0.9239,-0.6011,-0.1689,0.0511,0.2578,0.4698,0.7062,0.0,0.0,0.0,0.0,0.0,0.0,0.0,0.0,0.0,0.0,0.0,0.0,0.0,0.0,0.0,0.0,0.0,0.0,0.0,0.0,0.0,0.0,0.0,0.0,0.0,0.0,0.0,0.0,0.0,0.0,0.0,0.0,0.0,0.0,0.0,0.0,0.0,0.0,0.0,0.0,0.0,0.0,0.0,0.0,0.0,0.0,0.0,0.0,0.0,0.0,0.0,0.0,0.0,0.0,0.0,0.0,0.0,0.0,0.0,0.0,0.0,0.0,0.0,0.0,0.0,0.0,0.0,0.0,0.0,0.0,0.0,0.0,0.0,0.0,0.0,0.0,0.0,0.0,0.0,0.0,0.0,0.0,0.0,0.0,0.0,0.0,0.0,0.0,0.0,0.0,0.0,0.0,0.0,0.0,0.0,0.0,0.0,0.0,0.0,0.0,0.0,0.0,-1.3267,-1.3057,-1.105,-0.9167,-0.6069,-0.1043,0.1516,0.386,0.6137,0.761,0.0,0.0,0.0,0.0,0.0,0.0,0.0,0.0,0.0,0.0,0.0,0.0,0.0,0.0,0.0,0.0,0.0,0.0,0.0,0.0,0.0,0.0,0.0,0.0,0.0,0.0,0.0,0.0,0.0,0.0,0.0,0.0,0.0,0.0,0.0,0.0,0.0,0.0,0.0,0.0,0.0,0.0,0.0,0.0,0.0,0.0,0.0,0.0,0.0,0.0,0.0,0.0,0.0,0.0,0.0,0.0,0.0,0.0,0.0,0.0,0.0,0.0,0.0,0.0,0.0,0.0,0.0,0.0,0.0,0.0,0.0,0.0,0.0,0.0,0.0,0.0,0.0,0.0,0.0,0.0,0.0,0.0,0.0,0.0,0.0,0.0,0.0,0.0,0.0,0.0,0.0,0.0,0.0,0.0,0.0,0.0,0.0,0.0,0.0,0.0,0.0,0.0,-1.6766,-1.551,-1.2274,-0.9704,-0.6131,-0.1014,0.1817,0.4125,0.6142,0.7267,0.0,0.0,0.0,0.0,0.0,0.0,0.0,0.0,0.0,0.0,0.0,0.0,0.0,0.0,0.0,0.0,0.0,0.0,0.0,0.0,0.0,0.0,0.0,0.0,0.0,0.0,0.0,0.0,0.0,0.0,0.0,0.0,0.0,0.0,0.0,0.0,0.0,0.0,0.0,0.0,0.0,0.0,0.0,0.0,0.0,0.0,0.0,0.0,0.0,0.0,0.0,0.0,0.0,0.0,0.0,0.0,0.0,0.0,0.0,0.0,0.0,0.0,0.0,0.0,0.0,0.0,0.0,0.0,0.0,0.0,0.0,0.0,0.0,0.0,0.0,0.0,0.0,0.0,0.0,0.0,0.0,0.0,0.0,0.0,0.0,0.0,0.0,0.0,0.0,0.0,0.0,0.0,0.0,0.0,0.0,0.0,0.0,0.0,0.0,0.0,0.0,0.0,0.0,-1.8281,-1.4088,-1.0416,-0.6245,-0.1322,0.1722,0.4037,0.5608,0.0,0.0,0.0,0.0,0.0,0.0,0.0,0.0,0.0,0.0,0.0,0.0,0.0,0.0,0.0,0.0,0.0,0.0,0.0,0.0,0.0,0.0,0.0,0.0,0.0,0.0,0.0,0.0,0.0,0.0,0.0,0.0,0.0,0.0,0.0,0.0,0.0,0.0,0.0,0.0,0.0,0.0,0.0,0.0,0.0,0.0,0.0,0.0,0.0,0.0,0.0,0.0,0.0,0.0,0.0,0.0,0.0,0.0,0.0,0.0,0.0,0.0,0.0,0.0,0.0,0.0,0.0,0.0,0.0,0.0,0.0,0.0,0.0,0.0,0.0,0.0,0.0,0.0,0.0,0.0,0.0,0.0,0.0,0.0,0.0,0.0,0.0,0.0,0.0,0.0,0.0,0.0,0.0,0.0,0.0,0.0,0.0,0.0,0.0,0.0,0.0,0.0,0.0,0.0,-1.6724,-1.4751,-1.1137,-0.6787,-0.1703,0.1761,0.4275,0.5872,0.0,0.0,0.0,0.0,0.0,0.0,0.0,0.0,0.0,0.0,0.0,0.0,0.0,0.0]}]]]